GFSGL_sfc_thetae_000.txt.gz
Theta_e
287 286 285 285 285 285 284 284 284 284 283 283 283 283 283 283 283 282 282 282 282 281 281 281 282 282 283 283 284 283 283 282 280 282 284 285 284 284 286 286 287 287 288
286 285 285 284 284 284 283 283 284 283 283 283 283 283 283 283 283 282 281 281 281 280 281 281 282 284 282 282 283 282 282 283 281 279 283 283 284 285 286 285 286 286 285
286 285 284 283 283 283 283 283 284 283 283 283 283 283 283 283 282 282 282 281 281 281 281 281 281 281 281 282 282 282 283 284 284 282 281 283 283 285 282 282 282 282 283
285 284 283 283 283 283 283 283 284 283 283 283 283 282 282 282 282 282 282 281 281 282 282 282 281 281 281 282 283 283 283 281 281 281 281 282 284 282 280 278 278 280 280
284 283 283 283 283 283 284 284 284 283 283 282 282 281 281 282 284 285 284 282 281 280 281 281 282 284 287 286 284 283 282 282 283 282 280 281 279 278 277 278 277 279 280
284 283 284 284 284 284 283 283 282 282 281 281 280 280 280 283 288 289 288 283 281 279 279 280 281 285 284 288 288 288 287 283 281 281 280 278 277 277 278 277 278 278 274
283 283 283 284 283 283 282 282 281 280 279 280 280 279 279 279 288 288 289 283 280 279 280 280 281 283 284 282 285 287 287 287 287 282 278 277 277 278 280 279 277 277 276
283 283 283 284 282 282 281 280 279 279 279 279 279 279 278 280 286 287 288 281 279 279 280 280 280 280 282 283 283 282 283 281 280 280 280 281 282 281 280 279 279 279 279
282 282 283 283 282 280 279 278 279 279 278 278 279 278 277 277 285 286 285 281 280 279 280 280 281 281 285 287 284 282 279 278 282 285 285 284 284 284 283 280 277 275 274
282 282 281 281 280 279 278 278 278 278 278 279 278 277 280 276 282 286 285 281 279 279 280 281 285 284 287 288 282 279 276 276 280 279 277 278 280 280 283 280 278 274 273
281 281 280 280 279 278 278 278 277 277 277 276 276 276 276 277 278 285 286 282 281 281 281 281 281 286 286 285 284 277 278 281 279 276 276 277 278 278 278 279 279 277 274
280 280 279 278 279 280 277 277 276 276 275 275 275 275 277 277 282 284 286 286 286 282 282 281 283 285 284 283 281 283 283 281 276 276 276 276 276 276 277 278 278 278 279
278 277 277 277 278 277 276 276 276 275 275 275 277 277 277 279 277 284 285 286 285 282 282 284 283 282 281 279 281 281 281 276 276 276 275 275 276 277 277 277 278 279 279
277 276 276 276 277 276 277 277 276 275 275 277 277 277 277 278 278 280 281 280 284 283 283 278 280 280 280 279 278 278 277 277 277 276 275 276 277 277 276 277 276 276 276
275 275 275 276 275 275 276 276 277 276 279 278 277 277 277 277 279 284 283 282 282 282 281 277 276 275 274 275 275 276 276 276 276 276 275 275 276 276 276 277 276 276 275
275 276 276 276 275 276 275 275 281 282 283 283 283 281 280 283 284 284 285 284 284 283 277 274 273 274 274 274 274 274 275 276 275 275 274 274 274 274 274 276 276 276 275
274 275 276 277 275 275 275 275 274 277 281 281 282 282 282 282 283 284 283 282 281 280 275 274 273 273 273 274 274 274 273 274 275 274 273 274 274 273 274 274 275 276 275
274 280 276 275 274 274 275 275 274 274 274 274 279 280 281 281 282 282 281 279 275 276 275 274 273 273 273 273 274 274 273 274 273 273 274 273 273 273 273 273 275 275 276
275 276 276 275 275 277 275 275 275 274 274 274 275 277 278 281 282 280 279 274 273 274 274 273 274 274 274 274 274 273 273 273 274 273 273 273 274 274 274 274 275 278 278
275 279 279 275 275 275 275 275 274 274 273 273 273 274 275 278 275 274 274 274 274 274 274 273 274 274 273 273 273 273 273 273 272 272 273 274 274 275 275 275 276 275 275
274 275 279 275 275 275 275 274 274 273 273 273 273 275 280 276 273 273 273 274 274 274 273 274 273 273 273 273 273 272 272 272 272 273 273 274 274 275 275 278 277 276 276
274 274 275 274 275 274 274 273 273 273 273 272 273 275 278 274 273 273 274 274 274 274 274 274 273 273 273 273 273 272 272 271 272 273 273 274 275 275 277 278 276 276 275
274 273 274 274 274 275 272 272 272 272 273 273 273 274 274 273 273 273 273 273 274 273 273 273 273 272 273 273 273 273 272 272 274 275 274 274 276 279 279 277 276 275 275
273 273 273 273 272 273 272 272 272 274 274 274 273 273 272 273 272 273 273 272 273 272 273 273 273 273 273 273 274 275 275 275 276 277 280 282 282 279 278 276 277 277 275
272 271 272 271 271 272 271 272 272 272 273 273 272 272 272 272 272 272 272 272 271 271 271 272 273 273 273 273 273 274 276 281 284 285 285 283 282 281 280 278 277 279 277
272 270 271 271 271 271 271 272 272 272 271 271 271 270 271 272 272 271 271 271 270 270 270 272 272 273 273 274 275 277 282 286 286 287 284 283 282 281 282 277 274 275 277

GFSGL_sfc_thetae_003.txt.gz
Theta_e
287 286 285 285 285 284 284 283 283 283 283 283 283 282 282 282 282 281 281 282 281 281 280 280 281 281 281 282 282 282 281 281 278 281 283 284 284 284 285 286 287 288 287
285 285 284 284 284 283 283 283 283 283 283 282 282 282 282 282 282 281 280 281 280 280 280 280 281 283 280 280 281 281 281 282 281 279 282 282 282 283 284 284 285 285 283
285 284 283 283 283 282 282 283 283 283 282 282 282 281 282 282 281 281 281 281 280 280 280 280 280 280 279 280 280 281 282 284 282 280 279 282 283 283 283 282 281 281 282
285 284 283 283 283 282 283 283 283 282 282 281 281 281 281 281 281 281 282 281 280 281 281 281 280 280 280 280 281 282 283 281 281 280 281 282 281 283 282 279 278 280 279
284 283 283 283 283 283 283 283 282 282 281 281 281 281 280 281 283 284 283 281 280 279 279 280 281 283 287 286 284 283 282 281 281 281 279 280 279 278 277 278 277 278 279
283 283 283 283 283 283 282 282 281 280 280 281 280 279 279 282 287 289 287 282 279 278 278 279 280 283 283 287 287 287 286 283 281 281 279 277 276 277 278 278 278 276 274
283 283 283 284 283 282 281 281 280 279 279 279 279 278 278 278 287 288 288 281 279 278 280 280 280 282 283 281 284 287 287 288 286 282 277 277 276 278 280 278 277 277 276
282 283 283 283 282 281 280 279 278 278 278 278 278 278 277 279 286 287 287 280 279 278 279 279 279 279 281 283 284 283 281 280 280 280 279 280 281 281 280 279 279 278 279
282 282 283 282 281 280 278 277 278 277 277 278 278 277 276 277 285 286 285 279 279 278 279 279 280 281 285 288 283 279 278 278 281 284 285 284 284 284 283 280 276 275 273
282 281 281 280 279 278 277 277 277 277 278 277 277 277 279 276 282 285 285 281 278 279 280 280 285 284 287 287 281 278 275 276 279 279 277 278 280 280 283 280 278 274 273
281 280 280 279 278 277 277 276 276 276 276 275 276 275 275 277 278 285 286 282 281 281 280 280 280 285 285 285 284 277 278 282 279 276 276 277 278 278 278 279 279 277 274
279 279 277 277 279 278 276 276 275 275 274 274 274 275 277 276 282 284 286 286 286 280 280 280 282 284 284 283 281 282 283 281 276 276 276 276 276 276 277 278 278 278 279
277 276 276 277 277 277 275 275 275 275 274 274 277 276 277 278 277 283 285 286 285 283 281 283 283 282 281 279 281 282 281 275 275 275 275 274 275 276 277 277 278 279 279
275 275 276 276 276 275 277 277 275 275 274 277 277 276 276 277 278 279 280 280 284 282 282 276 280 279 280 279 277 277 276 276 276 275 274 275 276 275 275 277 276 276 276
275 275 275 276 274 274 276 275 277 276 277 277 277 277 276 276 279 283 283 282 281 282 281 276 275 274 274 274 275 275 275 276 275 274 274 274 274 274 275 276 276 276 274
275 276 276 276 274 275 274 274 280 281 282 282 282 281 279 282 283 284 285 284 283 282 277 274 273 273 273 273 273 274 274 275 274 274 273 273 273 273 273 275 275 275 274
274 275 275 277 275 274 274 274 273 276 281 281 281 281 282 282 282 283 283 282 280 279 274 273 272 272 273 273 273 273 272 273 274 273 272 273 274 272 273 273 274 274 274
274 280 275 274 273 274 274 274 274 273 273 274 278 279 280 281 282 282 281 279 274 275 274 273 272 273 273 273 273 272 272 273 273 273 273 273 272 273 272 273 273 273 276
275 275 275 274 274 276 275 274 274 274 273 273 274 276 278 280 281 280 279 274 273 273 273 273 273 273 273 273 273 272 272 272 274 273 272 272 273 273 272 273 274 278 279
274 278 278 275 274 274 274 273 273 273 272 272 272 273 274 277 274 273 274 274 273 273 273 273 273 273 272 272 272 272 272 272 271 271 272 272 273 273 273 274 275 275 275
274 274 278 274 274 274 273 273 272 272 271 272 272 274 279 276 273 272 273 273 273 273 273 273 272 272 272 272 272 272 272 271 272 272 272 273 273 273 275 275 276 277 276
274 274 274 274 274 273 273 272 272 272 272 272 272 274 277 273 273 272 273 273 273 273 273 273 272 272 272 272 272 271 271 271 271 272 272 273 274 274 275 277 278 277 276
273 272 273 273 273 274 272 271 271 271 272 272 273 273 273 272 272 272 272 273 272 272 272 272 272 272 273 273 274 273 272 272 273 274 273 273 274 275 279 279 278 276 274
272 272 272 271 271 272 271 271 271 273 273 273 272 272 271 272 271 272 272 271 271 271 271 272 272 272 272 273 274 274 274 275 275 276 278 279 282 281 280 279 279 276 274
271 270 271 270 270 270 270 271 271 272 272 272 271 271 271 271 271 271 271 270 270 270 271 271 272 272 273 273 273 274 276 281 284 285 285 283 282 282 281 280 279 279 275
271 269 270 270 270 270 270 271 271 271 270 269 270 270 270 270 271 270 270 270 269 270 270 271 272 272 272 273 274 277 282 285 287 288 283 281 282 282 282 279 277 278 275

GFSGL_sfc_thetae_006.txt.gz
Theta_e
288 287 286 285 285 284 283 283 283 282 282 282 282 282 282 281 281 280 280 281 280 280 280 280 280 280 280 280 280 280 280 280 277 280 282 284 283 282 283 284 285 285 287
286 286 285 285 283 283 282 282 282 282 282 282 282 282 281 281 280 279 280 280 280 280 280 280 280 282 280 280 280 279 280 280 279 277 281 281 281 283 283 283 284 286 285
285 285 284 283 282 282 282 282 282 282 281 281 281 281 281 281 280 280 280 280 280 280 279 279 279 279 278 279 279 279 280 282 282 280 279 281 282 283 282 283 282 282 282
285 284 283 282 282 282 282 282 282 281 281 281 281 280 280 280 280 280 282 281 280 280 279 279 279 279 279 279 280 280 282 280 280 279 279 281 281 282 281 278 277 279 279
284 283 283 282 282 282 282 282 281 281 280 281 280 280 279 280 282 283 283 281 279 278 278 279 280 282 286 285 283 281 281 280 280 281 281 280 278 277 276 278 277 279 280
284 282 282 283 283 282 281 281 281 280 280 280 279 278 278 281 286 288 287 281 279 278 277 278 279 283 282 287 287 287 286 284 280 278 277 276 276 276 277 278 278 276 274
283 282 283 283 282 281 280 280 280 279 278 278 277 277 277 277 286 288 288 281 279 278 279 279 280 282 283 280 284 287 286 286 285 280 276 276 276 278 280 278 277 277 276
282 282 283 282 281 280 279 279 278 277 277 277 277 276 276 278 286 287 287 280 279 278 279 278 278 279 280 283 283 283 279 279 279 280 279 280 281 281 280 279 278 278 279
281 281 282 281 280 279 278 277 277 276 276 276 276 276 275 276 284 286 285 280 279 279 279 279 279 280 285 287 283 279 278 278 281 284 285 284 284 284 283 280 276 275 273
281 281 280 280 279 277 277 276 276 275 277 277 277 276 279 275 282 285 285 281 278 279 280 280 284 284 286 287 281 279 275 276 279 279 277 278 279 279 283 279 277 274 273
280 279 278 278 277 276 276 275 274 274 275 274 275 275 275 277 278 285 286 282 280 281 280 280 281 285 286 285 284 277 278 282 279 275 276 276 277 277 277 277 278 276 274
278 277 277 277 279 277 275 274 274 274 274 274 274 275 277 276 282 283 285 286 285 281 281 280 280 284 284 283 281 282 283 281 276 275 275 275 274 274 275 276 277 277 278
276 276 276 276 276 276 274 274 275 274 274 274 276 275 276 278 277 283 285 285 285 283 281 283 283 282 281 279 280 281 280 275 275 275 274 273 274 275 275 276 277 277 278
275 275 275 276 274 274 276 276 275 274 274 276 276 276 275 277 277 279 279 280 284 281 282 277 280 279 279 278 277 276 275 276 276 274 274 274 275 274 274 275 274 275 275
274 275 275 275 273 273 275 274 277 275 276 277 276 276 276 276 278 283 282 282 280 281 281 276 274 274 273 274 274 275 275 275 274 274 273 273 273 274 273 275 275 275 273
274 275 276 275 274 275 274 274 279 281 282 282 282 280 279 281 283 283 284 283 283 282 277 273 272 273 272 273 273 273 274 274 273 273 272 272 272 272 273 274 274 273 273
274 275 275 277 274 274 274 273 272 276 280 280 280 281 281 281 282 283 283 282 280 279 274 272 272 272 272 272 272 272 272 273 273 272 272 272 273 272 272 272 273 273 273
275 280 274 274 273 273 274 274 273 272 272 273 277 279 280 281 281 282 281 278 273 274 273 272 272 272 272 272 272 272 272 272 272 272 273 273 272 272 271 271 272 272 274
275 275 274 274 274 275 274 273 273 273 272 272 273 275 277 279 281 280 278 273 272 272 272 272 272 272 272 272 272 272 271 272 273 273 271 272 272 272 271 272 272 277 278
274 279 278 275 274 274 273 272 272 271 271 271 271 272 273 276 274 273 273 273 272 272 273 272 272 272 272 272 271 271 271 272 272 271 271 272 272 272 272 272 273 274 275
273 274 278 273 273 273 272 272 272 271 270 271 271 273 279 275 272 272 272 272 272 272 272 272 271 271 271 271 271 271 271 271 271 271 271 272 273 272 274 274 275 276 277
273 273 273 273 273 272 272 272 271 271 271 271 271 273 277 272 272 272 272 272 272 272 272 271 271 271 271 271 271 271 271 271 272 272 272 273 273 274 274 275 276 278 276
272 271 272 272 272 273 271 271 270 271 271 271 272 272 272 271 271 271 271 272 272 271 271 271 271 271 272 272 273 272 272 272 273 274 273 273 274 275 275 278 279 277 274
271 271 271 271 270 271 270 270 271 272 272 272 271 271 271 271 271 271 271 270 270 270 271 271 271 271 271 272 273 274 274 274 275 276 278 280 281 282 281 279 279 277 275
270 269 270 270 269 270 270 270 270 271 271 271 270 270 270 270 270 270 270 270 269 269 270 270 271 271 272 272 272 273 275 281 284 285 285 282 282 282 281 279 275 276 273
270 269 269 270 269 269 270 270 270 270 269 268 269 269 268 269 269 269 269 269 269 269 269 270 271 271 271 272 273 276 282 284 287 288 283 282 282 282 282 280 275 276 273

GFSGL_sfc_thetae_009.txt.gz
Theta_e
296 294 293 291 290 290 289 288 287 287 287 287 287 286 286 286 286 286 286 286 286 286 286 285 285 285 285 285 286 285 284 283 281 283 286 287 286 286 286 288 288 288 289
292 291 290 289 288 287 287 287 287 286 287 286 286 286 286 285 285 285 285 286 285 284 284 284 284 284 284 284 284 284 284 284 283 281 283 285 285 286 286 286 287 287 287
290 289 288 287 287 286 286 286 286 286 285 286 286 285 284 284 284 284 285 286 285 284 284 283 283 283 282 283 283 283 284 284 284 283 282 285 285 286 286 285 284 284 284
288 288 287 286 286 286 286 285 285 285 285 285 285 284 284 283 284 284 286 286 285 284 284 283 283 282 282 283 283 284 284 283 283 283 283 283 283 284 284 282 281 283 283
287 286 285 285 286 285 285 284 284 285 284 284 284 283 283 283 284 287 287 286 285 284 284 283 284 284 286 286 285 284 284 284 284 283 282 281 281 280 279 281 280 282 283
286 285 285 285 285 284 284 284 284 284 283 283 282 282 282 282 286 288 288 286 285 283 283 283 284 284 284 287 287 287 287 285 283 282 281 279 279 279 281 281 280 278 277
285 285 285 285 284 283 283 283 283 282 282 282 281 281 281 281 286 288 288 286 284 284 283 283 283 284 285 283 285 287 288 287 286 283 279 279 279 281 282 280 280 279 279
285 285 285 284 282 282 282 282 282 282 281 281 280 280 280 281 285 286 287 285 284 284 284 283 283 283 284 284 285 285 284 283 282 282 281 282 283 283 282 281 281 281 281
284 284 283 283 282 282 281 281 281 281 280 280 280 280 280 281 284 285 286 284 283 283 284 284 283 283 285 287 285 282 281 281 283 284 285 285 284 284 283 281 279 277 276
283 282 283 282 282 281 280 280 279 280 280 280 280 280 281 280 283 285 285 284 282 282 283 284 284 284 286 287 283 281 278 279 281 282 280 280 281 281 283 281 279 275 275
282 281 281 281 280 280 279 279 279 279 279 278 279 280 280 281 281 284 285 284 283 283 282 282 283 285 286 285 284 280 279 283 281 278 278 278 279 280 280 280 279 278 275
281 280 280 280 280 279 278 278 278 278 278 278 278 279 280 280 282 283 285 285 285 282 282 282 283 285 284 283 281 282 283 282 278 277 277 277 277 277 278 279 279 279 279
279 278 279 279 279 279 278 278 278 278 277 278 278 278 279 280 280 283 284 285 285 284 283 283 283 282 281 280 280 281 281 277 276 276 276 276 277 278 278 278 279 279 279
278 278 279 278 277 277 279 279 278 278 277 278 278 278 278 278 279 281 282 283 284 283 283 281 281 280 279 279 278 278 277 277 277 276 275 276 277 277 277 278 277 277 276
277 277 278 277 277 277 278 278 279 279 279 279 279 278 277 277 279 283 283 283 282 282 281 278 276 275 275 275 276 276 276 276 276 275 275 275 275 276 276 277 277 277 275
277 278 278 277 277 277 277 277 280 281 281 281 281 280 280 281 282 283 284 283 283 282 278 275 274 274 274 274 274 274 275 276 275 275 275 274 274 274 275 276 276 276 275
276 277 278 277 276 276 276 276 275 277 279 279 280 280 281 281 282 282 282 282 280 279 275 274 273 273 273 274 274 274 274 275 275 274 274 274 274 275 274 274 275 275 275
278 280 276 276 276 276 276 276 275 274 273 274 277 279 279 280 281 282 281 279 274 275 274 273 273 273 273 273 274 274 274 274 274 274 274 275 274 274 273 274 274 274 275
277 277 277 276 276 277 276 275 274 274 273 273 274 276 277 279 281 280 278 274 273 273 273 273 273 273 273 273 274 274 273 273 274 274 273 274 274 274 273 274 275 277 278
276 280 279 276 275 275 275 274 274 273 272 272 272 273 274 277 275 274 274 273 273 273 273 273 273 273 273 273 273 273 273 273 273 273 274 274 274 274 274 274 275 276 277
275 276 278 275 274 274 273 273 273 272 272 272 272 274 278 276 273 273 272 273 273 273 273 273 273 272 272 273 273 273 272 273 273 273 274 274 275 274 276 276 277 278 278
275 274 274 274 273 273 274 273 272 272 272 272 272 274 277 273 273 272 272 273 273 273 273 273 272 272 272 272 273 272 272 272 273 274 274 275 276 276 277 277 278 279 280
273 273 273 272 272 274 272 272 272 272 272 272 273 273 272 272 272 272 272 272 272 272 273 272 272 271 273 273 274 273 272 273 274 275 274 275 276 277 279 279 281 280 279
272 272 272 271 271 272 271 271 272 272 272 272 272 271 271 271 271 271 271 271 272 271 271 271 272 272 272 272 274 275 275 275 276 277 279 281 283 283 283 282 282 280 279
271 271 271 271 270 270 270 270 271 271 271 271 270 270 270 270 270 270 270 271 270 270 270 271 271 272 272 272 273 273 275 280 283 284 286 284 283 283 284 283 280 280 279
271 270 270 270 270 270 270 270 270 270 269 269 269 269 269 269 269 270 270 270 270 270 269 270 271 271 272 273 274 276 282 284 286 289 286 283 283 284 284 282 279 280 280

GFSGL_sfc_thetae_012.txt.gz
Theta_e
305 297 297 297 297 297 298 297 295 294 293 292 292 291 291 291 291 291 290 290 290 290 290 289 288 289 288 288 288 287 286 286 283 285 287 288 288 288 289 290 290 289 290
298 297 295 296 297 297 295 294 293 292 292 291 291 291 290 290 290 289 289 290 289 289 289 288 287 287 286 286 286 286 286 286 284 283 285 286 286 288 288 287 288 288 288
297 296 296 297 296 294 293 292 292 291 291 290 291 290 289 289 289 288 288 289 289 289 288 287 286 286 285 285 285 286 286 286 286 285 284 287 288 288 287 287 286 286 286
296 297 295 295 294 292 292 291 291 290 290 290 290 289 288 288 288 287 289 289 289 289 288 287 287 285 285 285 286 286 286 285 285 285 285 286 286 287 286 284 282 285 285
295 295 293 292 292 291 290 290 290 290 289 289 288 288 288 287 287 288 290 289 289 288 288 287 287 286 287 287 286 285 285 284 285 285 285 284 284 283 281 283 282 284 285
294 292 290 290 290 290 289 289 289 288 288 288 287 287 286 286 286 288 288 288 288 287 286 286 287 287 286 287 287 287 286 285 284 284 283 281 281 282 282 282 282 281 279
290 290 290 289 288 288 288 288 288 288 287 286 286 286 285 285 286 287 288 287 287 286 286 286 285 286 287 285 286 287 288 289 288 285 282 281 281 282 283 283 282 281 280
289 289 289 288 287 288 288 287 287 287 286 286 285 285 285 285 285 286 287 287 286 286 286 286 285 285 285 285 285 286 286 285 285 284 283 283 284 285 284 283 282 282 283
288 288 288 287 287 287 286 286 286 286 286 285 285 284 284 284 284 285 286 286 285 285 286 286 285 285 286 287 285 284 283 283 285 285 286 287 286 286 285 282 280 279 278
287 287 287 287 286 286 286 285 284 285 285 285 284 284 283 283 283 285 285 285 284 284 285 285 286 285 286 287 284 282 281 281 282 283 283 283 283 283 284 283 282 278 278
287 286 286 286 286 285 284 284 284 284 284 283 283 284 283 283 283 284 285 285 284 283 283 283 284 286 286 285 285 282 280 283 283 281 280 281 282 282 283 283 282 280 278
286 285 284 284 284 284 284 283 283 283 283 282 282 283 283 283 283 283 285 285 285 283 283 283 284 285 284 284 282 282 283 283 280 279 279 279 280 281 282 282 282 281 281
284 283 283 283 283 283 283 283 283 283 282 281 281 281 281 282 283 283 284 285 285 284 283 284 285 284 282 281 281 282 281 280 279 277 277 279 280 281 281 281 282 282 282
283 283 283 282 282 283 283 283 282 282 281 281 280 280 281 281 281 282 283 284 285 284 284 284 282 281 281 280 280 280 280 280 279 278 277 278 280 280 280 281 279 280 279
283 282 282 282 282 282 282 282 282 282 282 281 280 280 279 279 281 283 283 283 283 283 282 281 279 278 278 278 279 279 279 279 278 278 277 277 277 278 279 280 280 279 277
282 282 282 282 282 281 281 281 280 280 281 281 281 281 281 282 282 283 283 284 283 282 279 277 277 277 277 277 276 277 278 278 278 277 277 277 277 277 277 279 279 278 277
282 282 282 281 281 280 280 279 278 280 280 279 279 280 281 281 281 282 283 282 281 280 277 276 276 276 276 276 276 276 277 278 278 277 277 277 277 278 277 277 278 278 278
282 281 281 281 280 280 280 279 278 277 276 277 279 279 279 280 281 282 281 280 277 277 276 275 276 276 276 276 276 276 277 277 277 277 277 277 276 276 276 276 277 277 278
281 281 281 281 280 280 279 278 277 277 276 276 277 278 279 279 281 281 279 276 275 275 275 275 276 276 276 276 276 276 276 276 277 276 276 276 277 277 276 277 277 279 279
282 281 280 279 279 278 277 277 277 276 275 275 276 276 277 278 277 276 276 276 275 275 275 275 276 276 276 276 276 276 276 276 276 276 276 277 277 277 277 277 278 278 279
280 279 278 278 278 277 276 276 276 275 275 275 275 276 278 277 275 275 275 275 275 275 275 275 275 275 275 275 275 275 275 275 275 276 276 277 277 277 278 279 280 280 281
279 278 277 277 276 276 276 276 275 275 275 275 275 276 277 275 275 274 274 275 275 275 276 275 275 275 275 275 275 275 275 274 275 276 276 276 277 278 279 280 281 282 282
277 277 276 276 275 275 275 275 275 275 275 275 275 274 274 274 274 274 274 274 274 275 275 275 275 274 275 276 276 276 275 275 276 276 276 276 277 279 281 282 284 283 281
276 276 275 275 274 275 274 274 274 274 274 274 274 274 273 273 273 273 274 274 274 275 275 275 275 274 274 275 276 277 277 277 277 277 278 281 283 284 284 284 284 282 282
275 275 274 274 273 273 273 274 274 274 273 273 273 272 273 273 273 273 274 274 274 274 274 274 274 274 274 274 275 275 277 280 283 284 285 285 284 284 285 284 283 282 282
275 274 274 274 273 273 273 273 273 273 272 272 272 272 272 272 273 273 273 274 274 273 273 274 275 274 275 275 276 278 282 284 286 288 286 285 284 285 284 283 281 282 282

GFSGL_sfc_thetae_015.txt.gz
Theta_e
311 305 302 300 302 299 299 298 297 297 296 295 294 293 293 293 292 292 291 291 291 291 291 291 289 290 289 288 288 287 286 286 282 285 287 288 287 287 288 289 290 289 289
308 303 299 299 298 298 297 296 296 295 295 294 293 292 292 291 291 290 290 290 290 289 290 290 289 288 287 287 287 286 285 286 284 282 285 286 286 287 288 287 288 288 287
302 298 297 296 296 296 295 294 295 294 293 292 292 292 291 290 289 290 289 289 289 290 289 288 288 287 286 286 286 285 286 286 286 284 283 286 286 287 287 287 286 286 286
298 296 295 295 294 294 293 294 293 292 292 292 291 290 289 289 288 288 289 290 290 290 290 289 288 287 285 285 285 285 286 285 285 283 283 283 285 287 285 283 282 284 283
296 295 295 295 294 293 293 292 292 292 291 291 289 289 288 288 288 288 289 289 289 288 288 288 288 288 288 288 286 285 285 284 283 282 282 283 282 282 281 282 281 282 282
295 294 293 293 293 292 291 290 291 290 289 289 288 287 287 287 286 288 288 287 287 287 286 286 287 288 287 288 289 288 287 284 283 283 283 281 281 281 281 281 280 280 278
292 291 293 291 290 290 290 290 289 289 289 288 287 286 286 286 286 287 288 286 286 286 286 286 286 286 287 286 287 287 287 288 288 284 282 281 280 281 281 280 281 280 278
290 291 290 290 289 289 289 289 288 288 287 286 286 286 286 286 285 286 287 286 286 286 286 286 285 285 286 286 285 284 285 285 285 284 283 282 283 284 284 284 281 280 281
288 289 289 289 289 288 288 287 287 286 286 285 285 285 284 285 284 285 286 285 284 285 286 286 285 285 287 288 285 283 283 282 285 286 286 287 288 287 286 282 279 278 277
289 289 289 289 288 287 287 286 285 286 285 285 284 285 284 283 285 285 285 284 283 283 284 285 287 286 287 287 284 282 280 280 281 282 283 283 284 283 285 283 282 278 277
289 288 288 288 287 286 285 285 285 284 284 284 284 284 284 284 283 284 285 284 283 283 283 283 284 286 286 287 286 282 280 282 282 281 280 280 281 281 282 282 282 280 278
287 286 285 285 285 285 284 284 284 284 283 283 283 283 284 284 284 284 284 285 286 283 282 283 284 286 286 285 283 283 284 284 280 279 278 278 278 279 280 281 281 281 281
285 285 284 284 284 285 284 284 283 283 282 282 281 281 282 283 283 284 285 285 285 284 284 284 285 285 284 282 282 283 283 280 279 278 277 278 279 279 279 279 281 282 281
284 283 283 283 283 283 284 283 283 282 281 281 280 280 280 281 281 282 282 283 284 284 284 283 283 283 282 281 280 280 280 280 279 278 277 278 279 278 277 279 278 278 278
284 283 283 283 283 283 283 282 282 282 281 280 280 279 279 278 280 283 283 282 282 283 283 280 279 278 278 278 278 278 279 279 278 278 278 277 277 277 277 278 278 278 277
282 283 283 283 283 282 281 281 282 281 281 281 281 280 280 282 282 283 283 284 284 283 279 277 277 277 276 276 276 276 277 278 278 277 277 276 276 276 276 277 278 277 276
283 282 282 282 282 281 280 279 278 281 282 281 280 280 281 281 281 282 283 283 282 281 276 276 276 276 276 276 276 276 276 277 277 277 276 276 276 276 276 275 276 276 276
282 283 282 282 281 281 280 279 278 277 276 277 280 280 280 281 281 282 282 281 277 277 276 275 275 276 276 276 276 276 276 276 276 276 276 276 276 275 275 275 276 275 276
282 282 282 281 280 279 279 278 278 277 276 276 277 279 280 280 281 282 281 276 275 275 275 275 276 276 276 276 276 276 275 275 276 276 275 276 276 276 275 276 276 279 280
282 281 280 279 279 278 278 277 277 276 275 276 276 276 277 278 277 276 276 276 275 275 275 275 276 276 276 276 275 275 275 275 275 275 275 276 276 276 276 276 277 277 277
281 280 278 278 277 277 276 276 276 275 275 275 276 277 279 277 275 275 275 275 275 275 275 275 275 275 275 275 275 275 274 274 275 275 275 275 276 276 277 278 278 279 280
279 278 277 277 276 276 276 276 275 275 275 275 276 276 278 275 275 274 275 275 275 275 275 275 275 275 275 275 274 274 273 273 274 275 275 276 276 276 278 278 279 281 282
278 277 276 276 276 276 276 276 275 275 275 275 275 275 275 274 274 274 274 274 275 275 275 275 275 274 275 276 276 275 274 274 275 276 275 275 276 277 278 281 283 282 281
277 276 275 275 275 275 275 275 275 275 275 274 274 274 273 273 273 274 274 274 274 274 275 275 275 274 275 275 275 276 276 276 277 277 278 279 281 284 283 283 282 281 281
276 275 275 275 274 274 274 274 274 274 274 274 273 273 273 273 273 273 274 274 274 274 274 275 274 274 274 275 275 276 277 281 283 284 285 283 283 283 282 281 280 280 280
275 275 274 274 274 274 274 274 274 273 273 273 273 273 273 273 273 274 274 274 274 274 273 274 275 275 275 275 277 279 282 284 286 287 283 284 283 283 282 280 279 280 279

GFSGL_sfc_thetae_018.txt.gz
Theta_e
306 306 304 300 300 300 299 298 296 295 294 293 290 289 289 288 288 287 287 287 287 286 286 286 286 285 284 284 283 283 282 281 279 281 283 284 283 283 285 285 287 287 287
303 302 300 300 299 298 296 295 295 294 293 292 289 289 289 288 287 287 286 286 286 285 285 285 285 287 283 282 282 281 281 281 280 279 282 283 282 283 284 284 287 288 286
302 300 299 298 297 296 294 294 294 292 291 289 289 289 288 288 287 286 285 285 286 285 285 284 284 283 282 281 281 280 281 284 282 281 280 283 283 284 284 286 284 284 285
297 298 296 296 295 293 292 292 292 291 290 288 288 287 287 288 287 286 286 286 285 286 286 285 284 283 282 281 282 281 283 281 281 280 280 281 282 284 283 280 280 281 281
295 295 294 294 293 292 291 291 291 290 288 287 287 287 287 286 287 286 287 286 284 284 284 284 284 286 289 288 285 282 282 281 280 279 281 281 282 280 279 280 279 280 280
295 292 292 291 291 290 290 289 289 287 286 287 286 285 285 286 288 288 288 285 284 282 282 282 283 287 286 289 289 289 287 283 280 280 282 279 279 279 277 278 278 277 276
292 291 291 291 290 290 289 288 286 286 286 285 284 284 284 285 287 287 287 284 282 281 281 282 283 285 285 283 286 287 286 288 288 283 280 279 278 279 278 278 279 280 279
290 290 290 290 289 289 287 286 286 285 284 283 283 284 284 285 286 286 287 282 281 281 281 281 281 281 282 284 283 280 281 282 283 283 281 281 280 283 283 283 281 280 280
289 290 289 289 288 287 286 284 284 283 283 284 284 283 281 281 285 285 285 281 280 279 281 281 282 281 286 288 284 278 280 280 284 286 286 287 287 287 286 282 278 277 276
288 289 289 288 287 284 284 282 284 284 283 283 282 281 284 279 285 285 284 281 278 279 280 281 286 284 287 287 283 281 278 278 279 280 281 281 282 280 285 281 279 276 275
289 288 286 285 284 284 284 283 282 281 280 279 279 280 280 280 280 285 285 281 280 280 279 279 280 286 287 287 287 280 279 282 282 279 278 278 279 279 279 279 279 278 277
285 284 284 284 284 283 280 280 280 279 279 278 278 278 279 278 284 284 285 285 285 280 279 280 280 286 286 285 284 284 284 284 278 277 277 277 277 277 278 278 279 278 279
284 283 281 281 281 281 280 279 278 279 278 277 277 276 277 279 278 284 285 285 285 282 281 283 285 285 284 282 283 284 283 277 277 276 277 276 276 277 278 277 278 278 279
281 280 280 279 280 280 280 279 277 277 276 276 276 276 276 276 276 278 279 279 282 281 283 278 282 282 282 281 279 278 277 277 278 277 276 277 278 277 276 277 276 276 276
280 279 279 280 278 277 278 277 277 277 278 276 276 276 275 274 277 282 282 280 279 282 282 278 276 275 275 276 276 276 276 277 276 276 276 276 276 276 276 277 276 276 275
279 279 278 277 277 277 276 276 282 281 281 281 281 279 278 281 282 283 283 283 284 284 278 274 273 273 274 275 275 275 276 276 275 276 276 275 275 275 275 276 277 275 274
277 277 278 278 276 276 276 275 274 277 283 282 282 281 281 281 282 282 283 284 283 281 274 273 272 273 273 274 274 274 274 275 275 275 275 274 275 275 276 274 275 275 274
279 283 277 276 276 275 275 275 274 273 273 273 278 280 281 281 281 282 283 280 275 276 274 273 272 273 273 273 273 274 274 275 274 274 274 275 275 274 274 274 275 274 275
277 277 276 275 275 276 275 274 274 274 273 272 273 276 278 280 281 281 280 274 273 273 274 273 273 273 273 273 274 274 274 274 275 275 274 274 274 275 274 275 275 278 279
278 281 279 275 275 274 274 273 273 272 272 272 272 273 274 276 275 274 274 274 273 273 274 272 273 273 273 273 273 274 273 273 273 273 274 274 275 275 275 275 276 276 276
276 276 279 274 274 273 273 273 273 272 272 272 272 275 280 275 273 273 273 273 273 273 272 272 272 272 273 273 273 273 273 273 273 273 273 274 275 275 276 276 276 277 278
275 274 274 273 273 273 273 273 272 272 272 272 272 275 278 273 272 272 273 273 273 273 273 273 272 273 273 273 273 273 273 273 273 273 273 274 275 275 276 276 277 278 281
273 273 274 273 273 274 272 272 272 272 272 272 272 273 273 272 272 272 273 273 273 273 273 273 273 273 274 274 275 274 273 273 274 275 274 274 275 276 278 280 281 280 279
273 273 273 272 272 272 272 272 272 274 274 273 272 272 271 271 271 272 272 270 272 270 273 274 274 274 274 274 274 275 275 276 276 277 279 281 282 282 282 281 280 279 278
272 271 272 271 271 271 271 271 272 272 272 273 272 273 272 272 271 269 269 270 271 272 274 274 274 273 273 274 274 275 276 281 284 285 283 278 279 281 282 280 280 279 277
272 271 271 271 271 271 271 271 271 271 271 270 270 269 270 270 270 269 270 271 272 273 273 273 274 274 274 274 275 278 283 285 286 289 284 279 279 281 282 281 281 279 279

GFSGL_sfc_thetae_021.txt.gz
Theta_e
312 307 305 303 301 300 299 298 298 298 296 294 293 292 291 288 287 287 286 286 286 286 285 285 285 285 284 283 282 281 280 279 277 279 281 282 281 282 283 284 286 285 287
306 304 303 302 301 300 298 298 297 295 295 293 293 291 289 287 286 285 285 285 285 285 285 285 284 287 282 282 281 280 279 279 278 278 280 281 281 281 283 283 285 287 286
303 302 301 300 299 298 296 295 295 294 292 292 291 289 288 286 285 285 285 285 285 285 284 284 283 283 281 281 280 279 280 283 280 279 280 282 281 283 282 283 284 283 284
302 301 299 298 296 294 294 293 293 293 291 290 289 288 287 286 286 286 287 286 285 285 285 284 283 282 281 280 280 280 281 280 279 279 279 279 281 282 282 280 280 281 280
299 298 296 295 295 293 293 292 292 292 290 289 287 287 285 286 287 287 287 285 284 284 284 283 283 285 289 287 284 281 280 280 279 277 278 279 280 279 278 280 278 279 280
295 294 292 292 292 292 291 291 290 288 287 287 286 285 284 287 291 290 287 285 284 282 281 281 282 286 285 289 288 288 287 281 277 280 279 279 278 278 277 278 278 277 276
290 290 290 291 290 292 289 288 287 286 286 285 285 284 284 286 289 289 288 284 281 280 280 281 282 284 285 281 285 288 287 288 287 283 279 278 278 279 278 277 279 280 279
290 290 290 290 289 289 289 288 287 286 285 284 283 283 284 287 288 287 287 280 280 280 280 280 279 279 281 283 282 281 282 281 281 282 280 280 280 282 283 282 280 279 279
290 290 291 291 289 288 286 286 286 285 283 282 283 283 282 283 286 286 284 280 280 279 280 280 281 280 285 287 283 278 279 279 284 286 286 287 287 286 285 281 277 275 275
289 289 289 289 288 287 286 284 283 283 283 284 281 280 284 278 286 285 284 281 278 279 279 280 285 284 287 287 283 280 277 277 278 279 280 280 281 280 284 280 277 275 274
289 289 288 287 285 284 283 283 283 282 280 278 278 278 278 279 279 285 285 280 280 279 279 279 280 286 286 287 286 280 279 282 281 277 277 278 278 278 279 279 279 277 275
287 285 284 283 284 283 282 280 279 278 277 276 276 276 277 277 284 284 285 285 285 279 279 279 279 285 285 285 283 284 284 283 277 277 276 276 277 276 277 277 278 278 278
283 282 282 282 281 280 278 277 277 277 276 276 276 275 275 277 276 284 284 284 284 281 279 282 285 284 283 280 282 283 282 276 276 275 275 275 276 276 277 277 277 277 277
281 279 279 279 278 278 278 277 276 275 275 275 275 274 274 275 276 277 279 278 282 281 282 279 281 281 280 280 278 278 277 276 276 276 275 276 277 276 275 276 275 276 275
278 278 278 278 277 276 277 276 277 276 276 275 275 275 274 274 277 282 281 280 279 281 282 277 275 274 274 275 275 276 276 276 275 275 275 275 275 275 275 276 275 275 274
277 277 277 276 276 276 275 275 282 282 282 282 281 279 278 280 282 282 283 284 284 283 276 273 272 273 273 273 274 274 274 275 274 274 274 274 274 273 274 275 276 275 273
277 277 278 277 275 275 275 274 273 276 282 282 281 281 281 281 282 282 283 283 281 280 274 272 271 272 272 273 272 272 272 273 274 274 273 273 273 273 275 273 274 274 274
278 281 275 275 274 274 274 274 273 273 272 272 277 279 281 281 281 282 281 278 274 275 274 272 271 272 272 272 272 272 272 273 273 273 273 274 274 273 273 273 274 274 274
276 275 275 274 274 275 274 273 273 273 272 271 273 276 278 280 281 280 279 273 272 272 273 271 272 271 271 271 271 271 272 272 274 274 272 273 273 273 273 274 274 277 278
277 281 277 274 274 273 273 273 273 272 271 271 272 272 273 275 274 273 273 273 272 272 273 271 272 272 271 270 271 272 272 272 272 272 272 273 273 273 273 274 274 275 275
274 276 279 273 273 273 273 272 272 271 271 271 271 274 279 274 272 272 272 272 272 272 271 272 271 271 270 270 271 272 272 272 272 272 273 273 273 273 274 275 275 276 277
274 273 274 273 273 273 273 273 272 272 272 271 272 273 277 272 271 271 272 272 273 273 272 272 271 271 272 272 272 272 271 271 272 272 273 274 274 275 276 277 278 279 280
272 273 273 272 273 274 272 272 271 271 271 271 272 272 272 271 271 271 272 272 272 272 272 273 272 272 273 273 274 274 272 272 273 274 274 274 276 277 280 280 280 280 279
272 272 272 272 272 272 271 271 271 273 273 272 271 272 271 271 271 271 271 269 270 271 273 273 274 273 273 273 273 274 274 275 276 277 279 281 282 280 280 281 281 280 279
271 271 271 270 270 270 270 270 271 271 271 272 272 272 271 271 270 269 268 269 269 271 272 273 273 273 273 273 273 274 275 280 284 284 286 283 281 280 281 281 281 281 280
271 270 270 270 270 270 270 270 270 270 270 269 269 268 269 269 270 269 269 269 269 271 271 272 273 273 273 273 275 278 282 284 285 288 287 283 282 281 282 283 282 282 281

GFSGL_sfc_thetae_024.txt.gz
Theta_e
316 316 306 305 304 304 303 302 300 300 297 296 295 295 294 292 290 289 288 287 285 285 285 285 285 285 284 283 282 281 280 279 276 278 279 281 280 280 282 283 284 284 285
308 305 304 303 302 302 301 300 299 296 296 295 294 294 293 291 289 289 287 287 285 284 284 285 285 286 283 282 281 280 279 279 278 277 279 279 279 281 281 281 284 286 285
303 302 301 300 301 300 300 297 297 295 295 294 293 292 289 288 287 286 286 284 284 284 285 285 285 283 282 281 280 279 279 282 279 278 279 279 279 280 281 281 282 283 284
301 300 299 301 300 299 297 297 295 295 294 293 293 290 289 287 287 286 285 284 284 285 286 284 283 283 281 280 280 279 280 279 279 278 278 277 278 281 280 279 278 280 280
299 299 297 296 295 294 294 293 294 293 292 290 289 288 288 287 288 287 285 284 285 284 284 284 283 284 288 287 284 281 280 279 278 276 278 276 279 279 278 279 278 279 280
296 295 294 293 293 292 292 290 289 289 288 288 287 286 287 289 292 291 287 285 284 283 282 281 281 285 285 289 289 288 286 281 275 275 273 278 278 278 278 278 277 276 276
292 292 291 291 289 289 289 289 288 287 287 286 285 285 286 288 291 290 288 284 282 280 280 280 281 283 283 281 284 287 286 288 287 284 279 278 278 278 278 276 278 279 278
290 290 290 290 289 290 289 287 286 286 286 285 285 286 286 288 289 289 286 281 279 279 279 278 278 279 281 283 282 280 281 281 281 282 280 280 280 281 282 282 279 278 279
290 290 291 291 290 289 287 286 287 286 285 285 285 284 285 285 288 287 283 279 279 279 279 279 280 280 285 287 282 279 279 279 284 286 286 287 287 287 285 281 276 275 274
289 290 290 290 289 288 287 286 286 285 284 284 282 282 284 280 287 286 283 280 278 278 279 280 284 283 286 287 283 280 277 277 278 278 278 279 280 279 284 279 276 274 274
290 289 288 288 287 286 285 284 283 282 281 280 278 277 278 278 278 285 285 280 279 279 278 279 279 285 286 286 286 279 279 281 278 276 277 277 278 278 278 278 278 275 275
287 287 285 285 284 283 282 281 280 277 276 275 275 275 276 276 284 284 286 285 284 279 279 279 279 285 285 284 282 283 284 282 277 276 276 276 276 275 276 277 278 277 277
283 282 282 282 281 280 277 276 276 276 275 275 276 275 275 277 276 282 283 284 284 281 279 282 285 284 282 279 281 282 281 275 275 274 275 275 275 275 276 276 276 277 277
281 280 278 278 277 277 277 277 276 275 275 275 275 274 273 275 275 277 279 278 282 281 282 278 280 279 279 279 277 277 276 276 276 275 274 275 276 275 275 276 275 275 275
278 278 277 277 276 275 276 276 276 275 275 275 275 275 274 274 277 281 281 280 279 281 280 276 274 273 273 274 274 275 275 275 274 274 274 275 275 275 274 275 274 274 273
277 277 276 276 275 275 275 275 283 282 283 282 282 279 278 281 282 283 283 284 283 283 275 273 271 272 272 272 273 273 273 274 273 273 273 273 273 272 273 274 275 274 272
276 276 277 277 275 274 274 274 273 275 281 281 281 281 281 281 282 282 282 282 280 279 273 271 270 271 271 272 271 271 271 272 272 273 272 272 272 272 274 272 273 273 273
277 281 275 275 274 273 274 273 273 272 271 271 277 279 280 281 281 281 280 277 273 274 273 272 270 271 271 271 271 270 271 271 272 272 272 273 272 272 272 272 273 273 273
276 275 274 273 274 274 273 273 272 272 271 271 272 275 277 280 280 278 278 272 272 271 272 271 271 270 270 270 270 270 270 270 273 273 270 272 272 272 272 272 273 277 278
276 279 276 273 273 273 272 272 272 271 271 271 271 271 273 275 272 272 272 272 271 271 272 271 271 271 270 270 269 269 270 271 271 271 271 273 273 273 273 273 273 274 275
275 276 278 273 272 272 272 272 271 271 270 270 271 273 279 272 271 271 271 271 271 271 270 271 271 270 270 269 270 270 271 270 271 271 272 273 273 274 275 275 275 276 276
273 273 273 272 272 272 272 272 271 271 271 271 271 273 277 271 271 271 271 271 272 272 272 272 271 270 271 271 271 271 270 270 271 273 273 274 275 276 276 276 278 279 279
272 272 272 272 272 274 271 271 271 271 271 271 271 272 272 271 271 271 271 271 271 271 271 271 271 271 272 273 273 273 272 271 273 274 273 274 276 277 278 280 279 280 280
272 272 271 271 271 271 270 270 270 272 272 271 271 271 270 271 271 271 270 268 269 268 270 271 272 272 272 273 273 274 275 275 275 276 276 279 282 283 281 281 281 281 281
271 270 271 270 270 270 270 270 270 270 271 271 271 271 270 270 270 268 268 268 268 268 269 270 271 270 271 272 273 274 276 280 283 284 285 285 284 282 282 282 282 282 282
270 270 269 270 269 269 269 269 270 270 270 268 269 267 268 268 269 268 268 268 268 269 269 270 270 269 269 272 274 277 282 283 284 286 287 286 284 283 283 283 282 281 281

GFSGL_sfc_thetae_027.txt.gz
Theta_e
306 310 310 306 306 305 305 303 301 301 300 299 298 297 295 294 293 291 291 289 288 287 287 285 286 284 283 283 282 282 280 279 277 278 278 279 279 280 282 282 283 282 283
307 312 307 303 302 302 303 301 300 299 299 298 297 296 294 293 292 290 289 288 287 287 286 286 286 286 283 283 282 280 279 279 278 276 277 278 279 280 280 280 283 285 284
304 302 301 300 301 301 300 300 300 298 298 297 295 293 291 291 290 289 289 288 287 286 285 285 284 283 282 281 280 279 279 281 278 277 278 279 279 279 279 280 280 281 283
300 299 298 299 299 300 300 299 298 297 296 294 292 290 290 289 288 288 287 286 286 286 285 285 284 284 282 281 280 279 279 278 278 278 278 277 277 279 279 278 278 280 280
296 295 295 298 298 299 296 295 295 294 292 290 290 289 289 289 289 287 287 286 285 284 284 284 283 284 287 286 283 280 280 279 278 275 277 275 277 278 278 279 277 278 279
292 291 294 294 293 292 291 290 290 290 290 290 289 288 288 290 292 290 287 285 284 283 282 282 281 284 284 287 288 289 286 279 274 273 271 276 278 278 278 278 277 276 276
290 291 291 291 290 289 290 290 289 288 288 287 287 288 288 290 292 290 288 284 282 282 282 281 281 282 282 280 284 287 286 288 287 282 278 278 277 279 279 277 278 277 278
289 289 290 290 289 290 289 289 287 287 286 286 285 285 285 287 290 289 286 282 281 280 280 279 278 279 280 282 281 280 280 281 281 281 279 280 280 281 281 281 280 278 279
289 290 291 291 290 289 287 286 287 286 286 286 286 285 286 286 289 289 284 280 280 279 280 279 280 279 284 287 282 278 279 280 284 286 286 287 287 287 285 280 276 275 274
288 289 289 290 288 287 287 287 287 286 285 286 285 284 286 283 288 287 284 280 278 279 279 279 283 282 286 287 281 279 276 277 278 278 278 278 280 279 283 279 274 272 274
289 289 288 289 288 287 287 286 285 284 283 281 279 278 278 279 278 285 286 280 279 279 279 279 280 284 286 287 286 278 278 280 279 275 276 276 277 277 277 278 278 273 274
287 286 286 286 287 285 283 281 280 279 277 276 275 275 276 275 285 285 285 284 283 279 279 279 279 285 285 284 282 282 283 282 276 275 275 275 275 275 275 276 277 276 277
283 282 282 281 281 279 278 276 276 276 275 275 276 274 275 277 276 282 283 284 283 281 280 282 285 284 282 279 281 282 281 275 275 274 274 274 274 274 275 275 275 276 276
280 278 277 277 276 276 277 277 275 275 274 275 275 274 273 275 275 277 279 278 282 281 282 278 280 279 279 278 277 276 275 275 275 275 274 275 275 274 274 275 273 274 274
277 277 276 276 275 275 276 275 276 274 275 275 275 275 274 274 277 281 281 280 279 281 279 275 273 273 272 273 274 274 274 274 273 273 273 273 274 274 273 274 273 273 273
276 276 276 275 275 276 276 276 284 283 283 283 282 278 278 281 282 283 283 283 283 282 275 272 271 271 271 272 272 272 272 273 272 272 272 272 272 272 272 274 274 272 272
276 276 277 276 274 274 274 273 272 275 282 281 281 281 281 281 281 282 282 281 279 278 272 270 269 270 271 271 271 270 270 271 270 270 271 270 271 272 274 271 272 272 272
277 281 275 274 273 273 273 272 272 272 271 271 276 279 280 281 281 281 280 277 272 273 272 271 269 270 270 270 270 269 270 270 270 270 270 272 272 271 271 271 272 272 272
275 274 274 273 273 274 273 272 272 271 270 270 272 275 277 280 280 278 277 272 271 271 271 270 270 270 270 270 270 269 269 269 271 272 270 271 272 272 272 272 273 277 277
276 279 276 274 273 272 272 272 271 270 270 270 270 271 272 274 272 271 271 271 271 271 271 270 271 270 270 269 269 269 269 269 270 270 271 272 273 274 274 274 274 274 274
275 276 278 273 272 272 272 271 271 270 270 270 270 272 278 272 270 270 270 270 270 271 270 270 270 270 270 269 269 269 269 269 270 270 272 273 274 274 276 276 276 276 276
274 273 273 272 272 272 272 271 270 270 270 270 270 272 276 271 270 270 271 271 271 271 270 271 270 269 271 270 271 270 270 270 270 271 272 273 273 275 277 277 277 278 280
272 271 272 271 271 274 271 270 270 270 270 270 270 271 271 270 270 270 271 271 270 270 270 270 269 269 270 270 272 272 272 272 273 274 272 273 275 276 278 280 281 281 280
271 271 271 271 271 270 270 270 270 272 272 271 270 271 270 270 270 270 270 267 268 266 269 269 269 269 269 270 272 274 274 275 275 275 275 276 280 283 284 282 282 281 281
270 270 270 270 270 269 269 269 269 270 270 271 270 271 270 270 269 267 267 267 267 267 268 269 269 268 268 268 270 272 274 279 281 282 283 283 284 284 283 282 282 282 280
270 269 269 269 269 269 269 269 269 269 269 268 268 267 267 268 268 268 267 267 267 268 268 269 269 268 268 268 270 275 280 282 282 284 285 285 284 284 284 283 283 281 281

GFSGL_sfc_thetae_030.txt.gz
Theta_e
303 303 305 309 314 308 306 305 303 302 302 300 300 299 298 297 295 293 291 290 289 289 288 288 287 286 286 284 284 282 281 280 278 278 278 279 279 280 281 281 283 281 282
302 303 305 311 304 305 306 302 301 299 298 299 298 297 295 294 292 291 290 290 289 288 288 287 287 287 285 285 284 281 280 279 278 276 277 278 278 280 280 279 282 284 283
300 301 303 306 304 303 302 301 301 300 299 299 298 295 294 293 291 290 290 290 289 289 288 287 286 285 284 283 283 281 280 281 278 277 277 278 278 279 278 279 279 280 282
299 300 299 302 302 302 300 299 298 298 297 296 294 293 292 291 291 290 289 288 287 287 286 286 285 285 284 283 282 281 280 279 278 277 277 276 277 279 278 278 278 279 279
296 296 296 299 300 298 297 296 295 293 292 291 291 291 291 290 290 289 288 288 287 285 285 285 284 285 286 286 283 281 280 279 278 275 276 275 276 277 278 279 277 278 278
290 291 293 292 293 293 292 291 291 291 291 291 291 291 290 291 293 291 288 285 285 284 283 282 282 284 285 287 287 288 285 278 275 273 271 276 277 277 276 277 277 276 276
289 289 290 290 289 290 290 290 290 289 290 289 290 290 290 291 292 291 288 284 283 282 282 282 282 283 283 280 283 287 286 288 287 281 278 277 277 277 277 276 277 278 277
290 290 290 290 290 290 289 288 288 288 288 287 287 287 288 290 291 290 288 283 282 282 282 280 280 280 281 282 281 280 281 281 281 281 279 279 279 280 280 281 279 278 278
289 290 291 290 289 288 287 286 286 285 286 285 286 286 285 286 290 288 284 282 281 280 281 280 280 280 283 286 282 278 279 279 283 286 286 286 286 286 285 280 275 274 273
288 288 289 288 287 285 285 285 286 286 285 285 285 285 288 285 289 288 283 281 279 279 279 280 283 282 285 286 282 279 276 276 277 278 277 278 279 278 283 278 272 271 273
289 288 288 288 287 286 285 286 285 284 283 282 281 280 281 280 282 287 287 280 279 279 279 279 279 284 285 286 286 277 278 280 278 275 275 275 276 276 277 277 277 271 273
287 286 286 286 287 286 283 282 281 280 278 277 276 276 276 276 285 286 285 284 283 280 279 279 279 284 285 284 281 282 283 281 275 275 274 274 274 274 275 275 276 276 276
283 282 281 280 279 278 276 275 276 275 275 275 276 274 274 276 275 283 283 284 283 281 280 282 284 283 281 278 280 281 280 274 274 273 273 273 273 273 274 274 275 275 275
279 276 276 276 275 275 277 276 275 274 274 275 275 273 273 274 275 277 279 278 281 281 281 277 279 278 278 277 276 275 274 274 274 274 273 274 274 271 273 274 273 273 273
276 276 275 275 274 274 275 274 275 273 275 274 274 274 273 273 277 281 281 280 278 281 278 274 272 272 271 272 273 273 273 273 272 272 272 272 273 273 273 273 273 272 272
276 276 275 275 275 276 276 276 285 284 284 283 281 278 278 281 282 282 283 282 282 281 274 271 270 270 270 271 271 271 272 272 271 271 271 270 270 271 271 273 274 272 271
275 276 276 276 274 273 274 273 272 276 282 282 282 282 281 281 281 282 281 281 279 277 271 269 269 269 270 270 270 269 269 270 268 269 268 269 270 270 273 272 272 272 272
276 280 274 273 273 272 272 272 272 271 270 270 276 279 280 281 281 281 280 276 272 273 271 270 268 269 270 269 269 269 269 269 269 269 268 269 271 271 270 272 274 273 272
275 274 273 273 273 273 272 272 271 271 270 270 271 274 277 280 280 278 277 271 270 270 270 269 269 269 269 270 270 269 267 268 270 271 270 270 271 272 272 274 275 279 279
276 279 276 273 272 272 272 271 271 270 270 269 270 270 272 274 272 271 271 270 270 270 271 269 270 269 269 269 269 269 268 269 269 268 269 271 272 273 273 274 276 276 276
275 275 278 272 272 271 271 271 270 269 269 269 269 272 278 272 270 270 270 270 270 270 269 269 269 268 267 267 269 268 269 269 269 269 269 270 272 272 274 275 276 277 277
274 273 272 271 271 272 271 271 270 270 270 269 270 271 276 271 270 270 270 271 271 271 270 270 268 267 267 267 269 269 269 269 271 273 271 271 272 273 275 276 277 277 279
272 271 272 271 271 273 270 270 270 269 270 270 270 270 271 270 270 270 270 270 270 270 269 269 268 268 267 267 267 270 270 271 273 274 273 273 273 274 275 276 281 282 281
271 271 271 270 271 270 269 269 269 271 271 270 270 270 269 269 270 270 269 267 268 266 268 268 268 267 268 268 269 270 272 274 275 275 274 274 276 280 281 283 283 282 281
271 270 270 269 269 269 269 269 269 269 270 270 270 270 269 269 269 267 267 267 267 267 268 268 268 267 266 266 267 269 272 277 278 281 281 281 281 282 283 283 283 283 282
270 269 269 269 269 269 269 269 269 269 269 268 268 267 267 267 268 267 267 267 267 268 267 268 268 267 267 267 268 271 278 281 282 283 283 283 283 283 283 283 284 283 282

GFSGL_sfc_thetae_033.txt.gz
Theta_e
305 305 307 310 312 315 313 314 314 312 310 308 307 305 304 302 302 301 299 295 292 291 290 289 288 288 288 287 287 286 286 286 285 286 286 286 286 287 288 289 289 289 288
303 304 306 309 311 308 309 309 307 305 304 304 302 302 301 300 299 297 294 293 291 289 290 289 288 289 287 287 286 285 285 284 284 284 284 285 285 286 287 286 287 288 287
301 303 305 306 307 306 305 303 303 302 301 301 300 298 297 295 294 293 291 291 291 290 289 289 288 287 286 285 285 285 284 284 283 283 283 284 285 286 286 286 286 286 286
298 301 302 303 304 304 303 300 300 301 300 300 298 295 294 292 292 292 291 291 289 288 288 287 287 287 286 285 285 284 284 283 283 283 283 284 284 286 285 284 283 285 284
294 294 295 298 299 298 296 296 296 296 294 294 293 292 292 292 291 290 290 289 287 287 286 286 285 285 287 286 285 284 284 283 283 284 283 283 283 283 283 284 282 283 284
291 291 292 293 293 293 292 292 292 292 292 292 291 292 292 293 294 293 289 286 285 284 283 284 284 286 286 288 289 289 287 284 284 283 283 282 283 283 283 282 281 280 278
290 291 291 291 291 291 291 291 290 290 291 291 291 292 291 292 293 292 290 286 285 284 284 283 283 285 285 283 284 286 286 287 288 286 283 282 282 283 283 281 282 281 280
291 291 291 290 290 290 289 289 289 289 289 288 289 289 289 291 293 292 289 284 283 283 283 283 283 283 283 284 284 284 285 284 284 284 285 284 284 285 284 283 283 282 282
288 289 289 289 288 287 287 287 287 286 286 285 286 285 286 286 290 289 285 283 282 282 282 283 283 283 283 285 285 283 283 283 284 285 285 286 286 286 285 283 281 279 277
288 288 288 288 287 285 285 285 286 286 285 286 285 285 288 286 288 286 283 282 281 281 282 282 283 284 284 286 285 283 280 281 281 282 282 281 282 281 283 282 280 277 276
289 288 288 288 287 286 285 285 285 284 284 283 283 283 283 285 287 289 286 282 282 281 281 281 282 284 285 286 285 281 280 283 280 279 279 279 280 280 280 281 280 279 276
288 287 287 287 287 286 285 283 282 281 280 279 279 279 279 281 287 287 286 285 284 282 281 282 282 284 284 283 282 282 283 282 278 277 277 278 278 278 279 279 279 279 280
283 281 280 280 279 279 279 279 279 279 278 278 278 277 277 278 280 284 284 284 283 282 282 283 283 282 281 279 279 280 280 277 277 276 276 277 278 278 278 278 279 279 279
279 278 279 278 278 278 279 279 278 278 277 277 277 276 276 277 278 280 281 281 282 282 282 280 280 278 277 277 277 277 277 277 277 277 276 277 277 277 277 278 277 278 277
278 278 278 277 277 277 277 277 278 277 278 277 276 277 276 277 280 282 282 282 282 282 279 277 275 275 274 274 275 275 276 276 276 276 275 275 275 276 276 277 277 277 275
278 278 278 278 279 279 280 280 285 284 284 283 282 280 279 281 282 282 282 282 281 281 276 274 273 273 273 273 274 274 275 275 275 274 274 274 273 274 274 276 278 277 276
278 278 279 278 277 277 277 277 277 278 282 282 282 281 281 281 281 282 281 280 279 277 274 273 273 273 273 273 273 273 273 274 273 273 272 272 273 273 274 275 276 276 277
278 280 277 276 275 275 275 274 274 274 273 273 276 279 280 281 281 280 280 276 274 274 273 273 273 273 273 273 273 273 273 273 273 272 272 272 272 274 274 274 275 276 277
277 276 276 275 275 275 274 274 273 273 273 273 273 275 277 279 279 278 277 273 272 272 272 273 273 273 273 273 273 273 272 271 273 274 273 272 273 274 274 275 276 278 279
277 279 277 275 275 274 274 273 273 272 272 272 272 272 274 275 274 273 273 272 272 272 272 273 273 273 273 272 272 272 272 272 272 272 272 272 273 274 274 274 275 276 277
277 278 277 274 273 273 273 273 272 272 272 272 272 273 278 275 273 272 272 272 272 272 272 272 273 272 272 271 271 271 271 272 272 272 273 273 273 273 275 275 276 277 278
276 275 274 273 273 273 273 272 272 272 272 271 272 273 276 273 272 272 272 272 273 273 273 273 272 272 272 271 271 270 271 271 272 273 274 274 274 275 275 276 277 278 278
274 273 273 272 273 275 272 272 272 271 271 272 272 272 272 272 272 272 272 272 272 272 272 272 271 271 272 271 271 270 270 271 273 275 274 274 275 275 276 276 277 279 282
273 273 272 272 272 272 271 271 271 272 273 272 272 272 271 271 271 271 271 272 271 271 271 271 271 270 271 271 271 271 271 272 274 274 274 274 275 276 278 280 281 282 283
273 272 272 271 271 271 271 271 271 271 271 271 271 271 271 271 271 271 270 270 270 270 270 271 271 270 269 269 269 270 271 275 276 278 279 280 280 280 280 281 282 283 283
272 271 271 271 270 270 270 270 270 271 270 271 270 270 270 270 270 270 270 270 270 270 270 271 271 270 269 270 270 272 277 280 281 283 282 282 281 282 282 282 283 283 283

GFSGL_sfc_thetae_036.txt.gz
Theta_e
308 309 311 313 315 315 315 314 314 316 318 318 318 318 317 313 310 309 307 305 303 298 296 293 290 291 289 289 289 288 287 288 286 285 286 287 287 287 290 291 292 291 291
306 308 310 312 314 313 311 312 313 313 313 312 311 310 310 308 307 305 303 301 298 296 295 293 292 290 288 288 288 287 286 286 285 283 285 285 285 287 288 288 289 289 290
304 306 308 310 311 312 310 310 309 308 306 305 305 305 304 304 303 302 299 297 293 293 291 291 290 288 287 287 286 285 285 286 284 284 284 286 286 287 286 288 289 289 289
300 302 302 305 307 307 306 305 305 304 303 302 302 300 299 299 297 294 293 292 291 291 290 290 290 288 287 286 286 285 285 286 285 284 285 285 286 287 287 285 285 288 287
296 297 298 300 301 301 300 300 299 298 297 296 295 294 294 293 293 292 291 290 289 289 288 287 287 288 289 287 287 285 285 284 285 285 284 285 284 285 285 286 284 285 286
295 294 295 297 297 295 296 296 296 295 295 293 293 293 293 293 294 293 291 289 288 287 285 285 286 287 288 289 290 289 288 287 285 284 284 284 284 285 286 285 284 282 280
293 292 293 294 293 292 292 292 292 292 292 292 292 293 292 293 295 293 291 287 286 285 285 284 285 286 286 285 286 287 288 289 290 287 285 285 284 285 285 283 283 282 281
291 291 292 292 290 290 290 289 288 288 289 289 289 290 291 292 294 292 289 285 284 284 285 285 285 284 285 284 285 285 285 286 287 287 286 286 286 286 286 285 284 284 285
289 290 290 290 289 288 287 287 287 286 286 285 286 286 285 286 290 289 285 284 283 283 285 285 285 284 284 285 285 285 285 286 287 286 286 286 287 287 287 285 282 282 280
288 289 289 289 288 286 286 285 286 286 285 286 285 285 288 285 287 287 285 285 284 284 284 284 284 284 284 285 286 285 283 284 284 284 284 284 284 284 284 284 283 280 279
290 289 289 289 288 287 286 287 287 286 285 285 285 285 286 288 288 287 285 285 284 283 283 283 284 284 285 286 285 284 283 284 283 282 282 282 282 283 284 284 284 282 279
289 289 288 289 289 289 288 286 286 286 285 283 283 283 285 287 288 287 286 285 284 283 282 284 284 284 284 283 283 282 283 283 282 280 280 280 281 283 284 284 283 283 283
288 286 286 286 285 285 285 284 284 284 283 282 282 281 281 281 284 285 285 284 284 284 284 284 283 282 281 281 280 281 281 280 279 279 279 281 282 283 282 282 283 283 282
285 284 284 284 283 284 284 284 284 283 282 281 280 280 280 280 282 283 284 284 283 283 283 284 281 279 278 279 278 279 279 279 279 280 280 280 281 281 281 282 281 282 281
284 283 283 283 283 282 282 283 282 282 282 281 280 280 280 280 282 284 283 283 284 283 282 280 278 278 278 278 278 279 279 279 279 280 279 279 278 279 280 281 281 280 278
283 283 283 283 284 284 284 284 285 285 284 283 282 282 282 282 282 282 282 282 281 281 279 277 277 277 277 277 277 278 279 279 279 279 278 278 277 277 278 279 280 280 279
283 283 283 282 283 283 282 282 281 282 282 282 282 281 281 281 282 282 281 281 279 278 276 276 276 276 277 277 278 278 277 278 278 277 277 277 276 276 277 277 279 279 279
283 282 282 282 281 281 280 279 279 278 277 278 278 280 280 281 281 280 280 278 276 276 276 275 276 277 277 277 278 278 278 278 278 277 277 277 276 276 276 277 278 278 279
282 282 282 281 280 280 279 278 278 277 277 277 277 278 278 279 280 279 277 276 275 275 275 275 276 277 277 278 278 278 277 276 277 276 277 276 276 276 276 277 277 279 279
282 281 280 280 279 278 277 277 277 277 276 276 276 276 277 278 277 277 276 275 275 275 275 276 276 277 277 277 277 277 276 277 277 277 277 277 277 277 276 276 277 277 277
281 281 280 278 278 277 277 277 277 276 276 276 276 276 278 278 276 275 275 275 275 275 276 276 276 277 277 277 276 276 276 276 276 277 277 277 278 276 277 277 277 277 277
281 280 278 277 277 277 277 276 276 276 276 275 276 276 276 276 275 275 275 275 276 276 276 276 276 276 276 276 276 275 275 274 275 276 277 277 277 278 278 278 278 277 278
280 278 277 276 277 277 277 276 276 275 275 275 275 275 275 275 275 275 275 275 275 276 276 276 276 275 276 276 276 275 274 274 276 276 276 276 276 277 278 277 277 278 279
278 277 276 276 276 276 275 275 275 275 275 275 275 275 275 275 275 275 275 276 276 276 276 276 275 275 275 275 276 276 276 276 276 275 275 275 275 276 277 277 279 280 280
277 277 276 276 275 276 275 275 275 275 275 274 274 274 275 275 275 275 276 276 275 275 275 275 275 275 274 274 273 273 274 276 277 277 278 278 278 279 280 281 281 281 282
276 276 276 275 275 275 275 275 274 275 274 275 275 275 275 275 275 275 275 275 275 275 275 275 275 275 274 274 274 275 278 279 280 282 282 281 281 281 282 282 282 283 283

GFSGL_sfc_thetae_039.txt.gz
Theta_e
307 309 310 312 313 315 315 315 314 314 315 316 317 317 318 318 316 313 312 311 311 308 304 301 295 294 292 292 290 290 289 289 287 285 287 287 287 288 289 290 291 290 290
305 307 309 311 312 313 313 312 312 311 312 311 311 311 311 311 311 309 307 305 305 300 298 296 293 293 290 290 290 287 287 287 287 285 286 285 285 286 286 287 289 290 289
303 304 306 307 309 309 308 309 310 309 309 307 307 305 305 304 304 304 302 300 299 297 295 293 290 290 289 288 288 287 286 287 286 286 285 286 286 287 287 288 288 288 290
300 300 301 303 303 304 303 304 303 304 304 302 300 298 299 296 295 295 294 293 292 292 292 291 291 290 288 287 287 286 285 285 285 285 285 285 286 288 287 285 285 287 286
298 298 298 300 300 300 300 300 299 299 298 298 296 295 295 294 294 293 292 291 290 289 289 289 289 290 290 289 287 286 286 285 285 285 285 285 285 285 284 286 284 285 285
296 296 297 297 297 296 296 296 296 295 296 296 295 294 294 294 295 294 292 290 289 287 286 286 288 289 290 291 290 290 288 286 286 286 285 283 284 285 285 284 283 282 279
293 293 294 294 293 293 293 292 292 292 292 292 293 293 293 294 295 294 291 288 287 285 285 285 285 287 286 286 288 288 289 290 289 287 285 284 284 285 284 283 282 281 281
292 293 293 292 292 291 290 290 289 289 288 288 287 288 289 292 293 292 289 285 284 284 285 285 285 284 285 285 285 285 286 286 286 287 286 285 285 286 285 284 283 283 283
289 289 291 291 289 289 288 288 288 287 286 286 286 286 285 286 290 290 286 285 284 284 285 285 285 284 285 286 285 285 284 284 288 287 287 287 287 287 287 284 281 279 279
289 289 290 289 288 287 287 286 287 287 286 286 284 285 287 285 288 287 286 285 283 284 284 284 284 284 285 285 285 285 283 283 283 283 282 284 285 284 286 283 281 278 279
290 290 290 290 289 288 287 287 287 286 285 285 285 285 287 288 287 287 286 284 284 283 282 282 283 284 285 286 286 283 282 283 282 281 281 280 280 281 282 282 282 280 279
291 290 290 290 291 290 288 287 288 287 285 284 284 284 286 286 288 287 287 286 285 282 282 283 284 285 284 284 283 283 283 283 280 280 278 278 280 281 282 283 284 283 283
290 289 289 288 287 287 286 285 285 285 284 283 282 282 281 282 283 285 285 285 285 283 284 284 283 283 282 281 281 281 281 279 278 277 278 279 281 282 280 280 282 282 282
287 285 285 285 285 285 285 285 284 284 283 281 280 280 280 281 282 283 283 284 284 284 283 284 282 281 280 279 279 279 278 278 278 278 278 279 280 279 279 281 280 280 280
285 285 284 284 284 283 284 284 283 282 282 281 281 280 280 280 282 283 283 282 282 283 282 281 279 277 277 277 278 278 278 279 278 279 279 278 279 279 279 280 280 279 277
284 284 284 284 285 285 285 284 285 285 284 283 283 282 282 282 283 283 283 283 283 282 279 277 276 277 276 276 277 277 278 279 279 279 278 278 277 277 277 278 278 278 277
284 284 284 283 284 284 283 283 281 282 283 282 282 281 282 282 282 283 282 282 282 280 276 276 276 276 276 277 277 278 278 279 279 277 277 277 277 276 276 276 277 277 277
284 285 284 283 283 282 281 280 280 278 278 278 279 279 280 281 281 281 281 280 277 278 276 275 275 276 276 277 278 278 278 278 278 278 277 276 276 276 276 276 276 276 276
283 283 283 282 281 281 280 279 278 277 277 277 278 279 279 279 280 281 280 276 275 275 275 275 276 276 276 277 278 278 277 277 277 277 276 276 276 276 275 276 276 278 278
283 283 282 281 280 279 278 278 277 277 276 276 277 277 277 277 277 278 277 276 275 275 275 275 276 276 276 276 276 277 276 276 276 276 277 277 277 277 276 276 276 275 275
282 282 282 279 278 278 278 277 277 276 276 276 276 277 278 277 277 276 275 275 275 275 275 276 276 276 276 276 276 275 275 275 275 275 275 275 276 275 276 277 276 276 276
282 282 280 278 278 277 277 277 276 276 276 276 276 277 278 276 276 275 275 275 276 276 276 276 276 276 276 276 275 275 274 274 274 274 274 275 276 276 276 276 276 276 276
281 280 278 277 277 278 278 276 276 276 276 276 276 276 276 275 275 275 275 275 275 276 276 276 276 275 276 276 276 275 274 273 274 274 274 274 274 275 275 275 275 275 276
280 279 277 277 277 277 276 276 276 276 275 276 276 276 275 275 275 275 275 276 276 276 276 276 276 275 275 274 275 275 275 275 276 275 275 274 273 274 274 275 275 276 276
279 278 277 276 276 277 276 275 275 275 275 275 275 275 275 275 275 276 276 276 275 275 275 275 275 275 274 273 273 273 275 277 277 277 277 276 275 274 275 276 278 279 279
278 277 277 276 276 275 275 275 275 275 275 276 276 276 276 275 276 276 276 276 275 275 275 275 275 274 274 274 275 276 279 280 280 282 281 281 279 279 279 280 280 281 281

GFSGL_sfc_thetae_042.txt.gz
Theta_e
301 301 302 304 307 308 308 307 308 310 311 311 311 310 313 313 314 313 312 311 310 308 305 305 298 296 295 294 293 292 292 293 289 285 287 288 288 289 290 291 291 291 291
299 299 301 303 305 307 304 304 307 309 309 307 307 307 307 307 308 307 306 305 305 301 298 296 294 294 292 292 290 289 290 291 290 285 286 286 287 288 288 287 289 290 289
297 297 298 299 299 300 299 300 301 301 300 299 298 298 299 299 300 298 298 298 298 297 296 294 293 291 289 289 289 289 289 289 288 288 285 286 285 286 286 287 287 288 289
296 295 295 296 296 297 297 297 297 297 296 294 294 293 293 293 294 293 294 293 292 292 292 291 291 290 289 289 289 287 286 286 286 286 285 285 286 287 286 285 284 286 285
294 294 295 296 295 295 295 294 295 295 295 294 292 292 293 294 293 292 291 291 290 289 289 290 290 291 291 290 288 286 286 285 285 285 284 285 284 283 282 284 282 283 282
294 294 295 294 294 294 294 294 292 293 294 294 294 294 293 294 295 294 290 288 288 287 286 286 287 290 292 293 292 290 288 286 285 284 284 281 281 281 282 280 279 277 275
293 293 293 293 291 291 291 290 290 290 290 290 291 292 292 293 294 293 291 287 285 285 285 285 286 287 287 286 290 290 290 290 289 285 282 281 281 281 280 278 279 277 277
291 291 291 291 290 290 289 289 288 288 287 287 287 288 289 291 293 292 289 285 284 284 285 284 284 284 285 285 284 285 285 284 285 285 282 282 282 283 282 280 279 279 280
289 289 289 289 288 288 287 287 287 286 286 285 286 285 286 287 290 290 285 281 282 283 284 285 285 284 286 286 283 281 281 281 287 288 287 287 287 287 286 280 275 273 274
289 289 289 289 288 286 287 286 287 286 285 285 284 285 287 281 288 288 285 283 281 282 283 283 285 283 285 286 283 281 280 279 280 280 280 281 282 281 286 281 276 268 269
290 290 290 290 288 287 287 286 286 285 283 276 281 284 285 282 284 288 287 281 280 279 279 279 281 285 286 286 285 279 280 281 280 277 277 277 277 277 278 278 279 272 268
290 290 290 290 290 288 286 284 280 280 279 278 279 278 279 281 287 287 287 285 285 279 279 279 281 285 284 284 282 283 283 282 277 276 275 275 275 274 276 277 280 280 280
287 286 286 285 285 285 281 280 279 279 278 277 277 276 275 277 278 284 285 285 284 280 280 282 283 283 283 280 281 282 282 275 275 274 275 273 273 273 273 274 275 281 282
282 281 280 280 280 280 280 279 278 277 276 276 276 275 275 276 277 279 280 278 283 281 282 279 281 281 281 279 278 277 276 275 275 274 275 276 277 272 273 274 273 280 279
281 280 280 280 279 279 280 280 278 278 279 276 276 276 275 275 279 282 281 280 279 281 280 277 276 274 274 275 275 275 275 276 275 275 276 277 278 277 277 279 278 278 277
279 279 279 278 279 279 279 278 285 284 284 284 283 280 279 282 283 283 283 283 283 283 277 274 272 272 273 274 275 275 276 278 278 278 277 277 276 276 276 277 278 277 276
279 279 279 280 279 278 278 278 277 279 283 283 282 282 282 282 282 283 283 283 282 281 274 272 271 272 272 272 272 271 276 278 278 277 276 276 277 276 276 276 276 276 275
280 285 278 278 277 277 277 276 275 275 274 274 280 279 280 281 281 282 282 280 275 276 274 273 270 272 272 270 270 271 277 277 277 277 277 276 276 276 275 275 275 275 274
279 278 278 277 277 277 276 275 275 275 274 273 274 277 279 280 280 281 281 275 274 273 274 271 272 271 270 269 269 268 276 276 277 276 276 276 276 275 275 275 274 277 278
280 283 281 277 277 276 275 275 275 274 273 273 273 273 274 275 275 275 276 275 274 273 273 271 272 271 269 266 267 268 269 272 272 270 271 272 274 274 274 274 275 274 274
279 279 282 276 276 275 275 275 275 273 273 273 273 275 279 275 274 274 274 273 273 273 271 272 270 269 266 267 266 268 270 272 272 271 272 272 272 272 274 275 275 275 275
279 279 278 276 276 276 275 276 275 274 273 273 273 275 279 274 273 273 273 273 274 274 272 271 269 269 269 268 268 268 269 270 272 271 271 272 273 274 275 275 275 275 275
279 278 277 276 276 277 276 275 274 274 273 274 273 274 274 273 273 273 273 273 273 271 271 272 270 270 269 270 269 269 271 272 272 272 272 273 273 273 274 273 273 273 274
279 278 276 275 275 275 275 275 274 276 275 274 274 274 273 273 273 273 272 269 271 269 271 271 271 271 272 271 271 272 273 273 274 274 273 273 273 273 273 273 273 273 274
278 276 276 275 275 275 274 274 274 274 274 274 274 274 273 273 273 271 270 270 270 270 271 272 272 271 270 270 271 272 274 278 278 278 277 275 274 273 273 274 274 274 275
278 276 276 275 274 274 274 274 273 273 273 273 273 272 272 272 272 271 271 272 276 275 271 273 273 271 271 272 274 276 280 281 281 283 282 281 279 279 278 278 278 278 279

GFSGL_sfc_thetae_045.txt.gz
Theta_e
297 298 299 301 303 306 303 303 304 306 305 304 305 305 305 306 307 308 308 310 310 308 307 307 301 300 297 296 295 296 296 297 295 287 288 289 289 291 293 292 292 292 292
296 296 297 298 299 301 299 298 299 299 297 296 297 298 299 301 302 304 303 303 303 300 300 298 295 295 293 293 292 291 292 292 291 287 286 286 287 289 289 289 290 292 291
295 295 296 295 295 295 295 296 296 295 294 293 293 292 293 295 296 297 297 296 297 296 296 295 293 292 291 290 290 290 290 291 289 288 285 285 285 286 286 288 288 288 289
294 294 294 293 293 293 294 294 294 294 292 292 292 292 292 292 292 292 292 292 292 292 292 292 291 291 290 289 289 287 287 287 287 287 286 285 286 287 287 286 285 287 286
293 294 294 294 293 292 292 292 292 293 294 295 293 294 294 294 293 289 288 288 288 289 289 290 291 292 292 291 288 287 287 286 286 286 285 285 285 285 284 285 284 283 282
293 293 294 293 293 292 292 292 292 292 293 292 292 293 291 293 294 293 289 288 287 287 286 287 288 289 292 293 292 291 289 286 285 285 284 283 283 283 282 282 280 276 275
292 292 292 292 291 291 291 290 290 289 289 289 290 291 291 292 293 292 290 286 286 285 285 285 285 287 286 285 289 290 290 291 289 286 283 282 281 280 279 277 279 276 277
290 290 291 291 290 290 289 289 288 288 287 287 287 288 290 292 293 291 289 281 282 283 283 282 283 283 285 285 284 284 284 284 284 285 284 282 281 281 281 280 279 278 279
289 289 289 289 289 288 288 287 287 286 285 285 286 286 286 287 290 289 283 278 278 279 281 282 282 282 286 286 283 282 281 281 286 289 287 287 287 288 286 279 274 272 274
288 289 289 289 288 287 286 285 286 286 285 285 284 279 286 276 289 288 284 281 279 279 280 280 285 283 286 287 281 278 278 278 279 279 278 279 281 280 285 280 275 268 267
290 290 289 289 288 287 286 286 285 279 276 280 282 283 280 281 283 289 287 280 278 278 278 278 280 286 286 286 285 278 279 280 280 277 276 276 276 276 277 277 278 270 265
290 290 290 288 288 287 285 283 279 278 277 277 277 277 278 279 286 286 286 286 284 279 279 279 280 285 284 284 282 283 283 281 276 276 275 274 274 273 274 276 279 276 275
287 286 286 286 286 285 282 281 278 278 277 276 277 275 275 277 277 285 286 286 285 280 279 282 284 283 283 280 281 282 281 275 275 274 275 272 272 272 271 272 274 277 276
284 282 279 278 278 278 278 278 277 276 275 276 275 275 274 275 277 278 279 278 282 281 282 277 281 282 281 279 278 277 276 275 274 274 274 276 276 271 272 273 271 274 274
280 279 278 279 277 278 280 277 277 277 278 275 276 276 274 275 279 282 281 280 278 281 280 276 275 274 273 274 275 275 275 276 274 274 274 276 277 278 277 279 278 277 275
279 278 278 277 277 278 278 278 285 284 284 284 284 280 279 282 283 284 284 284 284 284 277 274 272 272 272 274 274 274 275 275 277 278 278 277 276 276 276 277 277 276 274
279 278 278 280 278 277 278 277 276 279 284 283 282 282 282 282 282 282 283 283 283 281 275 272 271 271 271 271 270 269 269 274 278 277 277 276 276 276 276 275 275 275 274
279 284 278 278 277 277 277 276 275 274 274 274 280 280 281 281 281 282 282 281 275 275 274 272 269 271 270 269 268 268 270 272 277 277 276 276 276 275 275 275 275 273 273
281 280 278 277 277 277 276 275 275 275 274 274 274 277 279 281 281 281 282 276 274 273 273 271 271 270 269 268 269 266 265 269 271 272 272 269 270 268 273 273 274 277 277
281 283 281 277 277 275 275 275 274 274 274 274 274 274 274 275 275 275 275 274 273 273 273 271 271 270 268 265 265 266 266 269 270 270 269 269 269 269 271 272 273 273 274
281 282 284 277 276 276 275 275 274 274 273 273 273 275 280 276 274 274 273 273 273 272 271 271 269 268 265 264 263 265 267 269 269 270 270 270 270 270 272 273 273 274 274
281 281 281 278 277 276 275 275 274 274 274 273 274 275 279 275 273 273 273 273 273 273 271 271 269 267 267 266 267 266 266 268 269 270 269 269 271 272 273 273 273 273 273
281 280 279 277 277 278 277 275 274 274 274 274 274 274 274 273 273 273 273 273 273 271 271 271 270 269 268 268 267 267 268 270 271 272 271 271 272 272 272 272 272 272 272
280 280 279 277 276 276 275 275 274 276 274 274 274 274 273 273 273 273 272 269 270 269 270 270 270 270 271 270 270 269 270 272 273 273 273 272 271 272 272 272 272 272 272
281 280 278 277 276 276 275 275 274 273 274 274 274 274 273 273 272 271 270 270 269 270 271 271 271 270 270 269 270 270 273 278 278 278 277 275 273 273 273 274 274 274 274
280 279 278 276 275 275 275 274 274 274 274 273 273 272 273 272 272 271 270 270 270 273 272 272 272 270 270 270 271 273 279 281 282 283 282 281 280 279 279 278 277 277 277

GFSGL_sfc_thetae_048.txt.gz
Theta_e
295 296 297 298 300 300 298 299 300 297 297 296 298 299 300 301 302 303 303 303 305 306 304 305 302 301 300 299 298 298 297 298 297 290 289 290 290 293 295 293 295 294 294
294 295 296 296 296 296 295 295 295 294 294 293 293 294 295 295 296 297 298 298 300 299 298 297 295 296 294 294 293 293 293 294 293 289 287 287 288 290 290 290 291 293 292
294 294 294 293 293 293 293 294 294 293 292 292 292 292 292 292 292 292 294 294 294 294 294 294 293 293 292 291 291 291 290 291 289 289 286 286 286 287 286 288 288 290 291
293 293 291 291 292 292 292 292 293 292 291 291 291 291 291 290 290 289 289 288 289 291 291 291 291 291 290 289 288 287 287 288 287 287 286 286 286 286 287 286 286 288 287
292 293 293 293 292 292 291 292 292 291 291 292 291 291 291 293 292 287 287 287 288 288 289 290 292 293 294 292 289 287 287 286 286 286 285 285 285 285 284 286 285 284 284
293 293 293 293 293 292 292 292 291 291 291 292 292 292 292 292 294 292 289 288 288 287 286 286 288 289 290 294 293 292 290 287 285 285 284 283 284 284 284 283 281 279 276
292 292 292 292 291 291 291 290 289 289 289 289 289 291 291 292 293 292 289 286 285 285 284 282 284 286 286 285 288 289 289 291 290 285 283 281 280 280 279 276 278 274 276
290 290 291 291 290 290 289 289 288 287 287 287 287 288 289 291 292 291 288 279 277 276 276 275 276 279 285 285 281 281 282 282 282 284 283 281 281 280 280 278 278 277 279
289 289 290 290 289 289 287 286 286 285 285 285 286 286 286 282 289 288 281 273 275 276 279 280 280 280 286 287 281 279 279 279 285 288 286 287 287 287 285 279 274 271 273
289 289 290 289 288 287 286 285 286 285 285 282 277 274 284 274 289 287 283 280 278 278 278 279 286 284 287 287 280 278 277 277 279 279 278 279 280 279 284 280 275 267 267
290 290 289 289 287 287 286 286 282 281 282 282 283 283 278 280 282 288 286 280 278 278 278 279 280 286 286 285 285 278 279 280 279 276 276 276 275 275 277 277 278 269 263
290 290 288 288 288 287 284 283 279 276 276 276 277 276 277 277 285 285 286 285 284 279 279 279 279 285 284 284 281 283 283 282 276 275 275 274 273 272 274 275 278 275 274
290 289 285 284 284 283 280 279 279 278 276 276 277 275 274 276 277 284 286 286 285 280 279 282 284 284 284 280 281 282 280 275 274 273 274 272 271 271 270 271 273 276 274
285 284 283 282 281 279 279 278 277 276 275 276 275 275 274 275 277 278 279 278 282 281 282 277 280 281 280 279 277 277 275 275 274 273 273 275 276 270 272 275 276 278 271
283 281 278 278 278 276 277 276 277 276 276 275 275 275 274 275 278 282 282 280 278 281 280 276 274 273 273 274 274 275 275 276 274 274 274 275 277 277 277 274 277 277 273
281 278 278 277 276 278 278 278 284 284 285 284 283 279 279 282 284 284 284 284 284 284 278 274 272 271 272 273 273 274 274 275 274 277 277 277 276 276 276 277 276 273 273
281 278 278 279 276 277 277 277 277 279 285 284 284 283 283 282 283 283 283 283 283 281 274 272 270 270 270 271 270 268 267 270 269 274 276 276 276 276 276 274 273 273 273
281 284 279 279 277 277 277 277 276 275 274 274 280 283 282 282 282 282 282 282 276 276 273 272 269 270 270 269 267 267 268 269 269 271 269 275 275 275 274 273 272 271 271
282 282 281 279 278 279 278 276 275 274 273 273 273 277 279 281 281 281 281 276 274 274 273 270 271 270 269 268 268 265 263 266 266 264 264 266 266 265 269 270 271 275 276
282 284 283 280 278 278 276 275 274 274 273 273 273 273 274 275 274 275 275 274 273 273 272 270 271 269 268 265 265 264 265 267 267 266 266 266 267 266 268 269 270 270 271
282 283 285 280 279 278 276 275 275 274 273 273 273 275 279 275 274 274 273 273 272 272 270 270 269 268 265 264 263 264 265 267 267 267 268 268 266 267 270 271 271 272 272
283 282 283 279 278 278 276 276 275 275 274 273 273 275 280 276 274 273 273 273 273 273 271 270 269 267 267 265 266 265 265 267 267 267 268 268 268 270 271 271 271 272 272
282 281 281 279 278 279 278 276 275 274 274 273 273 274 274 274 273 272 272 272 272 271 271 270 269 268 268 267 267 266 267 268 270 270 270 271 271 271 271 271 271 271 271
281 281 280 280 278 277 277 276 275 277 274 274 274 274 273 273 273 273 272 269 270 269 270 270 270 269 270 270 270 268 269 270 271 272 272 271 271 272 272 272 272 272 272
282 281 281 280 279 279 277 277 276 275 275 274 274 274 274 273 273 272 270 270 269 269 270 272 270 270 269 269 269 270 272 277 277 277 276 273 272 272 272 273 274 274 274
282 281 280 280 278 278 277 276 276 274 274 274 274 273 274 274 274 274 273 271 270 271 271 272 272 270 270 270 270 272 278 281 281 283 283 282 280 279 279 278 277 276 276

GFSGL_sfc_thetae_051.txt.gz
Theta_e
294 295 295 296 297 296 296 296 295 294 294 294 295 295 296 296 297 299 299 300 301 302 301 301 298 299 298 297 297 297 297 297 295 293 291 291 292 294 295 294 297 295 299
293 294 294 294 295 294 294 293 293 292 292 292 293 292 292 293 293 293 294 294 295 294 297 297 295 296 294 294 294 293 293 294 292 291 288 288 288 290 291 291 293 294 293
293 293 292 292 292 292 292 292 292 292 291 291 291 291 290 290 290 290 290 291 292 292 292 291 291 292 291 291 291 290 290 291 289 289 287 287 286 288 287 288 289 290 292
292 291 290 290 291 290 291 291 292 291 291 290 290 290 291 289 288 288 288 287 288 290 290 290 290 290 290 289 288 288 288 288 288 288 287 286 287 286 287 287 286 288 288
293 291 291 292 292 292 292 293 292 290 290 290 290 292 293 292 292 288 289 289 289 289 289 289 291 294 295 293 289 287 287 287 287 286 286 286 286 286 285 286 285 286 286
294 293 293 293 293 292 292 292 292 291 291 292 292 291 292 292 293 292 290 288 287 287 286 286 288 289 289 294 294 294 291 286 285 285 284 283 283 284 284 284 282 280 277
292 292 292 292 291 291 291 290 289 289 290 289 290 291 291 291 293 291 289 286 285 281 279 278 284 285 285 281 286 288 287 289 289 283 280 279 279 279 277 275 277 274 275
291 291 291 291 290 290 289 288 288 288 287 288 288 287 286 290 291 290 287 277 277 278 277 272 273 275 280 281 279 280 280 280 282 283 281 280 280 280 279 277 277 276 278
289 290 290 290 289 289 287 286 286 286 286 285 286 283 278 279 289 288 280 273 275 275 278 278 279 280 287 287 280 279 278 279 284 287 286 286 287 287 285 278 276 271 273
289 289 290 290 289 287 286 285 286 286 284 280 277 274 284 274 288 287 281 279 276 277 277 278 285 284 287 287 279 278 277 277 278 278 278 278 279 278 283 279 274 266 266
290 290 290 289 287 287 286 286 285 283 283 280 279 276 276 280 281 287 287 280 278 278 278 279 280 286 286 285 285 278 279 280 279 276 275 275 275 276 277 278 277 268 263
290 289 288 288 288 287 285 282 278 277 276 277 276 276 276 276 284 285 286 285 284 279 279 279 279 285 285 284 281 283 283 280 275 274 274 274 273 272 273 274 277 274 273
289 288 285 287 287 285 281 278 278 277 276 276 277 275 274 276 276 284 285 285 285 280 280 282 284 283 284 280 281 282 280 274 274 272 273 271 270 271 270 271 273 275 273
288 285 283 282 283 280 281 280 278 276 275 276 275 275 274 275 276 278 279 278 282 281 282 277 280 280 280 279 277 276 275 275 274 272 273 275 275 270 272 278 276 278 277
284 283 282 282 282 278 277 276 277 275 276 275 275 275 274 274 278 281 281 280 278 281 280 277 274 273 273 273 274 274 274 275 273 273 273 275 277 278 277 278 277 277 274
283 282 280 278 277 277 277 278 283 283 286 286 283 279 278 282 284 284 284 284 284 284 278 275 272 271 271 272 272 273 273 274 273 272 273 277 276 276 276 277 277 271 271
284 281 279 280 277 277 278 278 277 280 286 286 285 285 284 283 283 283 283 283 284 282 274 272 271 270 270 270 269 267 267 269 266 267 267 268 274 276 276 275 274 271 272
285 286 279 279 277 277 278 277 277 276 276 276 281 284 285 284 283 283 283 282 277 277 273 272 269 270 270 269 267 266 267 268 267 268 265 264 266 268 272 272 271 269 270
285 284 283 281 280 279 278 277 277 275 274 273 273 277 280 283 283 283 282 275 274 274 273 271 270 269 269 268 268 265 263 265 265 263 262 262 265 262 268 268 269 274 274
286 286 284 281 280 280 279 277 275 274 273 273 273 272 273 276 274 274 275 274 273 273 272 270 270 269 268 265 265 264 264 266 266 265 265 264 265 264 266 267 268 268 269
285 284 286 281 280 280 279 278 277 274 274 273 273 275 279 274 273 274 273 273 273 272 271 271 269 268 266 264 263 263 265 266 266 266 265 266 265 265 268 269 270 271 271
284 284 285 281 280 279 278 278 276 275 275 274 274 275 281 277 275 274 273 273 273 273 272 272 270 268 267 266 265 264 265 265 266 265 266 267 267 269 270 270 271 271 271
284 284 284 283 281 283 280 277 276 276 275 275 274 274 274 274 274 273 273 273 273 273 273 273 272 270 269 268 267 267 267 269 269 270 269 270 270 270 271 270 271 271 271
283 283 283 282 280 280 280 278 277 278 276 275 275 275 274 274 274 274 274 273 273 273 273 273 273 271 271 270 270 269 268 269 271 271 270 271 270 272 272 272 272 272 272
283 282 282 281 281 282 279 279 277 276 276 276 275 275 275 274 274 274 274 274 274 274 274 273 273 272 271 270 270 269 271 277 277 277 275 272 272 272 272 273 274 274 274
282 282 282 282 281 281 280 279 278 276 275 275 275 275 274 274 274 274 274 274 274 274 274 274 273 271 270 270 270 272 279 281 281 283 282 281 280 279 279 278 276 275 275

GFSGL_sfc_thetae_054.txt.gz
Theta_e
294 294 294 295 295 295 294 293 293 293 293 293 294 294 294 293 294 296 297 298 301 299 298 297 297 298 297 297 297 297 297 297 295 294 292 291 292 294 294 296 297 297 299
293 293 293 293 293 292 292 292 292 291 291 291 292 291 291 291 291 291 292 292 292 292 293 295 293 296 294 294 294 293 293 294 293 291 288 289 289 290 291 292 294 295 294
292 292 291 291 290 290 290 291 291 291 290 291 290 289 289 289 288 288 288 289 289 289 289 288 288 288 287 289 290 290 290 290 289 289 288 288 287 288 288 289 290 290 292
292 291 290 289 290 290 290 290 291 290 289 289 290 292 290 288 288 289 289 289 290 290 291 292 291 288 286 286 287 287 287 288 288 288 287 287 287 287 288 287 286 288 288
292 291 290 291 291 291 293 293 291 290 290 292 292 292 292 292 291 289 290 290 289 288 288 290 291 293 295 293 289 288 288 287 287 287 286 286 286 285 285 286 285 285 286
294 293 294 293 293 293 292 292 292 291 292 292 292 291 291 292 293 292 290 287 286 285 285 284 287 287 288 293 293 293 291 285 283 278 278 280 280 280 281 280 278 275 275
292 292 292 292 291 291 291 290 290 289 290 290 290 291 290 291 292 291 289 284 279 277 277 277 282 284 282 279 285 287 286 289 288 282 279 278 278 278 276 274 276 273 275
291 291 292 291 291 290 289 288 288 288 288 288 287 284 285 289 291 289 286 274 277 278 273 271 272 274 279 280 279 279 279 279 282 282 280 279 279 279 279 276 277 275 278
290 290 291 291 290 289 288 287 287 287 286 285 283 279 278 278 288 287 279 272 275 275 277 278 279 280 288 287 280 278 278 279 284 286 286 286 286 286 284 278 273 270 273
289 290 290 290 289 287 286 286 286 286 284 282 277 275 283 274 288 286 281 278 276 277 277 279 285 284 287 286 279 277 276 277 278 278 277 278 278 277 282 278 274 266 266
290 290 290 290 288 287 286 286 285 282 277 274 274 274 275 279 280 287 286 280 279 278 278 279 280 286 286 285 284 277 278 279 278 275 275 274 275 276 277 277 277 267 262
290 290 289 288 288 287 285 283 282 281 280 279 277 276 277 275 283 285 286 286 284 279 279 279 279 285 285 285 281 283 283 278 275 274 273 273 273 272 273 273 276 274 273
289 288 287 287 287 286 282 280 278 276 276 276 277 275 275 276 276 284 285 285 284 280 279 282 284 283 283 279 281 282 279 274 273 272 273 271 270 270 269 270 272 275 273
288 286 286 285 285 284 281 280 279 277 276 276 276 275 274 275 275 277 279 278 282 281 282 277 281 280 280 278 277 276 275 275 274 272 272 274 275 269 271 278 277 272 272
286 285 283 285 286 281 281 279 280 277 277 276 275 275 274 274 277 280 281 280 278 281 281 277 275 273 273 273 274 274 274 274 272 273 272 273 276 277 278 278 277 277 275
284 283 283 282 281 280 278 277 283 284 285 285 284 278 278 281 283 285 285 284 284 285 278 275 273 271 272 272 272 272 272 273 272 271 269 269 271 272 273 275 277 276 271
286 284 283 283 278 277 277 277 277 280 287 287 286 286 285 283 284 284 284 284 284 283 275 272 270 270 271 271 270 269 267 269 265 265 264 264 267 267 274 270 272 273 270
287 288 283 282 278 277 278 278 278 277 277 277 283 285 286 286 285 284 284 283 277 278 274 272 270 271 271 270 269 268 267 267 266 267 263 262 262 262 267 270 271 267 268
288 287 285 281 280 279 279 278 278 277 276 275 274 277 281 285 285 284 284 276 274 274 274 272 271 271 270 269 270 268 264 265 264 262 260 260 262 259 265 267 267 273 273
289 289 287 283 281 280 279 279 278 278 276 275 274 273 274 277 275 274 275 274 273 273 273 271 271 271 270 268 265 265 265 266 265 264 264 263 264 262 264 266 267 267 268
288 287 289 284 282 281 280 279 279 278 277 276 275 275 279 274 274 273 274 274 274 273 272 271 270 269 269 267 263 264 266 266 265 265 264 265 263 264 267 268 269 270 270
287 285 286 284 282 281 281 280 278 278 277 276 275 275 281 278 276 275 275 275 274 274 273 273 272 271 268 267 267 266 266 266 266 266 266 266 267 268 269 270 270 271 271
285 284 285 284 282 283 283 281 279 278 277 276 275 275 275 275 276 275 275 274 274 274 274 273 272 271 270 269 269 268 268 269 269 269 269 269 270 270 270 270 270 270 271
284 284 284 284 283 283 282 281 279 280 278 276 276 275 275 274 275 275 275 275 275 273 272 272 273 273 273 272 270 268 268 269 270 270 270 270 270 271 271 272 272 272 272
282 282 283 283 282 282 281 281 280 279 279 278 276 275 275 274 275 275 275 275 275 273 274 273 272 271 270 270 270 269 270 276 277 276 274 272 272 271 271 273 273 273 274
281 283 283 282 281 282 281 281 280 279 278 278 277 276 275 275 275 275 274 274 274 274 273 273 272 271 270 270 270 271 278 280 281 282 281 280 279 279 278 277 275 274 274

GFSGL_sfc_thetae_057.txt.gz
Theta_e
298 299 299 299 299 299 298 297 297 297 297 297 297 297 297 297 299 301 302 302 301 301 301 301 300 299 298 299 301 301 301 301 299 297 295 294 296 295 296 298 299 299 299
297 297 297 297 297 296 296 295 296 295 295 295 295 294 294 295 295 297 296 296 296 296 296 296 295 296 296 297 298 297 296 295 296 294 292 292 292 293 293 294 294 295 295
296 296 295 295 295 294 294 294 295 294 294 294 294 293 292 292 292 293 293 293 293 293 293 293 293 293 293 293 294 293 293 293 294 293 291 291 291 290 292 291 291 292 293
295 294 293 293 293 294 294 294 294 293 293 293 294 293 291 291 291 291 292 292 292 292 293 294 293 292 292 292 292 291 291 291 291 291 290 290 289 289 289 288 289 290 289
294 293 293 293 293 294 294 293 293 293 293 293 293 293 293 292 291 291 291 291 290 290 290 291 292 294 295 294 292 290 290 290 290 290 289 289 289 288 286 288 288 289 289
294 294 294 294 294 294 294 293 293 293 293 293 292 292 292 293 293 293 291 289 288 287 287 287 288 287 289 292 292 293 291 288 285 286 286 286 285 285 286 285 285 284 284
294 294 294 293 293 292 292 291 291 291 291 291 291 291 291 292 292 291 289 285 283 283 284 285 285 285 284 284 287 287 288 289 288 287 285 284 284 284 284 283 283 283 283
293 293 293 292 292 291 290 289 289 290 289 289 288 288 290 291 291 289 285 281 281 281 281 281 284 284 286 284 284 283 283 286 286 285 285 285 285 285 285 284 284 284 284
291 292 292 292 291 290 288 288 288 288 287 286 285 284 284 286 289 287 283 281 281 281 282 284 285 286 288 286 283 281 281 283 285 286 285 285 285 285 286 285 283 281 279
291 291 292 291 290 288 288 287 288 287 286 284 282 281 285 283 288 286 283 282 280 281 282 283 286 286 286 286 283 281 280 281 282 281 281 280 280 281 282 282 282 280 280
292 291 291 291 289 288 287 287 286 285 283 281 281 280 281 284 284 288 286 282 282 281 282 282 283 286 285 285 283 281 281 283 280 279 279 279 280 281 282 282 281 280 279
291 290 290 289 289 288 286 285 284 283 282 282 282 281 281 280 283 286 287 286 285 282 281 282 283 284 284 285 282 283 283 279 278 277 277 278 279 280 281 281 281 281 281
290 289 288 288 287 287 285 283 282 280 280 280 281 280 279 279 279 284 287 286 286 283 283 283 284 283 282 280 281 282 279 278 277 276 277 278 279 280 278 279 280 280 281
289 288 287 287 286 285 284 283 281 280 279 279 279 279 278 278 278 279 282 282 283 283 283 282 282 281 280 280 278 278 278 278 278 278 277 278 279 279 279 280 279 279 278
288 287 287 287 287 284 283 282 281 281 281 280 279 279 278 277 279 281 281 281 282 283 283 281 279 278 277 276 276 277 277 277 277 278 277 277 278 278 279 280 279 278 277
287 286 286 286 285 284 282 282 286 286 286 286 285 280 279 281 283 285 286 286 285 285 281 279 278 277 276 275 275 275 276 276 276 277 276 276 276 277 277 278 278 278 276
287 286 286 285 284 284 282 281 280 281 287 287 287 287 285 282 285 285 285 285 285 284 280 278 276 276 275 275 275 275 275 275 274 274 274 275 274 274 275 276 276 276 275
288 289 286 287 284 283 281 280 280 279 279 281 286 287 287 287 286 286 285 284 280 281 278 278 277 276 276 275 275 275 275 275 274 274 274 273 272 272 273 274 274 274 274
288 287 287 286 284 283 281 280 280 280 279 279 278 280 284 288 288 287 286 281 278 277 277 277 276 276 275 275 275 275 274 273 273 272 272 271 272 271 271 272 272 274 275
289 289 289 285 283 283 281 280 280 279 279 279 278 278 276 279 277 278 279 278 277 276 276 276 276 276 276 275 275 273 272 272 272 272 272 271 271 271 270 270 271 271 272
289 289 290 286 284 283 281 280 280 280 280 279 279 279 280 276 276 276 276 276 276 276 277 276 276 276 275 274 273 272 272 272 272 271 271 272 271 270 271 271 272 272 272
288 288 289 287 285 283 283 282 281 280 279 278 278 278 283 280 277 276 276 276 277 277 278 277 277 276 275 274 273 272 272 272 272 271 271 270 270 271 271 272 272 273 273
287 286 286 286 285 285 284 282 281 281 281 280 279 278 277 278 279 277 277 277 277 277 277 277 276 276 275 274 273 273 273 273 274 273 272 272 272 272 273 272 272 272 273
286 285 284 285 284 283 283 283 282 282 281 280 280 279 277 276 276 276 276 278 277 278 277 276 276 276 276 275 275 274 272 273 273 273 272 272 272 273 273 274 274 274 273
284 284 283 284 283 284 283 284 282 281 281 280 279 279 279 277 276 277 278 277 277 277 276 276 276 275 274 273 273 273 274 277 277 275 274 273 273 273 274 274 275 275 275
283 283 283 283 283 283 282 282 282 281 280 280 280 279 278 278 277 278 278 277 276 277 276 276 276 275 274 273 273 273 277 279 280 282 281 280 278 277 277 276 275 275 275

GFSGL_sfc_thetae_060.txt.gz
Theta_e
306 306 307 307 307 308 308 307 305 304 303 303 303 303 303 304 306 309 306 305 305 304 305 304 303 306 306 305 307 305 304 306 302 297 298 299 301 300 300 300 300 300 300
304 304 304 305 304 305 304 303 303 302 302 301 301 301 301 301 303 304 303 303 303 302 302 302 301 301 302 303 303 303 302 302 303 300 297 298 296 297 297 297 297 297 298
302 302 302 302 302 303 302 301 301 301 300 300 299 299 298 298 299 300 300 299 299 299 299 298 298 299 299 299 299 299 299 298 298 297 294 295 294 293 293 295 295 295 296
300 301 300 301 301 301 300 300 300 299 299 299 298 297 296 295 295 295 296 296 296 296 296 296 296 296 296 296 295 295 295 296 295 295 293 293 291 291 291 290 293 294 293
300 299 298 299 299 298 298 298 298 298 298 297 295 295 295 294 294 294 294 294 293 293 293 293 294 295 295 295 294 294 294 294 293 293 292 292 291 290 289 291 291 291 292
299 299 299 298 298 298 297 295 295 295 294 294 294 294 294 294 295 294 293 293 293 292 291 291 291 290 292 293 293 292 292 292 289 290 291 291 289 289 289 288 287 286 286
299 299 298 297 296 295 295 293 293 293 293 293 293 293 293 293 293 292 291 290 289 287 288 288 288 288 287 287 288 288 289 289 289 289 288 288 287 287 287 286 286 286 285
298 298 297 296 294 294 292 291 291 291 291 291 291 292 292 292 291 289 287 286 286 285 286 286 288 288 288 286 286 286 287 288 288 288 288 288 288 289 288 287 286 286 286
296 296 296 295 293 291 290 290 290 290 289 289 289 289 289 290 289 287 286 287 286 285 286 287 288 288 288 286 285 284 284 285 286 285 285 285 285 285 286 287 285 283 282
295 295 295 294 292 290 290 288 289 289 287 288 286 287 288 289 288 287 286 285 283 284 284 286 286 287 287 287 286 284 282 284 285 284 284 283 282 283 283 284 284 282 282
296 295 294 293 292 290 289 288 288 287 286 286 286 285 286 288 288 287 285 284 284 283 284 284 285 286 286 285 285 284 283 285 283 282 281 282 283 284 284 284 284 284 282
295 294 293 292 291 289 288 287 287 286 286 286 285 286 286 286 287 289 289 287 286 284 283 284 285 285 284 285 285 283 284 282 281 280 280 280 281 282 284 284 283 284 284
292 291 291 290 289 288 287 286 285 286 286 285 284 284 284 283 284 287 288 289 288 284 285 284 285 283 282 282 282 282 281 281 280 279 279 281 282 283 282 282 283 283 282
292 291 290 289 288 287 287 286 286 285 285 284 284 283 283 282 282 283 286 287 286 285 284 285 284 283 281 281 281 280 280 280 280 280 280 281 282 282 281 283 281 281 280
292 290 288 288 288 286 286 286 286 286 286 284 283 283 282 281 282 283 283 283 284 284 284 284 283 282 281 280 279 279 280 280 279 280 280 280 279 280 281 282 281 281 279
289 289 289 288 289 287 286 286 288 287 287 287 286 284 283 284 284 285 285 285 286 286 284 282 282 282 280 279 278 278 279 279 279 280 280 280 279 279 280 280 280 280 279
289 289 289 289 288 287 285 286 284 286 288 288 288 288 286 283 285 286 287 287 287 286 282 283 282 281 280 279 279 279 279 280 280 279 279 279 279 278 278 278 279 279 278
289 290 289 289 288 288 287 286 285 284 282 284 287 288 288 288 285 286 286 286 283 284 282 281 282 282 281 280 280 279 279 279 279 278 278 278 277 277 276 277 277 277 277
289 289 288 289 289 289 288 286 284 283 282 282 282 285 288 288 288 288 287 284 282 281 281 281 281 281 280 280 280 280 279 279 279 278 278 277 277 276 276 276 276 277 277
291 290 290 287 286 286 285 284 284 283 282 282 282 281 281 283 283 285 285 284 282 282 282 281 280 280 280 280 280 279 278 278 277 277 277 277 277 277 276 276 276 276 276
293 292 291 288 286 286 284 283 282 281 281 281 281 282 284 280 280 280 280 281 281 280 281 280 280 280 280 280 279 278 277 277 278 278 278 278 277 276 276 276 276 276 275
291 290 290 289 287 285 285 284 283 282 282 281 280 280 285 284 280 279 278 278 279 279 281 281 281 281 281 280 279 278 277 277 278 278 277 277 276 276 276 276 276 276 276
289 289 288 288 287 287 286 284 283 282 283 282 282 281 282 283 283 280 279 279 279 280 281 281 280 280 280 279 279 279 278 278 279 279 278 277 277 276 276 276 276 275 275
288 287 286 286 286 285 285 284 284 284 283 283 282 282 282 282 282 280 281 281 281 282 281 280 280 280 280 280 280 279 279 278 279 278 277 276 276 277 276 276 276 276 276
287 287 286 286 286 286 285 285 285 285 284 284 283 283 283 283 282 281 280 281 280 280 280 280 280 280 279 278 278 279 279 279 278 277 276 276 275 276 276 277 277 277 277
287 286 285 285 285 285 285 285 285 285 284 284 284 283 282 282 281 281 281 280 280 279 280 280 280 279 279 279 278 277 279 279 280 281 280 279 277 277 277 277 277 277 277

GFSGL_sfc_thetae_063.txt.gz
Theta_e
309 309 309 309 309 310 310 309 308 307 306 305 305 305 305 305 307 309 308 307 307 306 306 305 304 307 307 307 308 307 307 307 304 299 299 300 301 299 299 299 300 299 300
308 308 308 308 307 307 307 306 306 305 304 303 303 302 302 303 304 305 305 305 305 304 304 304 303 304 303 304 305 304 303 302 302 299 297 297 296 296 297 296 296 297 298
306 306 305 305 305 305 305 304 304 303 303 302 301 300 300 300 301 301 302 301 301 301 300 300 299 301 299 300 300 299 299 298 298 296 293 295 295 293 292 294 295 294 296
303 303 303 303 303 303 303 302 302 302 301 301 300 299 298 297 297 297 298 298 297 297 297 297 297 296 296 296 296 295 296 295 295 295 294 293 292 292 292 290 292 294 292
302 301 301 301 301 301 300 300 300 300 300 299 297 297 296 296 295 295 296 296 295 294 294 294 294 295 295 295 294 293 293 292 292 292 292 292 291 290 288 290 288 289 290
302 302 302 300 300 299 299 298 297 297 296 296 295 295 295 295 295 295 295 294 294 293 291 292 292 292 293 293 292 292 290 290 288 288 289 289 289 288 288 285 285 284 283
302 301 301 300 299 298 298 296 295 294 294 294 294 294 294 294 295 294 294 292 290 289 288 289 288 287 287 287 288 288 290 289 289 288 285 285 285 285 285 284 284 283 283
301 300 300 299 297 296 295 293 293 293 292 292 292 293 293 292 292 291 290 287 286 286 286 286 287 287 287 286 286 285 286 287 287 288 287 287 286 287 286 285 284 283 284
299 299 299 298 296 295 293 292 291 291 290 289 291 291 290 290 290 288 287 286 286 285 286 287 288 288 288 287 285 283 283 285 287 286 285 285 285 285 285 284 283 281 280
298 298 298 297 295 293 292 289 290 289 287 288 287 288 290 289 289 287 287 285 284 283 284 286 287 287 287 287 285 283 281 282 283 283 283 282 282 282 283 282 282 278 280
298 298 297 296 294 293 290 289 289 287 286 287 286 286 287 288 288 288 286 284 283 282 283 283 284 287 286 286 286 283 283 284 283 281 280 280 280 281 282 282 282 281 279
297 296 295 294 293 291 289 287 287 286 286 286 286 286 287 287 289 289 288 287 286 283 282 283 284 285 285 286 286 286 284 283 280 279 278 278 279 281 282 282 281 282 282
295 294 294 293 292 290 288 287 286 286 286 287 285 284 284 285 285 289 289 290 289 285 283 284 285 285 284 283 284 284 284 280 279 278 278 279 281 281 280 279 281 281 282
294 293 292 290 289 289 288 287 286 285 286 287 284 283 284 283 282 283 286 287 289 286 285 284 285 285 284 282 281 281 280 279 279 279 279 279 280 280 279 280 279 279 280
293 292 290 290 289 287 287 286 286 288 289 286 285 284 283 282 282 284 284 284 284 285 284 283 282 282 281 280 279 279 279 279 278 279 278 278 279 279 279 280 279 278 277
291 291 289 288 289 287 286 286 290 291 290 289 289 286 284 286 285 286 286 286 286 286 283 282 281 281 280 279 278 278 278 279 278 279 279 278 278 278 278 279 278 277 276
289 288 288 288 288 287 286 286 286 288 289 288 288 288 288 285 286 286 286 286 286 287 283 282 281 281 280 279 279 279 278 279 278 278 277 277 276 276 277 276 276 276 276
290 291 288 288 288 288 287 287 287 284 283 284 289 289 289 289 287 286 287 287 283 285 282 281 281 281 281 280 279 279 279 278 278 277 276 276 274 275 274 275 275 274 275
290 289 289 289 288 288 287 287 288 285 284 283 284 286 289 289 289 288 287 283 282 281 281 281 282 281 281 280 280 279 278 278 278 277 276 275 276 276 275 274 275 278 277
291 290 290 288 288 288 287 286 285 285 284 284 282 282 284 287 285 285 285 285 283 282 281 281 281 281 281 281 280 280 279 278 277 276 276 277 277 276 275 274 275 275 276
292 291 291 289 287 287 286 285 285 284 283 282 282 282 285 282 283 284 284 285 284 283 283 282 282 281 281 281 280 280 279 278 278 277 278 278 277 277 277 277 276 276 276
292 291 290 289 287 286 286 285 284 284 283 283 283 282 287 284 281 280 280 281 283 283 282 282 281 282 282 281 280 279 278 278 278 278 278 278 278 277 277 276 276 276 276
290 289 288 288 287 288 286 285 284 284 283 283 283 282 282 284 284 282 280 280 279 280 280 280 281 281 282 282 281 280 279 278 279 279 278 278 278 277 277 276 275 275 275
289 287 287 286 286 286 285 285 284 284 284 284 284 284 283 283 284 284 284 282 281 282 281 281 281 281 281 281 280 280 280 280 280 279 278 278 277 277 277 276 276 275 275
287 287 286 286 285 286 285 286 285 285 285 284 284 284 284 284 284 284 284 283 282 281 281 280 281 280 280 280 280 280 280 281 279 278 278 277 276 275 275 275 275 276 275
287 286 286 286 285 285 285 285 285 285 284 284 284 284 284 283 283 283 282 281 281 281 280 280 280 280 280 280 279 279 281 281 280 281 280 278 276 275 276 276 276 276 276

GFSGL_sfc_thetae_066.txt.gz
Theta_e
306 305 305 305 307 307 307 305 304 303 302 301 301 301 301 301 301 302 306 306 306 305 305 304 303 306 305 304 303 303 301 304 302 297 298 298 297 296 296 297 298 297 299
305 305 304 304 303 304 304 303 302 302 301 300 299 299 299 299 299 299 300 301 304 303 303 303 301 303 301 300 299 297 297 295 295 297 295 295 294 292 291 295 296 297 296
302 302 302 302 302 302 301 301 301 300 299 299 298 297 296 296 296 296 297 297 296 295 296 295 295 296 293 293 295 295 293 295 294 293 291 293 292 290 291 293 293 290 294
300 299 299 299 300 299 300 300 300 299 298 298 297 296 295 294 294 295 295 294 294 294 294 293 293 293 295 295 294 294 294 293 293 293 291 290 290 289 290 287 286 288 287
298 298 297 297 297 298 298 297 298 297 296 296 295 295 296 295 295 295 296 295 294 293 293 293 293 294 296 295 293 292 292 290 289 289 289 289 289 288 285 285 282 282 284
298 298 298 297 296 296 295 295 294 294 294 294 295 295 294 295 295 296 295 294 293 292 290 288 289 291 292 293 293 292 290 288 287 287 287 286 284 282 282 280 280 276 276
298 298 298 297 296 295 296 296 292 291 293 293 293 294 293 294 296 295 295 291 289 287 287 285 286 287 286 284 288 290 289 290 289 284 281 280 280 281 280 279 279 277 278
297 297 297 296 295 294 295 294 291 293 292 292 292 292 292 292 294 293 292 287 285 284 284 284 282 282 284 284 283 283 283 284 285 285 282 281 281 282 282 281 280 279 280
296 296 296 295 293 293 293 290 291 291 290 290 291 290 289 289 291 290 285 282 283 282 283 284 286 285 288 287 283 281 280 282 287 286 285 285 285 285 284 280 276 274 275
296 296 295 294 293 293 292 289 290 290 288 288 287 287 290 286 290 289 286 283 282 282 282 284 287 286 288 288 282 279 278 279 280 280 280 281 281 280 283 279 276 270 272
296 295 294 293 293 292 288 288 289 288 287 286 286 285 284 286 286 289 288 282 281 280 280 280 282 287 287 286 286 280 281 281 282 279 277 277 277 278 278 279 279 272 269
295 294 293 292 293 291 289 288 287 286 285 285 285 283 284 285 289 289 289 287 285 281 280 281 282 286 286 286 285 286 284 284 279 277 276 276 275 275 276 277 279 278 277
293 291 291 293 291 290 288 287 286 286 285 285 285 282 282 283 283 290 291 290 289 284 281 283 285 286 285 283 285 286 285 280 278 276 276 275 274 275 274 275 276 278 276
291 290 292 291 290 289 288 287 286 285 285 285 284 281 281 281 281 282 284 285 289 287 286 281 284 285 285 282 281 281 279 278 277 275 276 277 277 273 274 275 273 274 272
290 289 290 290 290 287 287 287 286 287 288 286 284 282 282 280 281 283 283 283 283 285 283 281 280 280 279 279 278 278 278 277 276 276 275 276 277 276 277 275 275 272 270
290 289 289 288 288 287 286 285 290 290 291 292 291 285 283 286 288 288 287 287 288 288 282 280 279 279 279 279 278 277 277 278 276 275 273 273 273 273 273 274 273 271 270
290 289 289 288 287 285 285 285 284 287 292 291 290 289 288 285 288 287 287 287 287 287 281 281 280 280 280 280 278 276 275 276 272 271 270 269 269 269 275 271 271 271 270
291 291 288 288 288 287 286 285 286 285 284 284 289 288 289 290 289 287 287 287 282 284 282 281 280 280 280 279 278 277 276 274 274 272 269 268 269 268 268 270 270 269 268
290 289 289 289 288 288 287 286 285 285 283 282 282 286 289 290 290 290 288 283 282 281 281 280 281 280 280 279 279 277 276 275 272 272 272 271 270 268 270 270 270 277 276
291 290 291 288 288 288 286 286 285 285 284 283 281 282 283 286 284 284 285 282 282 281 281 281 281 281 281 280 279 278 277 278 275 273 273 272 274 273 273 271 271 270 273
291 291 292 289 288 288 287 286 286 285 285 284 284 283 286 284 284 284 284 283 283 283 282 281 281 281 281 281 280 279 279 278 278 277 276 275 275 274 275 276 276 276 276
292 290 290 289 288 287 287 287 286 285 285 284 283 283 287 285 282 283 284 284 284 285 284 283 282 281 281 281 280 279 279 278 278 277 277 277 276 277 277 277 276 276 276
289 289 289 289 287 288 287 286 285 285 284 284 284 284 283 285 285 283 282 282 280 282 281 281 280 280 281 281 281 280 279 278 279 279 278 277 277 277 277 276 276 275 275
288 287 287 287 287 286 286 286 285 285 284 284 283 283 283 283 284 284 284 283 281 280 280 280 280 281 281 281 281 281 281 280 280 280 279 278 277 278 278 277 276 275 275
285 285 285 285 285 286 285 285 284 284 284 284 284 284 283 283 283 282 283 284 281 280 281 281 281 280 280 280 280 280 280 281 280 279 278 277 276 276 276 275 275 275 275
284 284 284 284 284 284 284 284 284 284 284 284 283 283 283 282 281 281 281 281 280 280 280 280 280 280 280 280 280 280 282 282 282 283 278 276 276 275 275 274 274 274 274

GFSGL_sfc_thetae_069.txt.gz
Theta_e
307 307 306 306 307 307 306 306 304 303 303 302 301 300 300 299 300 300 302 303 303 302 302 304 304 305 305 304 304 304 302 303 302 297 298 298 295 295 296 297 298 297 298
303 304 304 304 304 303 303 303 303 300 301 300 299 299 298 298 297 297 299 299 301 302 302 303 301 303 300 300 300 298 296 293 297 296 296 294 293 292 290 294 296 297 295
302 301 301 301 301 301 301 301 301 299 298 298 298 297 296 296 295 295 296 296 295 295 297 297 297 297 294 294 294 296 295 294 291 290 291 293 291 291 291 292 293 289 293
299 299 298 298 298 298 298 299 298 298 297 296 296 295 295 294 294 294 294 293 293 293 292 292 292 293 292 293 294 294 294 293 293 292 291 290 290 290 290 285 285 286 285
298 297 297 297 297 296 296 296 296 296 295 295 294 294 294 294 295 293 295 295 294 293 293 294 293 294 296 295 293 292 292 290 289 289 289 289 289 288 283 283 281 281 282
297 297 297 296 295 295 294 294 293 293 292 293 293 294 294 295 296 297 296 294 293 292 290 290 290 291 293 294 293 293 291 290 288 287 285 285 283 282 281 280 279 276 276
297 297 296 295 295 294 294 293 291 290 290 290 292 294 293 294 296 297 296 292 290 288 287 285 285 288 286 284 289 290 290 291 289 285 281 280 280 281 280 279 279 276 278
296 296 296 295 294 293 293 292 293 289 289 289 291 293 292 293 295 295 293 287 286 286 284 281 280 281 283 283 283 283 283 283 284 285 282 282 282 282 282 281 280 279 279
296 296 295 295 293 292 291 290 291 288 288 290 291 291 289 290 293 293 287 284 281 280 282 284 285 284 288 288 283 281 281 283 287 287 286 286 286 286 284 280 277 274 275
296 295 295 294 293 290 290 291 289 289 289 289 287 288 291 288 292 290 285 282 280 281 282 283 289 287 290 288 282 280 278 279 281 280 279 281 281 281 284 279 277 269 271
296 295 294 293 291 290 290 290 288 288 288 287 286 286 287 288 287 290 289 283 281 281 280 281 282 289 289 288 286 280 280 281 282 279 277 277 277 278 278 279 279 272 268
294 293 292 291 292 290 290 288 288 287 287 286 286 285 285 285 289 290 290 287 285 280 280 280 282 288 288 287 286 286 285 284 278 277 277 277 276 276 277 277 279 277 276
292 291 291 290 291 291 289 288 287 287 286 285 285 284 283 283 283 291 291 289 288 282 281 283 286 287 286 284 285 286 286 280 278 276 276 276 277 277 275 274 275 277 275
290 289 289 289 290 289 288 288 287 286 285 285 285 284 282 281 281 282 286 288 290 287 286 283 284 285 285 282 282 281 280 279 278 277 277 278 278 274 276 275 272 274 271
289 288 288 289 290 288 288 287 287 288 288 286 286 285 282 280 281 284 284 283 283 286 284 281 281 280 280 280 279 279 278 278 277 277 277 277 278 278 277 274 274 271 270
290 290 290 289 290 288 286 286 291 291 291 292 291 287 284 287 288 289 288 288 288 289 284 280 279 280 279 280 279 278 278 279 278 277 276 276 276 274 274 273 271 270 269
291 290 290 289 288 286 285 285 284 288 291 292 292 291 290 286 289 290 289 288 288 288 282 280 280 280 280 280 279 278 277 278 278 277 276 274 272 270 275 271 270 270 269
292 292 289 289 288 287 286 285 286 285 285 287 291 290 290 289 288 289 288 288 283 285 281 281 280 280 281 280 279 279 278 277 277 277 274 272 271 272 271 267 268 266 265
291 289 290 289 288 288 286 286 286 285 285 283 283 287 290 290 290 290 288 282 281 280 281 281 282 281 280 281 281 280 278 277 277 275 275 274 272 271 272 271 269 277 275
291 291 291 289 288 287 286 286 285 285 285 284 283 283 283 286 284 285 285 283 282 282 282 281 282 282 281 281 281 280 279 279 279 276 276 276 274 273 274 273 273 271 271
291 291 292 289 288 287 287 286 286 286 285 285 285 284 286 284 284 284 284 284 283 282 282 282 281 281 281 278 277 277 278 278 278 277 277 276 275 275 276 275 274 274 275
289 291 290 290 288 287 287 287 287 286 286 286 285 284 288 286 285 285 285 284 284 284 284 283 282 282 282 281 281 280 278 278 278 278 276 277 277 277 277 276 276 276 276
286 287 289 289 288 289 288 287 286 286 286 285 285 284 284 285 285 283 282 283 283 284 284 284 284 283 281 281 280 280 278 278 278 278 278 277 277 277 277 276 276 275 275
285 285 286 287 287 287 287 286 286 286 285 285 284 284 284 284 285 285 285 284 284 283 281 282 282 279 279 280 280 279 279 278 279 279 278 278 277 278 278 277 276 276 275
284 284 284 285 285 287 286 285 285 285 285 284 284 284 284 284 283 283 283 284 283 281 279 280 281 280 280 280 280 280 281 282 280 280 280 279 278 277 277 276 276 276 275
283 284 284 284 284 284 284 284 284 284 284 284 283 283 283 282 282 282 282 281 281 280 279 279 279 279 279 279 279 280 282 283 282 283 280 277 276 276 276 275 275 274 274

GFSGL_sfc_thetae_072.txt.gz
Theta_e
304 304 304 306 307 307 306 306 305 303 302 302 302 301 301 300 300 299 299 302 301 301 300 301 302 303 304 304 304 304 303 303 303 297 297 297 295 296 296 297 297 297 297
303 303 304 304 305 304 304 304 302 301 301 301 299 299 298 298 298 298 298 301 300 300 301 300 300 302 301 300 301 299 297 297 299 296 295 294 293 293 293 294 296 296 294
301 301 301 301 301 300 300 300 300 299 299 298 298 297 296 296 296 295 296 296 295 295 296 298 298 298 296 296 297 296 296 295 294 294 291 293 291 291 291 292 293 289 292
299 299 298 298 298 298 298 298 298 297 296 296 295 294 295 294 294 293 294 292 292 292 292 292 293 295 295 294 295 295 295 293 294 292 291 290 290 290 289 285 288 285 284
298 297 297 297 297 297 296 296 296 296 295 294 293 293 293 293 294 292 293 293 294 294 294 293 293 294 296 296 294 293 293 291 290 290 289 289 289 288 284 284 282 281 281
297 297 297 296 295 295 294 293 293 292 292 292 292 292 292 294 297 297 296 295 294 293 291 290 291 292 294 295 294 293 292 291 289 289 287 287 283 283 282 280 280 276 277
296 296 296 295 294 293 293 292 291 290 290 290 290 291 291 293 297 297 298 293 291 290 288 287 288 288 286 284 290 290 291 292 290 287 284 283 281 282 281 279 279 277 278
296 296 296 294 293 292 292 291 289 288 288 288 288 289 290 293 297 296 295 288 287 286 286 285 280 280 283 283 283 283 282 283 284 285 283 282 282 282 282 281 280 279 279
296 296 295 294 292 291 290 289 289 288 287 287 288 289 290 291 296 295 290 286 286 285 285 283 283 282 287 288 282 282 282 283 288 288 288 288 288 288 284 280 278 276 276
296 296 295 294 293 291 290 288 288 290 288 288 287 288 291 289 294 293 288 284 283 282 283 284 290 285 290 289 282 281 279 280 281 281 280 281 281 281 285 280 279 274 275
295 294 294 293 292 291 289 288 288 289 288 287 287 287 288 289 290 292 289 281 281 280 281 282 283 291 291 289 286 280 280 281 283 279 278 277 277 278 279 279 280 275 271
294 294 292 291 292 291 288 287 289 288 287 287 287 286 287 287 291 292 291 288 285 280 280 281 282 288 289 288 286 286 286 284 279 277 277 276 276 277 278 280 280 279 278
292 291 290 290 290 289 288 288 288 288 287 286 286 285 285 285 284 291 291 291 288 281 280 282 285 288 288 287 287 287 288 280 278 277 276 276 276 277 277 278 279 279 275
290 289 288 288 288 287 289 289 288 287 286 286 285 285 285 284 283 282 285 287 289 286 285 283 285 286 286 283 283 282 281 280 278 277 277 278 279 277 278 278 275 275 271
289 288 287 288 290 288 289 288 288 289 289 287 286 286 285 283 283 285 285 284 285 286 284 281 280 280 280 280 279 279 278 279 279 278 277 278 278 279 279 277 275 271 271
291 290 290 290 291 289 288 287 292 292 292 293 292 289 286 289 289 289 289 289 290 290 285 280 280 279 279 280 279 279 279 279 278 278 278 277 278 278 277 276 273 270 270
292 291 290 290 289 288 287 286 285 288 293 292 293 293 292 288 291 290 290 290 289 289 284 280 279 279 279 279 279 278 278 278 279 277 278 276 275 275 277 276 274 274 273
293 293 290 290 289 288 287 286 286 286 285 286 291 292 293 292 290 290 290 289 283 286 283 281 280 280 280 280 279 279 278 276 276 276 275 275 274 275 274 274 273 272 273
292 291 291 290 289 289 287 286 286 286 286 286 285 289 292 292 290 289 289 283 282 281 282 281 280 280 280 280 280 280 279 277 274 275 276 274 272 271 273 274 272 277 275
292 292 292 290 288 288 287 286 286 285 285 285 285 285 285 289 286 286 285 283 282 281 281 281 282 282 282 281 280 280 279 279 277 275 274 274 274 272 272 274 274 274 273
288 291 293 290 288 287 287 286 286 286 286 285 285 286 287 284 285 285 285 285 284 283 283 282 282 282 282 282 281 279 278 278 277 277 275 275 273 272 275 276 276 275 275
287 288 290 290 288 287 287 287 287 286 286 286 286 286 290 287 284 285 285 285 285 285 285 284 283 283 283 282 281 278 277 277 276 275 275 274 274 276 277 276 276 276 276
285 284 286 288 288 289 288 287 287 286 286 286 286 285 285 286 285 284 285 285 285 285 285 284 284 283 283 283 283 283 281 281 280 278 276 276 277 277 277 277 276 276 276
285 284 284 286 287 287 288 287 287 287 286 286 285 285 284 285 285 285 284 284 284 284 284 284 284 284 281 281 281 281 281 278 279 278 278 278 277 278 278 277 277 277 276
284 284 284 284 285 286 286 287 286 286 285 285 285 284 284 284 284 284 284 283 284 283 282 282 282 281 279 279 279 279 280 282 279 279 279 278 278 278 278 277 277 277 276
283 283 284 284 284 284 285 285 285 285 284 284 284 283 282 282 282 282 281 281 281 282 282 279 279 278 278 278 277 278 283 284 283 283 279 278 277 277 277 276 275 275 275

GFSGL_sfc_thetae_075.txt.gz
Theta_e
303 303 304 304 305 306 307 306 304 304 303 304 304 303 301 301 299 298 299 300 301 300 300 300 300 301 301 302 303 304 304 303 304 296 297 297 296 297 297 297 297 297 297
302 302 303 304 304 304 305 305 303 303 302 302 301 299 298 298 297 297 297 298 299 299 299 299 300 301 299 298 300 300 299 298 300 296 295 294 293 293 294 294 296 295 293
300 300 300 300 301 301 301 301 301 300 299 298 298 297 296 296 296 295 295 296 295 295 295 297 297 297 297 297 297 297 296 296 295 295 291 293 291 292 292 292 292 288 290
299 299 298 298 298 298 298 298 298 297 296 295 295 295 294 293 293 292 293 292 291 291 291 292 295 295 296 295 295 295 295 294 294 293 292 290 290 290 290 287 288 285 284
298 297 298 297 297 297 296 296 295 295 295 294 293 292 292 292 293 291 292 291 292 294 293 293 294 295 296 296 294 293 294 292 291 290 289 289 289 288 286 284 284 282 282
297 297 297 296 296 295 294 293 293 293 292 292 291 291 291 293 297 298 297 294 295 294 292 292 293 294 295 296 295 294 293 291 289 289 288 288 287 285 283 282 281 278 279
296 296 296 295 294 293 293 292 291 290 290 289 289 290 290 290 297 298 298 294 293 291 290 288 288 290 287 285 290 291 292 293 291 289 287 283 282 283 281 279 280 279 278
295 296 295 294 293 292 291 290 289 288 288 288 288 289 289 290 296 298 297 289 287 287 287 286 286 284 282 283 282 282 282 283 283 284 283 281 282 282 282 282 281 279 280
295 295 295 294 292 291 290 289 288 287 287 287 287 287 287 287 295 297 291 287 286 286 286 285 284 281 285 288 283 282 282 283 288 289 289 289 289 288 285 281 278 277 277
294 295 295 294 293 291 290 288 288 287 287 286 287 286 290 288 295 295 292 287 286 285 285 284 288 284 288 289 282 281 280 281 281 281 280 281 280 283 287 280 279 273 275
294 294 293 293 292 291 289 287 287 287 287 288 288 287 288 290 290 295 294 283 283 283 282 281 282 291 290 290 287 280 281 281 283 280 278 277 278 279 279 279 279 275 273
293 292 292 291 292 290 288 287 286 286 288 288 288 287 288 289 292 293 293 289 285 280 280 280 281 289 291 290 288 286 286 284 280 278 277 276 277 278 279 279 280 279 279
291 290 290 289 289 288 287 286 286 286 288 287 286 286 286 286 287 293 293 292 289 282 279 282 285 287 289 288 289 288 288 281 279 277 277 277 277 278 279 279 279 280 279
290 289 288 287 287 286 286 287 288 288 287 287 286 286 286 285 285 285 286 287 290 287 285 281 285 286 287 285 284 284 282 280 279 277 277 278 279 278 278 279 279 278 277
289 288 287 287 288 287 287 288 289 290 290 287 287 287 286 284 285 287 286 284 282 284 282 280 280 280 281 280 280 279 279 280 280 278 277 277 278 279 279 278 278 276 274
291 291 290 290 290 289 288 288 293 292 293 293 292 290 288 291 291 291 290 289 290 290 283 279 278 279 279 280 280 280 279 280 278 278 277 277 277 277 276 276 276 274 274
292 292 291 290 290 288 287 287 286 288 293 293 293 293 293 289 292 291 291 290 290 290 285 283 280 279 280 280 279 278 277 278 277 277 276 275 275 275 278 276 276 276 274
291 294 291 290 290 290 288 287 287 286 286 287 292 292 293 293 292 291 291 290 285 287 284 283 281 281 280 279 279 279 279 277 277 277 276 274 273 273 272 273 273 272 272
288 290 292 292 290 290 288 287 287 286 286 286 285 289 292 293 293 292 291 286 284 282 282 282 281 281 280 280 280 279 278 278 276 274 274 275 273 272 273 273 272 277 275
287 289 291 290 289 288 287 287 286 286 286 286 285 286 287 290 288 287 286 284 283 283 282 282 282 281 281 279 279 280 279 279 279 276 276 275 272 271 273 273 273 272 273
286 287 289 290 288 288 287 286 286 286 286 286 286 287 289 287 286 286 285 284 284 283 282 281 281 282 282 282 281 281 280 280 279 279 277 275 274 273 274 275 275 275 275
285 285 286 287 288 287 287 287 287 286 286 286 286 286 290 288 286 286 285 285 286 286 285 283 282 282 283 283 282 282 281 279 278 279 277 276 275 274 275 275 275 275 276
284 284 284 285 285 288 288 288 287 286 286 286 286 286 286 287 286 285 285 286 286 285 285 284 284 285 285 284 284 282 279 279 279 279 277 276 275 276 276 276 276 276 276
283 283 284 284 284 285 286 287 287 287 286 286 286 286 285 286 286 286 285 285 286 286 286 285 285 284 284 283 284 284 283 283 282 281 280 277 276 278 276 276 276 276 276
283 283 282 282 283 283 285 286 287 286 286 286 285 285 285 285 285 285 285 285 284 284 283 283 284 284 284 283 281 280 281 283 279 278 278 277 276 276 277 276 276 276 276
281 281 281 282 283 284 284 285 285 285 285 285 284 284 284 284 284 284 283 283 283 283 282 282 280 280 280 279 279 279 282 284 283 283 277 276 275 276 276 276 275 275 275

GFSGL_sfc_thetae_078.txt.gz
Theta_e
302 303 303 304 305 307 307 307 306 307 308 306 305 303 303 302 301 301 300 300 300 300 299 299 300 300 300 301 304 303 302 303 303 297 298 298 297 298 297 298 298 297 297
300 300 301 302 303 303 303 303 303 303 303 303 302 301 300 299 298 297 296 297 298 298 298 298 298 300 298 298 298 298 299 299 300 297 295 294 294 294 295 295 296 295 294
299 300 300 300 300 300 301 301 301 300 299 299 299 298 297 296 295 294 294 294 294 293 293 294 295 295 294 295 297 298 297 296 296 296 292 293 292 292 292 293 292 291 289
297 298 298 298 299 298 298 298 298 297 296 296 295 295 294 293 293 292 292 291 290 291 291 291 293 296 296 296 296 296 296 294 294 294 292 291 291 291 291 288 289 287 284
297 296 297 297 296 296 296 296 296 295 294 294 293 292 292 292 293 291 292 291 291 292 294 294 294 295 297 296 295 294 294 293 291 290 290 290 289 288 288 287 286 283 281
295 296 297 296 296 295 295 294 293 293 292 291 291 291 291 293 297 298 295 291 293 294 293 292 294 295 295 296 295 295 294 292 290 289 289 289 289 287 285 284 280 277 278
294 295 296 295 295 294 293 292 291 290 290 290 289 290 290 290 297 298 298 292 290 292 291 289 289 291 288 288 291 291 292 292 292 290 288 287 286 285 282 279 280 280 279
294 295 295 295 294 293 291 291 289 288 289 288 288 289 289 290 296 297 297 290 287 287 288 287 287 286 285 285 282 282 281 283 283 284 284 283 283 283 283 282 281 280 280
293 293 294 294 293 291 290 289 288 287 287 287 287 287 287 287 295 297 292 287 287 287 287 287 287 285 287 289 282 281 281 282 288 290 290 289 289 288 285 281 280 277 277
293 294 294 294 293 292 291 289 287 287 287 286 287 286 289 285 294 296 292 288 286 287 286 285 289 284 287 290 280 280 279 280 281 281 280 281 282 285 288 281 281 278 277
293 293 293 293 293 293 289 287 287 287 286 285 287 288 289 288 288 296 296 287 287 285 285 284 284 290 289 291 286 279 280 281 283 279 278 278 278 279 279 280 280 277 273
292 291 291 291 291 290 288 287 286 287 288 288 289 288 289 290 293 294 296 291 288 283 282 282 281 288 291 291 288 286 286 284 280 278 277 276 276 277 278 280 280 279 279
290 290 289 289 288 288 287 289 287 287 288 288 287 287 287 287 288 294 294 294 290 281 280 282 285 288 290 290 290 289 288 279 278 277 277 277 278 278 278 278 279 279 279
292 292 289 287 287 287 289 289 289 288 288 287 287 286 287 286 286 287 289 291 293 288 286 282 284 285 287 286 285 285 282 281 279 277 276 277 278 276 278 279 278 278 276
292 292 290 289 288 286 285 288 289 290 291 288 288 288 286 286 286 289 288 286 286 285 282 280 280 280 280 280 280 280 279 280 280 278 276 276 278 279 279 278 278 275 272
289 291 292 291 290 289 288 288 293 293 294 294 293 290 288 291 292 292 292 291 291 290 282 280 279 279 280 280 280 279 279 280 278 279 276 276 277 277 277 276 275 274 273
286 287 290 291 290 289 288 287 287 289 294 293 294 293 293 290 292 293 292 292 292 290 284 282 280 279 280 280 279 278 277 278 278 276 276 275 275 274 277 275 273 273 272
286 288 288 291 291 290 288 288 288 287 287 288 293 293 294 294 292 292 293 292 287 289 286 284 283 281 280 280 279 278 278 277 277 277 275 273 273 273 270 272 273 270 269
286 286 287 288 291 291 289 288 288 287 287 287 286 290 293 294 294 294 293 288 285 284 285 284 283 282 282 281 280 279 279 278 277 275 275 274 273 269 271 272 271 277 274
286 287 288 287 288 288 288 287 287 286 286 286 286 286 286 290 288 289 289 287 285 285 284 284 283 282 282 281 280 280 278 279 278 276 276 275 274 272 270 271 272 271 271
285 285 286 286 286 287 288 287 287 286 286 286 286 287 290 287 287 287 287 286 285 284 284 283 282 281 281 280 280 279 279 279 279 279 277 276 274 271 273 274 273 273 271
284 284 284 284 285 285 286 287 287 286 286 286 286 286 291 289 287 287 287 286 285 284 284 283 283 283 283 282 281 281 280 280 280 279 279 278 278 276 275 275 274 274 272
283 282 282 283 284 285 285 286 287 286 286 286 286 286 286 287 287 286 287 287 286 285 284 284 283 283 283 283 283 283 282 280 280 281 279 278 277 276 276 275 274 273 273
281 281 282 283 284 284 284 284 286 287 287 286 286 286 286 286 287 286 286 286 286 286 286 286 285 285 285 285 285 284 283 283 282 281 281 279 277 278 276 275 275 275 275
281 281 282 282 281 281 283 283 284 286 286 286 286 286 286 286 285 286 286 286 285 285 285 285 286 285 285 284 283 283 284 285 283 282 281 279 278 278 276 276 275 276 275
282 281 280 281 280 281 282 283 283 285 285 285 285 285 285 285 285 285 285 285 284 284 284 284 283 283 282 282 281 282 284 285 284 283 279 277 276 276 276 275 275 276 275

GFSGL_sfc_thetae_081.txt.gz
Theta_e
304 305 306 307 307 310 313 312 313 313 313 311 310 308 307 306 306 306 305 304 304 305 305 305 305 306 307 307 308 308 307 307 303 301 301 300 300 300 299 299 299 298 298
302 304 305 305 307 308 309 309 309 309 310 310 308 306 304 303 303 303 302 302 303 303 302 303 303 303 304 305 305 304 303 304 303 301 298 296 296 297 296 296 296 296 295
301 301 303 304 305 305 305 305 305 305 305 304 304 302 301 300 298 298 298 298 298 298 298 299 300 301 301 301 302 302 302 300 300 300 296 296 295 294 294 294 293 292 290
298 300 301 302 303 303 302 302 302 301 300 300 300 299 298 297 297 297 296 296 296 296 296 297 297 299 300 299 298 299 298 297 297 297 295 293 293 293 293 290 290 290 288
297 298 299 300 301 301 301 300 300 299 299 298 297 297 297 296 296 296 296 296 296 296 296 297 297 297 297 298 297 297 296 295 295 294 293 292 291 290 289 290 289 287 286
296 296 298 299 300 299 299 298 298 297 297 296 296 296 296 295 298 298 297 296 296 296 296 296 296 297 297 297 296 296 295 294 292 292 292 291 291 291 288 288 286 285 288
295 296 297 297 298 298 298 297 296 296 295 295 295 295 295 296 299 300 299 296 295 295 294 293 292 292 291 292 293 293 293 292 293 293 291 291 289 289 287 284 286 287 284
294 295 296 297 297 297 296 296 295 294 294 294 294 294 294 294 298 299 299 296 292 289 290 290 290 288 288 288 286 286 286 288 287 288 290 289 289 289 289 289 288 285 284
294 294 295 296 296 295 295 294 294 293 292 292 292 292 292 293 297 298 295 289 290 289 291 291 290 288 290 290 286 285 285 286 290 290 289 289 289 288 287 286 284 282 281
293 294 294 295 295 295 295 293 292 292 291 291 289 290 292 291 295 297 295 291 289 289 289 288 291 288 291 292 285 285 283 284 285 285 285 284 286 289 287 286 285 283 282
293 293 293 294 294 294 293 292 291 291 290 289 289 288 290 291 292 296 297 291 290 288 288 287 287 292 290 290 288 284 284 285 285 283 282 282 282 284 284 283 284 284 282
292 293 292 293 293 293 292 291 290 290 290 289 289 290 291 292 293 295 297 294 292 288 288 288 287 290 291 291 290 286 286 286 284 282 281 280 280 281 282 283 283 283 283
290 291 293 292 291 291 291 291 290 290 290 289 289 289 289 289 291 295 296 297 293 287 287 287 288 289 290 291 291 290 288 284 283 281 280 280 281 282 282 282 282 282 282
289 290 291 292 292 290 290 291 290 289 289 289 288 288 289 288 288 289 292 294 294 289 286 286 287 287 289 289 289 289 285 284 282 281 280 281 280 280 281 282 281 282 282
287 287 289 291 291 291 288 290 290 292 292 290 289 290 288 287 288 291 290 289 290 289 285 284 284 284 284 285 285 284 284 285 284 282 281 280 279 280 280 282 282 281 280
285 286 286 288 290 291 290 289 293 293 294 295 294 292 290 293 293 293 293 292 293 292 283 282 281 282 283 283 283 282 282 282 282 283 282 281 280 280 280 280 280 280 279
284 284 285 286 286 289 289 288 287 290 294 294 294 294 293 291 293 293 293 293 293 293 284 283 283 282 282 282 283 283 282 282 282 282 282 281 280 280 281 280 280 279 279
284 285 285 286 287 287 289 288 288 288 287 289 294 294 294 294 292 293 293 293 289 291 287 285 283 283 282 282 282 282 282 282 281 281 280 280 280 280 278 279 279 278 278
283 283 285 286 286 288 288 289 288 288 288 288 286 291 294 295 294 293 293 289 287 286 286 286 285 285 284 283 283 283 283 282 282 281 280 279 279 278 278 279 279 279 278
283 284 286 284 284 285 286 287 287 287 287 286 286 288 287 291 289 290 290 289 287 286 286 286 286 286 285 284 284 283 283 283 282 281 281 280 280 278 278 277 277 277 278
283 284 286 284 283 283 285 285 287 287 286 286 286 288 290 288 288 288 288 288 287 286 286 286 286 285 285 285 284 283 282 282 283 282 281 280 280 278 278 278 278 277 277
283 284 284 283 283 283 284 285 285 286 286 286 286 287 291 289 287 287 288 288 288 288 287 286 286 285 285 284 283 283 282 282 283 282 282 281 280 279 278 278 277 277 277
283 283 282 281 281 283 284 284 285 284 286 286 286 286 286 288 287 287 287 288 287 286 287 286 286 285 285 285 285 284 283 283 284 284 282 281 281 280 280 279 278 277 277
283 282 281 281 282 283 284 283 284 285 285 286 286 286 286 286 287 287 287 287 287 286 285 285 285 285 284 284 285 285 285 286 285 284 283 282 281 281 280 279 278 278 277
282 281 281 281 281 282 281 281 282 283 284 285 286 286 286 286 286 287 287 286 286 286 286 286 286 285 285 285 285 285 285 285 284 283 283 282 281 280 279 279 278 278 277
283 282 281 280 280 280 281 281 282 283 283 285 286 286 286 286 286 286 286 286 285 285 285 285 285 285 285 285 285 285 286 286 285 285 283 282 280 280 279 278 277 278 277

GFSGL_sfc_thetae_084.txt.gz
Theta_e
309 310 310 311 311 313 316 319 320 321 322 322 321 317 316 315 314 313 311 309 309 310 309 311 310 311 311 312 312 310 309 310 305 306 305 304 305 304 301 301 301 300 300
307 309 309 310 311 311 312 313 315 318 318 317 316 314 312 311 310 308 307 307 307 306 307 308 308 307 308 310 309 307 308 309 306 302 302 300 300 300 299 298 297 296 295
304 306 308 309 310 310 310 310 310 311 313 314 313 311 309 307 307 306 305 304 305 306 305 305 305 306 306 306 307 306 306 304 305 303 302 301 299 297 296 296 294 293 291
303 304 304 306 308 309 309 309 308 309 309 309 309 307 305 305 304 304 304 303 303 303 302 303 303 304 305 306 304 304 304 303 302 301 301 297 296 295 295 293 291 291 289
300 302 303 304 306 307 308 308 307 307 306 306 305 304 303 302 301 302 302 302 301 301 301 301 302 301 299 302 302 302 301 299 299 297 296 294 293 292 291 292 291 289 288
298 300 302 303 304 305 306 306 306 305 304 304 303 303 302 300 300 301 302 301 301 300 299 300 300 297 298 299 298 297 299 298 296 294 294 293 294 293 291 290 288 287 288
298 300 300 301 301 303 304 304 304 304 303 302 302 302 300 301 300 300 300 300 300 299 299 298 298 297 296 298 296 296 295 294 295 296 293 293 293 293 291 288 287 288 290
298 299 300 299 299 301 302 302 303 303 302 301 301 301 301 300 300 300 299 300 298 294 293 294 296 294 293 293 291 290 291 292 292 292 295 295 293 292 292 291 291 292 289
296 297 298 298 298 299 300 301 303 301 301 300 301 300 299 299 299 300 299 297 294 292 292 296 297 295 293 293 289 288 289 289 290 290 290 290 290 291 292 291 289 288 286
294 295 297 298 298 298 299 300 301 300 299 299 296 298 298 298 298 299 298 295 292 291 295 295 294 293 293 293 289 290 287 288 289 290 289 290 291 290 288 290 290 288 287
293 294 295 297 297 298 298 299 298 298 297 296 294 293 296 297 297 298 298 294 293 291 291 292 293 293 293 294 292 289 287 288 287 287 286 286 287 289 288 287 288 288 286
292 293 294 296 296 296 297 298 295 296 295 294 293 292 293 295 296 296 298 296 295 291 291 293 293 293 292 291 292 289 287 287 287 285 284 284 284 284 285 286 285 286 286
290 290 291 292 294 296 295 296 293 294 294 293 291 292 293 294 295 296 297 298 296 293 294 293 292 292 293 291 292 290 288 287 285 284 283 284 285 286 285 284 285 284 285
289 289 290 290 291 294 294 293 292 291 291 291 289 289 291 290 290 291 294 296 297 294 290 290 291 291 291 292 291 291 288 287 285 285 284 285 284 283 283 285 284 284 284
288 288 288 288 288 289 291 292 291 293 293 291 290 291 290 288 290 292 291 292 293 292 288 286 286 287 287 288 289 290 289 287 285 285 284 282 281 282 282 284 284 284 283
287 287 288 287 288 287 287 289 294 294 294 295 295 293 292 295 294 294 294 294 294 293 285 283 283 284 284 285 286 287 287 287 286 286 285 284 283 282 282 283 284 283 283
286 287 287 287 287 287 286 286 287 291 294 294 294 295 295 292 294 294 294 294 294 294 285 284 283 283 284 285 286 287 286 286 286 286 286 285 284 284 283 282 282 282 282
286 286 285 286 286 286 285 286 287 287 287 289 294 294 295 294 293 294 294 294 290 292 288 285 285 284 285 286 286 286 286 286 284 284 285 285 284 284 282 282 282 281 282
284 284 284 285 286 286 285 285 286 286 287 288 288 290 295 295 295 294 294 290 288 288 288 286 286 286 287 287 286 287 286 286 285 284 284 284 283 283 283 283 283 282 281
285 285 284 285 285 284 284 283 283 284 286 287 287 287 289 292 290 290 290 290 288 288 288 287 287 286 287 287 287 286 286 285 285 284 284 284 284 283 282 282 282 281 281
284 283 284 285 285 284 283 283 283 284 284 286 287 287 290 287 287 289 289 289 289 288 288 288 287 287 288 288 287 286 285 286 286 285 285 284 284 282 282 283 282 281 281
283 282 282 283 284 283 282 282 283 284 284 285 286 287 290 287 285 287 288 289 289 289 289 288 288 287 287 287 287 286 285 285 285 285 285 284 284 283 283 282 281 282 281
282 283 283 284 284 283 282 283 283 284 284 285 285 286 285 285 286 286 287 289 289 289 289 288 288 287 288 288 287 287 285 285 285 286 285 284 284 283 283 282 281 281 280
283 283 283 282 282 282 283 283 284 284 284 284 285 286 285 285 285 286 287 288 288 288 288 287 287 287 287 287 287 287 287 287 287 286 286 285 284 284 283 282 282 282 281
283 283 283 283 283 282 283 283 283 283 283 283 285 285 286 286 286 287 287 287 288 287 286 286 286 287 286 286 286 286 286 286 286 286 286 285 284 284 283 283 282 282 281
284 283 282 282 281 281 281 281 282 282 283 284 285 285 286 285 286 286 287 286 286 286 286 286 286 286 286 285 285 286 287 287 286 286 285 285 284 283 283 282 281 281 280

GFSGL_sfc_thetae_087.txt.gz
Theta_e
308 310 311 311 312 313 316 319 322 325 326 325 325 325 322 320 321 320 317 315 314 312 312 312 311 312 312 312 312 312 311 310 306 308 307 306 306 305 302 302 302 300 300
305 307 309 311 312 312 312 314 316 318 320 322 322 320 318 317 318 317 314 312 311 309 309 310 310 309 310 310 310 309 308 308 306 304 304 301 302 302 300 298 298 296 296
305 305 306 308 310 310 311 311 312 313 316 317 317 315 313 313 313 312 309 308 308 308 308 307 307 307 306 307 307 307 306 306 306 304 300 301 300 298 297 297 295 294 292
301 303 304 304 305 308 310 310 309 310 311 313 314 313 310 308 308 306 306 306 306 305 305 305 305 305 305 306 305 305 305 304 304 302 301 298 298 297 296 293 292 293 290
300 300 302 303 305 305 308 309 309 308 308 309 309 307 306 304 303 303 304 303 303 302 302 302 303 302 301 303 304 304 303 301 300 299 297 296 295 292 292 293 291 290 289
299 300 301 302 303 304 305 307 308 307 306 306 305 305 304 302 302 303 303 302 302 301 300 301 300 298 298 299 299 299 301 299 297 295 294 293 294 293 292 290 289 287 287
298 300 300 301 301 302 303 304 305 306 306 305 305 304 303 303 301 302 302 302 301 300 299 299 298 298 299 298 298 297 297 296 295 297 294 293 292 293 291 288 288 288 288
297 298 298 299 299 300 301 302 303 305 305 305 304 303 303 302 301 301 301 300 299 297 296 296 297 295 295 296 294 292 291 292 292 293 295 295 295 293 292 291 289 289 287
296 295 296 297 297 299 299 300 302 303 303 303 303 302 301 301 300 301 299 297 293 292 293 294 296 296 296 296 292 289 290 290 290 290 291 292 292 294 294 290 288 286 284
292 293 295 296 296 296 297 298 298 300 301 302 300 300 301 300 299 300 300 297 293 292 294 295 297 297 296 295 291 289 287 287 287 288 288 289 290 290 290 288 288 285 285
292 293 293 294 295 296 296 297 297 297 298 298 298 297 298 299 299 300 300 297 293 292 293 293 294 295 295 296 293 290 289 288 288 286 285 285 286 286 285 284 286 286 283
291 291 291 292 293 294 295 296 296 295 295 296 296 295 295 297 299 299 300 299 297 292 291 292 293 295 294 295 294 292 290 289 286 284 283 282 282 283 283 283 283 283 283
289 289 290 290 291 292 292 293 293 294 293 294 294 294 293 294 296 298 299 299 298 293 293 294 295 294 294 293 293 292 289 285 284 283 282 282 283 284 283 282 282 282 282
288 288 289 289 289 289 290 292 291 292 291 291 290 290 292 292 293 293 295 297 298 295 294 292 292 292 293 291 290 290 286 285 284 283 282 283 283 281 281 282 281 281 280
287 287 288 289 288 288 289 288 289 290 292 291 291 291 290 289 290 293 293 293 294 294 290 288 288 288 288 288 288 288 287 286 284 283 282 281 281 281 281 282 281 280 279
286 287 288 288 288 288 288 288 290 290 291 294 294 294 293 295 296 295 295 295 295 296 287 285 285 287 286 286 287 287 287 287 285 284 283 281 280 280 281 281 281 279 278
286 287 287 287 287 286 286 285 284 287 290 290 293 294 295 295 294 295 295 295 295 296 286 285 284 283 284 284 285 287 286 287 286 285 284 283 281 281 281 280 280 280 279
287 287 285 284 284 285 285 285 284 284 283 285 290 292 294 295 295 294 295 295 291 293 287 286 284 284 284 284 284 285 286 285 285 285 284 284 282 281 280 280 280 278 278
286 286 285 284 284 284 285 285 284 283 283 284 285 288 291 293 294 295 295 291 289 288 289 287 287 286 284 284 285 286 286 285 284 283 283 283 283 282 281 281 281 282 281
286 287 286 284 284 284 285 284 283 282 282 283 284 285 287 288 286 288 290 290 289 289 289 289 287 287 286 286 286 286 285 285 284 283 283 283 282 282 281 280 281 280 280
286 284 285 283 283 283 284 284 283 282 282 282 283 285 288 287 286 286 288 289 289 289 289 289 288 287 287 287 287 286 285 284 284 284 284 283 283 281 282 281 281 281 281
284 283 282 282 283 283 283 284 282 281 282 282 284 284 287 287 286 285 286 288 289 290 289 288 287 287 287 287 287 286 285 284 284 285 284 283 283 282 281 281 281 280 280
283 283 282 283 283 284 283 283 282 282 282 283 284 284 284 284 286 286 286 287 289 289 288 287 288 287 288 287 287 287 285 285 285 285 285 283 283 282 282 281 281 280 280
283 282 282 282 283 282 282 282 283 283 283 284 283 283 284 284 286 286 285 285 286 286 286 287 288 287 287 287 287 287 287 286 286 286 285 284 283 283 283 282 281 281 280
283 283 283 283 283 282 282 282 282 282 282 282 282 282 283 284 286 286 285 285 285 285 285 286 287 287 287 286 286 286 286 287 286 286 285 285 284 284 283 283 282 281 281
283 283 283 282 281 281 281 281 281 281 282 282 282 283 284 284 285 286 285 285 285 285 285 285 286 286 286 286 286 286 287 287 286 287 286 285 284 284 283 282 282 281 280

GFSGL_sfc_thetae_090.txt.gz
Theta_e
303 306 307 308 309 309 310 313 317 320 321 323 324 323 323 325 325 322 320 317 317 314 312 312 311 310 309 309 309 308 307 306 303 302 302 301 302 301 301 301 302 300 301
302 302 304 306 307 307 308 309 310 311 315 317 320 322 321 321 321 320 317 316 315 312 310 308 308 310 308 308 307 306 305 305 305 302 302 300 300 299 299 298 298 297 297
299 301 301 301 302 304 306 307 307 308 309 312 315 316 316 315 316 317 315 312 311 308 307 307 306 306 304 304 304 304 303 304 304 301 297 300 296 297 296 296 295 294 293
297 298 298 299 300 301 303 305 306 306 306 307 310 312 311 310 309 309 307 306 305 304 304 305 305 304 303 303 303 302 302 300 301 301 299 297 296 296 296 293 292 293 291
296 296 297 299 299 300 301 302 305 304 304 305 306 305 305 305 305 304 304 304 303 303 304 303 303 303 303 303 302 301 300 300 298 296 296 295 294 291 291 292 291 290 290
295 296 298 298 298 298 299 300 301 303 302 302 302 302 301 302 304 304 304 302 302 301 300 300 299 299 300 302 301 302 301 299 297 295 293 293 293 293 292 290 289 287 287
295 295 296 297 297 297 298 298 299 299 301 300 300 300 300 299 303 304 303 301 300 299 298 298 297 298 297 295 299 299 298 299 298 296 291 291 291 292 291 288 288 287 288
293 294 294 294 294 295 296 296 296 297 298 299 299 299 298 299 302 302 302 297 296 294 293 293 293 292 293 294 293 289 289 290 291 293 293 292 292 293 292 290 289 288 286
291 291 292 293 292 293 294 295 297 297 298 299 299 299 297 296 301 301 299 292 291 292 293 294 294 292 296 298 292 287 288 288 291 291 292 294 296 295 293 290 287 286 284
289 289 290 291 291 292 294 294 295 296 296 298 298 298 298 297 300 301 298 294 292 292 293 293 296 294 297 298 288 287 285 286 286 285 285 288 290 290 294 286 284 285 282
288 289 289 289 289 289 290 291 294 295 295 296 296 296 297 298 298 301 301 295 293 292 291 291 293 298 298 296 294 288 286 287 288 284 283 283 283 283 282 282 283 281 276
287 287 286 286 288 288 286 288 289 293 293 294 295 295 297 297 299 300 301 299 296 291 290 291 292 297 296 296 295 293 293 291 283 283 281 280 280 279 278 279 282 280 280
285 284 285 286 286 286 284 284 286 289 289 290 291 292 294 294 295 299 300 301 299 293 292 292 293 296 296 295 296 294 292 285 283 281 280 278 278 279 279 277 278 280 279
283 283 284 283 284 284 285 285 284 284 286 288 288 289 291 292 292 293 296 298 299 296 294 293 294 294 294 293 293 293 286 284 282 281 280 280 279 277 277 277 275 276 274
283 283 283 284 283 283 284 284 284 284 286 286 286 289 290 289 291 294 294 294 296 295 292 289 289 288 288 288 288 287 285 284 282 281 280 280 280 279 279 277 277 275 274
283 283 284 284 283 283 283 283 288 289 289 289 289 289 290 294 295 296 295 296 297 297 289 288 287 287 287 288 286 286 286 285 283 281 280 280 278 278 278 277 276 274 276
282 283 283 284 282 281 281 281 281 284 288 288 288 289 290 291 293 295 295 295 296 296 290 287 287 287 287 287 287 286 286 286 285 284 281 279 277 277 280 279 276 276 277
282 286 283 281 281 283 283 282 283 282 282 282 286 287 288 289 292 293 294 295 291 293 290 287 286 286 286 286 286 286 286 285 284 284 282 281 279 278 276 278 279 277 277
282 281 282 285 284 284 283 281 283 283 282 282 282 284 287 288 290 292 293 290 287 288 290 287 287 286 285 285 285 286 286 285 285 284 284 282 280 280 280 279 278 281 280
282 286 286 285 284 283 282 281 281 282 282 281 281 282 283 284 284 285 287 288 287 287 289 288 287 287 285 285 285 285 285 286 285 284 283 282 282 282 281 279 279 280 281
282 283 286 284 282 282 280 280 280 282 281 281 281 283 286 284 283 285 285 286 287 288 288 289 288 287 286 285 285 285 285 285 284 283 283 282 282 281 281 281 281 280 280
283 284 283 282 282 281 281 281 281 282 281 281 281 282 286 284 283 284 285 286 287 288 289 289 288 287 286 285 286 285 285 285 285 284 283 282 282 282 282 281 280 280 280
283 283 282 282 282 283 281 281 280 280 280 280 280 281 283 283 283 283 284 285 287 287 289 289 286 285 286 286 287 286 285 285 285 285 283 283 282 282 281 281 280 280 280
284 282 281 281 281 281 281 280 281 282 281 281 282 281 281 282 282 283 284 286 286 286 288 286 286 286 286 286 286 286 286 286 286 285 285 284 283 283 282 281 281 281 280
281 281 280 280 281 281 280 279 279 280 280 280 280 281 281 282 282 283 285 286 286 285 285 285 285 285 285 285 285 285 286 287 286 286 285 285 283 283 282 282 281 281 281
280 279 280 281 279 278 278 278 278 278 279 280 281 281 281 282 283 284 284 285 285 285 285 285 285 285 285 285 286 286 288 288 286 287 286 285 283 283 283 283 282 281 281

GFSGL_sfc_thetae_093.txt.gz
Theta_e
302 303 305 306 307 309 309 311 315 318 319 320 322 323 323 323 323 323 322 322 320 320 318 318 316 314 313 312 312 310 308 307 303 301 302 301 300 300 300 302 301 299 302
298 301 301 302 302 304 305 306 307 307 310 313 315 318 321 322 323 323 322 321 319 317 315 315 314 312 311 311 309 307 307 307 304 301 299 298 299 301 300 299 299 298 298
297 297 298 299 299 300 301 304 305 305 306 308 311 312 315 317 317 319 320 318 317 317 315 314 313 311 309 307 307 307 306 305 301 299 297 298 298 297 297 297 296 295 294
296 296 296 297 298 299 300 301 302 304 303 304 306 308 309 310 312 314 313 311 312 311 310 311 310 309 307 305 305 304 302 300 299 299 298 297 297 296 296 294 293 293 292
294 295 296 297 297 298 298 299 300 301 302 303 303 304 304 304 305 306 307 307 306 305 307 307 307 306 304 306 304 302 301 299 296 293 294 295 294 292 293 293 292 290 291
293 294 295 295 296 296 296 297 297 298 299 300 300 301 301 302 303 305 305 304 304 304 303 303 304 302 303 305 306 305 304 299 296 293 294 294 294 293 290 289 289 287 288
292 293 293 293 293 294 295 295 295 295 296 296 297 298 298 299 302 304 304 302 301 301 300 300 299 300 300 300 303 303 303 303 301 296 294 295 293 292 292 289 288 288 288
290 290 291 291 291 292 292 293 293 295 296 296 296 299 299 298 302 303 303 297 297 297 296 297 296 295 295 296 294 292 292 293 295 295 294 293 292 292 291 292 290 288 285
288 288 289 289 289 290 290 290 292 294 295 296 297 298 299 299 300 302 300 293 292 291 292 295 296 295 297 298 292 288 288 288 294 294 294 296 297 297 294 290 286 286 284
287 288 288 288 288 288 287 288 289 291 293 295 296 297 298 298 300 301 300 294 292 292 294 293 297 293 298 299 291 288 286 285 285 285 287 290 294 294 296 288 286 284 284
287 287 287 287 286 286 286 286 287 287 289 290 292 293 296 297 298 300 301 296 294 293 293 292 293 298 298 299 295 289 288 287 288 284 283 283 283 284 283 283 284 281 282
285 285 284 284 285 286 284 284 284 285 286 286 289 290 293 296 299 299 300 301 298 294 292 293 293 296 298 298 297 293 293 290 285 283 282 282 281 280 279 280 282 281 280
283 283 283 283 283 284 282 282 282 284 284 284 285 287 289 291 294 297 298 300 301 295 294 294 294 296 297 297 297 294 294 286 285 283 282 281 280 280 279 279 279 280 279
281 281 282 281 282 282 283 283 282 282 282 283 283 283 284 287 290 292 293 295 298 299 295 293 294 295 296 295 294 294 289 286 285 283 282 280 280 279 278 278 276 275 273
281 281 282 282 281 281 282 282 282 283 283 284 285 285 284 284 287 292 293 293 293 295 292 290 290 290 290 290 290 291 287 285 284 283 280 280 280 281 280 278 277 274 272
281 281 282 282 282 282 281 281 286 287 288 289 289 287 286 288 290 291 292 293 296 295 292 289 289 289 288 288 288 288 287 286 284 283 280 280 280 280 279 278 276 273 273
280 281 282 284 282 281 280 278 279 282 286 287 288 287 287 287 288 289 290 293 295 296 290 288 288 286 286 287 287 287 286 286 285 283 283 281 280 279 281 279 278 276 273
280 284 282 281 280 280 280 280 281 280 279 281 285 286 286 287 288 288 290 291 289 292 290 289 288 287 287 286 286 286 286 285 284 284 282 281 280 279 278 278 278 278 272
280 281 281 280 281 285 284 282 282 280 280 281 282 283 285 286 286 287 288 286 286 287 288 289 288 287 286 286 286 286 286 285 285 284 283 281 280 279 278 278 278 281 279
281 283 284 283 283 283 282 281 281 279 279 280 281 281 282 283 282 283 285 285 285 286 287 288 288 287 286 285 285 285 285 285 285 284 284 283 281 280 279 279 278 279 279
280 281 284 284 284 282 282 281 280 280 279 280 281 282 285 282 282 283 283 284 284 286 287 287 288 287 286 285 285 285 285 285 285 285 284 284 282 281 281 280 279 279 279
281 281 281 282 283 282 281 281 281 281 281 280 280 281 284 282 282 283 283 283 285 286 287 287 288 288 287 286 285 285 285 285 285 285 284 284 283 282 281 280 280 279 279
281 281 281 282 282 282 281 281 281 280 279 279 279 280 280 281 282 281 282 283 284 285 287 287 288 288 288 286 286 286 285 285 286 285 284 283 282 282 281 280 280 280 279
280 279 279 280 280 280 280 280 281 281 281 280 281 281 281 280 281 281 282 283 284 285 286 286 287 287 286 286 286 286 287 287 287 285 285 284 282 283 281 281 280 280 280
280 279 279 279 279 280 281 280 279 278 278 279 279 280 281 281 281 281 282 283 284 284 285 286 286 286 286 285 285 286 286 287 286 285 285 284 283 282 281 281 281 280 280
279 280 279 280 279 279 278 278 277 277 278 278 279 279 279 279 280 282 282 283 283 284 284 285 285 285 285 285 285 286 287 287 286 287 285 284 283 282 281 281 280 280 280

GFSGL_sfc_thetae_096.txt.gz
Theta_e
301 302 302 303 305 307 308 308 309 312 315 317 319 321 322 322 322 322 322 322 320 320 319 318 318 317 317 316 314 311 309 307 304 301 302 301 301 301 301 301 301 300 301
297 299 299 300 300 301 301 303 305 305 306 307 311 314 318 321 322 321 321 321 320 319 319 318 317 315 316 315 313 311 311 308 305 301 300 300 300 299 299 300 300 299 297
296 296 296 297 298 298 299 300 301 302 303 304 306 308 310 312 316 319 321 321 320 320 319 317 317 314 314 313 312 310 308 306 303 302 298 298 298 298 297 298 297 295 295
295 295 295 295 296 297 297 298 299 300 300 301 302 304 305 306 308 310 314 314 315 317 317 316 316 314 315 312 310 309 305 304 301 301 298 297 295 296 296 294 293 294 294
293 293 293 294 294 295 296 296 297 297 298 299 300 300 301 302 303 304 307 309 310 310 309 310 311 309 307 310 309 306 304 302 298 295 294 295 294 293 294 293 293 292 293
291 291 292 292 293 293 293 294 294 295 295 296 296 297 298 300 303 304 304 304 305 306 306 306 307 303 305 307 307 305 306 303 299 295 294 295 295 292 291 291 290 288 288
289 289 289 290 290 290 291 292 292 291 292 292 294 295 296 297 302 303 303 301 302 302 302 301 301 302 302 303 306 306 305 305 305 302 298 295 292 292 291 289 286 286 288
287 288 288 288 288 288 289 288 289 290 291 292 293 294 296 298 301 302 302 298 296 296 298 298 298 297 298 299 298 297 299 300 300 299 299 296 294 294 294 291 289 288 286
285 286 287 287 286 286 286 286 287 288 288 290 292 292 294 296 299 301 300 296 293 292 292 295 298 297 299 300 295 292 292 292 296 297 297 298 298 298 294 289 285 287 285
285 286 286 286 285 285 285 285 286 286 287 289 290 290 294 294 297 299 300 297 294 293 294 292 298 297 299 300 294 292 290 289 288 289 290 293 296 296 297 290 288 287 285
285 285 285 285 284 283 283 284 283 284 284 284 286 286 288 292 294 297 299 298 296 294 294 293 294 298 299 300 297 292 292 288 289 285 285 285 286 287 288 286 287 285 281
283 283 283 283 283 284 282 281 281 281 282 282 283 284 286 288 292 294 296 297 298 295 293 294 294 296 298 299 298 295 294 291 285 283 283 283 283 283 281 282 284 282 282
281 281 282 283 283 282 280 280 280 281 281 281 282 282 283 285 286 291 293 294 295 294 296 296 295 295 296 298 298 296 295 287 285 283 282 282 282 281 280 279 280 281 281
279 279 280 280 282 282 281 282 281 280 280 282 281 281 282 282 284 285 287 290 293 294 294 295 295 295 296 296 296 295 292 286 286 285 283 281 280 279 278 279 277 278 277
278 279 280 281 280 281 281 281 282 281 282 282 283 283 283 283 284 288 288 287 289 291 294 289 289 289 290 291 291 292 290 287 286 284 282 280 281 280 280 277 278 276 273
279 280 280 281 281 281 281 281 285 287 287 287 288 287 286 288 288 288 288 289 289 291 290 287 288 289 289 289 289 289 288 288 286 284 283 282 281 281 280 277 276 275 273
278 279 280 281 281 281 281 279 278 282 286 286 286 287 288 287 287 287 287 288 289 291 288 288 287 288 288 288 288 287 285 286 285 284 283 282 281 280 281 279 278 277 275
279 283 280 280 280 281 281 280 280 281 280 280 284 285 287 287 286 286 287 287 285 288 286 287 287 287 287 287 286 286 286 284 284 284 283 282 282 281 279 279 279 278 277
279 280 280 280 281 282 282 283 282 282 281 280 280 282 284 286 286 286 286 283 283 283 285 286 288 288 287 287 286 285 285 285 285 284 283 282 281 281 280 280 279 281 279
279 282 282 281 281 281 282 282 282 281 280 279 279 280 281 281 281 280 282 283 283 283 284 285 286 288 287 287 286 286 285 285 285 284 283 282 281 281 280 279 279 279 280
279 280 283 280 280 280 281 281 281 280 280 280 280 282 285 282 281 281 282 283 283 283 284 285 286 287 287 286 286 285 285 285 285 285 284 282 281 280 281 281 279 280 280
279 279 280 279 280 281 281 281 280 280 280 280 280 281 284 281 280 280 281 282 282 283 284 285 285 286 287 286 286 285 285 285 285 285 285 284 282 282 281 280 280 279 280
278 279 279 278 278 280 279 280 280 280 280 280 280 279 280 279 280 280 281 280 282 282 284 285 285 285 287 287 287 286 285 285 286 286 285 284 283 282 282 280 280 279 279
280 279 279 279 279 280 280 279 280 281 280 279 278 279 278 279 279 279 281 281 282 282 284 285 285 285 286 287 286 286 286 287 287 286 286 284 284 284 282 281 280 280 280
277 278 278 278 278 278 279 278 278 278 278 278 278 278 278 279 279 279 280 282 282 282 283 284 284 284 286 286 286 285 286 287 286 286 286 285 284 283 282 281 281 280 280
277 277 277 277 277 277 277 277 277 278 277 277 277 277 277 277 278 279 280 281 282 283 283 283 284 285 285 286 286 286 287 288 287 287 286 284 283 283 282 281 281 280 280

GFSGL_sfc_thetae_099.txt.gz
Theta_e
299 300 300 301 302 303 303 304 306 307 308 310 313 316 318 321 322 322 322 322 320 320 320 320 320 320 319 318 318 316 313 311 306 301 303 302 303 304 303 302 302 301 303
297 298 298 298 299 299 299 299 301 301 304 305 306 308 311 314 318 320 320 321 320 319 319 318 318 318 317 317 315 313 311 307 305 300 300 300 301 301 301 299 300 300 298
296 296 295 295 296 296 297 298 299 299 300 301 302 303 304 306 308 311 315 318 320 320 320 319 318 317 316 317 315 314 313 309 308 302 298 299 299 301 298 299 297 295 296
294 293 293 293 293 294 295 296 297 297 297 297 298 300 301 302 303 304 306 309 312 314 317 318 318 317 316 315 314 314 312 309 307 304 299 297 297 297 298 295 294 294 293
292 291 290 291 292 292 292 293 294 295 295 295 296 296 297 299 301 301 302 302 304 307 311 311 313 313 310 314 313 313 310 308 304 301 297 295 294 294 296 294 295 292 292
289 288 289 289 289 289 290 290 291 291 292 293 293 294 294 297 300 303 302 300 300 303 304 307 308 305 306 308 309 309 309 307 304 301 296 298 295 294 295 293 291 289 289
286 287 287 287 287 287 288 288 287 288 289 289 291 292 293 294 300 300 301 300 298 298 300 301 302 303 303 305 307 306 306 307 308 304 299 298 295 295 294 289 288 288 289
284 285 286 286 285 285 285 285 285 286 286 287 288 290 291 293 296 298 299 297 298 296 294 296 299 299 299 301 301 299 301 303 303 302 302 299 299 297 297 293 291 287 286
284 284 285 285 284 284 284 283 284 285 284 285 287 288 287 289 295 295 296 296 295 294 296 296 297 298 300 302 298 295 296 295 300 302 301 301 300 300 297 292 288 289 285
283 284 284 284 284 283 283 282 283 283 284 285 285 285 288 286 292 294 295 295 295 295 297 295 297 297 299 301 297 295 293 293 292 292 294 297 298 298 298 295 291 290 285
283 282 283 283 282 282 281 281 281 281 281 281 282 283 283 286 287 292 293 292 293 294 295 295 295 297 299 299 301 295 295 291 293 290 290 288 290 291 291 288 290 290 286
280 280 280 280 281 281 279 279 279 279 279 280 280 282 284 283 288 289 290 291 293 292 292 294 296 297 297 298 299 297 298 293 288 287 286 286 287 288 287 285 285 283 285
279 278 279 280 280 281 279 279 279 279 279 280 281 281 282 283 282 288 289 290 290 289 292 294 295 297 297 298 298 298 296 288 287 285 286 286 285 283 282 282 281 282 281
277 277 277 277 280 280 280 281 280 280 278 281 281 280 281 282 281 282 284 286 288 287 289 290 292 295 296 296 296 297 293 288 287 287 286 284 282 279 279 279 280 279 278
277 278 278 279 278 279 280 280 281 281 280 280 282 282 283 282 284 287 287 286 286 287 288 287 288 288 289 290 290 292 291 288 287 286 283 282 282 281 281 279 278 277 275
278 278 279 280 279 280 280 280 285 287 288 288 287 286 284 287 288 288 288 288 288 289 286 285 286 288 288 289 288 289 289 289 287 285 284 283 282 281 280 279 277 276 276
278 279 279 280 279 279 279 279 278 282 286 286 286 286 287 287 287 288 288 287 287 287 284 285 285 287 287 288 289 288 288 288 287 285 284 283 282 282 282 279 279 278 275
278 281 279 279 279 279 279 280 280 279 279 280 285 285 286 286 286 287 286 286 282 284 284 283 284 285 287 287 287 287 286 285 285 285 284 283 282 282 280 279 279 278 277
278 278 279 280 280 282 281 280 281 281 281 281 281 283 284 285 286 286 286 282 281 281 283 283 284 285 285 287 286 285 285 285 285 284 284 283 282 282 281 280 279 281 279
278 280 281 280 280 279 279 279 280 280 281 281 279 279 281 281 280 280 280 280 282 282 283 283 283 284 285 286 287 285 285 285 285 285 285 284 283 283 281 280 280 280 279
277 278 281 279 278 278 278 278 280 280 280 280 280 281 284 282 281 280 280 280 280 281 282 282 283 284 285 285 286 285 285 285 285 285 284 283 283 282 282 281 281 281 280
278 278 279 279 279 278 278 279 279 280 280 280 280 281 284 282 279 279 279 280 280 281 280 281 282 283 284 285 285 285 285 285 285 285 285 283 282 282 281 281 280 280 280
278 278 279 278 279 279 278 278 279 279 280 280 280 280 280 279 279 279 279 280 281 280 280 282 282 283 284 285 286 285 285 285 285 286 285 283 282 282 281 280 279 278 279
276 277 277 277 278 278 276 277 278 279 278 278 278 278 277 278 278 278 279 279 280 281 282 282 282 283 284 284 285 286 286 286 285 285 285 284 283 283 281 281 280 279 279
274 277 276 276 276 275 276 276 277 277 278 278 277 277 277 277 277 277 278 278 279 280 282 282 283 283 283 284 284 286 285 287 286 286 285 285 284 283 282 281 280 280 280
276 277 276 275 275 275 275 274 275 275 275 276 276 275 275 276 276 277 278 278 278 280 282 283 283 283 283 284 285 286 287 287 286 287 286 285 284 283 282 281 280 280 279

GFSGL_sfc_thetae_102.txt.gz
Theta_e
299 299 298 299 300 300 299 300 301 302 303 304 306 308 310 312 315 319 321 321 320 320 320 320 320 321 321 320 319 319 317 316 313 302 303 304 304 306 304 304 306 305 308
297 296 295 296 296 297 297 298 298 298 299 300 301 303 304 305 307 309 311 315 319 319 319 319 319 319 319 319 318 317 316 315 310 301 300 301 302 305 304 303 302 302 302
295 294 293 293 293 293 294 296 296 296 296 297 298 298 299 300 302 303 305 306 309 311 316 318 318 318 317 317 317 315 313 310 309 303 299 300 299 302 301 300 300 298 298
293 291 290 290 290 291 292 292 293 294 293 294 295 295 296 297 299 300 301 301 302 304 307 310 313 316 317 317 316 316 314 311 309 305 299 299 298 300 301 298 295 296 294
290 289 287 289 289 289 289 289 289 290 290 292 292 293 294 295 297 298 299 299 299 300 302 304 308 308 305 309 314 315 314 312 310 307 298 296 297 297 298 298 297 295 295
285 286 287 287 287 286 286 287 287 287 288 288 288 290 291 293 296 297 298 297 298 298 298 300 302 303 305 307 307 307 311 311 308 306 302 300 298 299 299 296 292 291 290
283 284 285 285 285 284 285 284 284 284 285 285 286 287 289 290 294 295 295 296 296 296 296 296 298 300 301 302 304 306 306 307 309 307 305 304 300 299 298 295 291 290 290
283 283 284 284 284 284 284 283 282 283 283 283 284 286 287 288 292 293 295 293 294 294 293 294 296 297 298 299 300 299 302 305 306 306 307 306 304 300 299 299 296 292 287
282 282 282 283 282 282 282 282 282 282 282 282 284 284 283 284 290 292 291 289 291 292 294 294 294 295 299 301 299 296 298 299 301 303 303 303 302 302 300 295 291 291 286
281 281 282 282 281 280 280 279 280 281 281 282 282 283 285 283 288 291 290 287 287 289 293 293 296 296 299 300 297 297 295 295 294 294 297 300 301 300 299 299 293 291 285
281 281 280 280 279 279 279 279 279 280 280 279 280 281 281 283 283 290 290 286 286 286 288 291 293 296 297 298 299 297 296 296 295 291 291 292 293 296 295 293 294 294 286
279 279 278 278 279 280 277 277 277 277 277 278 279 280 281 282 286 288 289 289 289 286 286 288 291 293 294 296 297 299 299 297 290 289 288 289 290 290 289 288 287 286 286
277 277 277 278 278 279 277 278 278 278 277 278 280 280 281 282 282 287 288 288 288 286 286 287 289 290 292 293 296 298 299 291 289 287 288 288 287 288 286 284 283 284 283
276 276 277 276 278 278 278 279 278 278 278 280 280 280 279 281 281 282 282 286 288 287 287 286 288 289 290 291 293 295 295 290 289 289 289 286 284 285 285 284 282 283 282
277 277 277 278 277 277 279 278 280 280 280 282 282 282 282 281 282 286 287 285 286 286 287 285 285 284 284 288 289 291 292 289 289 287 285 284 284 284 283 283 283 282 281
278 278 278 279 278 278 278 279 283 285 286 287 287 286 285 286 288 287 288 288 288 288 284 283 283 284 285 286 287 288 289 289 288 286 285 285 284 283 282 281 281 283 280
277 278 279 279 278 278 279 279 278 281 285 285 286 287 287 287 287 287 287 287 287 287 281 281 282 282 284 285 286 287 287 288 287 286 285 284 284 283 283 281 281 281 280
277 280 278 277 278 279 279 280 279 278 278 280 284 285 286 287 287 286 287 286 282 282 281 281 281 282 282 284 284 286 286 286 285 285 285 284 283 282 281 281 280 280 279
277 277 278 280 279 280 279 278 279 278 279 280 280 283 284 285 285 286 286 281 280 280 281 281 282 282 281 282 284 285 285 285 285 285 285 284 283 283 281 281 281 282 280
276 279 280 279 279 278 278 278 278 278 279 279 280 280 280 281 279 279 281 280 280 280 281 281 282 281 279 282 284 285 285 285 285 285 285 284 283 284 282 281 281 281 280
276 277 281 278 278 279 279 278 278 278 278 279 279 281 284 281 281 281 280 279 279 279 279 280 278 278 278 282 283 285 285 285 285 285 285 284 283 282 283 282 281 282 280
278 278 278 278 278 278 278 279 278 277 278 278 279 281 283 281 280 279 279 279 279 280 280 280 279 279 278 278 282 283 284 284 285 285 285 284 283 283 282 281 281 281 280
277 277 277 277 278 279 277 277 276 277 278 277 278 278 278 278 277 278 278 279 279 279 280 281 280 281 279 279 283 284 283 284 285 285 285 283 283 282 282 281 281 280 280
279 277 277 277 277 277 276 275 276 276 276 276 277 277 277 277 277 277 277 277 278 278 279 280 281 281 282 282 283 284 284 285 285 285 285 283 282 283 282 281 281 281 280
275 276 277 276 275 275 275 275 275 275 275 274 275 275 275 276 275 276 276 277 278 278 279 279 281 282 282 282 283 283 284 286 285 285 285 284 283 282 282 281 280 280 280
273 274 275 275 274 275 274 274 274 274 273 273 273 273 273 273 274 275 275 276 277 277 277 278 279 281 283 283 283 284 286 287 286 287 285 285 283 282 282 281 280 280 280

GFSGL_sfc_thetae_105.txt.gz
Theta_e
297 296 296 297 298 299 298 298 298 299 299 300 301 302 303 304 306 307 309 311 312 318 320 320 320 321 320 321 322 321 319 318 314 316 308 307 309 310 309 312 312 313 315
294 293 293 293 293 294 294 295 296 295 296 296 297 297 298 300 302 303 303 305 305 307 309 314 318 318 319 320 320 318 318 319 316 314 303 303 305 309 308 306 306 307 309
293 291 291 291 291 291 291 292 293 293 293 294 295 295 295 296 298 300 301 301 302 303 304 306 308 310 315 318 318 317 317 316 316 310 300 301 301 305 303 303 303 302 303
291 290 289 289 289 290 290 290 290 291 291 291 292 292 294 295 296 297 298 299 300 301 302 303 305 307 308 308 311 316 316 314 311 307 302 300 299 301 303 300 297 299 298
289 289 288 289 289 288 288 288 288 289 290 290 290 290 291 293 293 295 295 295 296 297 299 300 302 302 301 304 306 307 311 312 310 307 301 298 297 298 300 300 299 297 296
286 286 287 287 287 287 287 287 287 287 288 288 288 288 289 290 293 294 294 293 293 294 294 297 299 299 301 303 304 304 305 305 309 308 304 302 301 302 302 299 297 294 292
285 285 285 285 285 285 286 285 285 285 286 286 286 287 287 288 291 293 293 293 292 292 293 294 295 297 298 299 301 302 303 305 306 308 307 305 305 304 302 298 297 298 298
284 284 284 284 284 284 284 284 284 285 285 285 286 286 287 288 290 291 292 291 291 291 293 293 294 294 296 297 298 299 300 302 304 305 307 309 309 305 305 303 301 298 290
283 283 283 283 283 283 283 283 283 283 284 284 285 285 285 286 289 290 290 290 289 289 290 291 292 294 295 296 296 296 297 299 301 302 303 305 305 305 305 300 294 292 287
283 283 283 283 282 282 282 282 283 283 282 284 283 284 285 286 287 289 290 289 287 287 288 289 291 293 295 296 295 294 293 296 299 299 300 301 303 303 302 301 296 295 287
282 282 282 282 281 281 281 281 281 281 281 281 282 283 283 285 286 289 290 288 287 286 286 286 288 290 291 292 293 293 294 297 298 296 295 296 297 299 300 300 298 298 292
280 280 280 280 280 281 280 280 280 280 280 280 280 281 284 285 286 288 289 289 289 286 285 286 286 288 289 289 290 292 294 296 295 293 291 291 292 294 296 294 296 296 295
279 279 279 280 280 280 280 280 280 280 280 280 281 281 282 285 285 287 288 288 289 287 287 287 288 288 288 288 289 290 292 292 292 290 289 290 292 292 287 286 285 285 286
278 278 279 279 281 280 281 281 280 280 279 280 281 282 283 283 284 285 285 286 288 288 288 287 288 288 288 287 287 289 291 291 291 290 290 290 286 286 286 285 285 286 284
278 279 279 279 279 279 280 280 280 282 282 282 282 283 283 283 285 287 287 286 287 287 288 286 285 285 284 285 286 288 289 289 289 290 287 285 286 286 285 285 285 285 284
278 279 279 279 279 279 279 279 283 284 285 285 285 285 285 287 288 288 288 288 288 288 286 283 282 282 283 283 283 285 286 287 288 288 287 286 285 285 285 285 285 285 283
278 278 279 279 278 278 279 279 278 281 283 284 284 285 286 286 287 287 287 287 287 288 284 282 281 281 282 283 283 284 284 286 287 287 286 285 285 285 285 283 284 284 283
278 279 278 278 278 279 279 280 278 278 278 279 282 283 285 285 285 286 286 286 283 284 282 281 281 282 282 283 283 282 284 285 285 285 285 285 285 285 284 283 283 283 282
278 277 278 279 280 280 279 279 279 278 278 278 279 282 283 285 285 285 286 283 281 281 281 281 282 282 283 283 282 283 283 284 285 285 285 285 285 284 283 283 283 284 282
277 279 280 280 279 278 279 279 278 278 278 278 278 279 281 282 281 281 282 282 281 281 281 281 281 281 282 282 282 283 282 284 284 285 285 285 285 285 284 283 284 284 283
277 278 280 278 278 278 278 278 278 278 277 277 278 280 282 280 280 279 280 280 280 280 280 280 280 281 281 281 281 282 282 283 284 285 285 285 285 284 284 284 283 284 282
278 278 278 278 278 278 278 278 277 277 276 276 277 278 281 280 279 279 279 279 280 280 281 281 280 280 281 281 281 281 281 282 284 284 285 285 285 284 284 283 283 283 281
278 278 278 277 278 278 277 277 276 276 276 276 276 276 276 277 278 278 277 278 279 279 279 279 279 279 281 283 282 281 282 283 283 284 284 285 284 284 283 283 283 281 281
279 277 276 277 277 277 275 275 276 276 276 276 275 275 275 276 275 276 276 277 278 278 279 279 279 279 280 281 283 284 284 284 285 285 285 284 284 284 283 283 283 282 281
276 274 274 275 275 274 274 274 275 275 275 275 274 274 274 275 274 275 276 276 276 277 277 278 279 279 280 280 282 283 284 285 285 284 285 285 284 284 283 283 282 282 281
273 273 273 273 273 273 273 273 274 274 274 274 274 274 274 273 274 274 274 274 275 275 276 277 277 277 278 279 281 283 284 285 286 287 285 285 284 283 283 282 282 281 281

GFSGL_sfc_thetae_108.txt.gz
Theta_e
294 294 294 294 296 296 297 296 296 297 297 297 298 298 299 300 303 303 304 305 305 306 308 309 310 316 321 321 321 321 320 319 315 317 320 317 313 314 312 314 316 316 318
293 292 292 292 291 292 292 292 293 293 293 294 294 295 295 296 298 299 300 302 302 302 303 305 305 308 309 315 319 319 319 319 316 314 316 311 310 313 313 312 312 313 316
293 292 291 291 291 290 290 291 291 292 292 293 293 293 293 295 296 296 296 297 298 299 300 301 303 305 306 307 307 307 315 317 317 315 314 304 305 306 305 307 307 306 309
292 291 290 290 290 290 291 291 290 291 291 291 291 291 292 292 293 294 295 295 296 296 298 299 300 301 301 302 304 305 307 307 314 314 308 300 301 302 305 302 299 301 301
291 290 290 291 291 290 290 290 289 290 290 290 290 290 290 291 291 292 293 293 294 294 295 296 298 298 298 301 301 303 304 304 304 308 302 299 300 300 301 302 302 300 297
290 289 289 289 288 288 288 287 287 287 287 288 288 288 288 289 291 292 292 291 292 291 292 293 294 296 297 298 299 300 301 301 302 302 305 304 303 304 303 301 300 295 293
289 288 287 287 287 287 287 287 287 287 287 287 288 288 288 289 290 292 292 291 291 291 291 291 292 293 296 295 297 297 298 300 302 303 301 303 307 306 304 300 300 299 300
288 287 287 286 286 287 287 286 287 287 287 287 287 287 288 288 290 291 291 291 291 291 291 291 291 291 293 294 294 294 295 296 298 301 303 305 306 310 306 304 303 301 294
286 286 286 286 286 286 285 286 286 286 286 286 286 286 286 287 289 290 290 290 289 289 290 290 290 290 292 292 291 292 292 293 297 298 300 301 302 303 306 305 300 294 288
285 285 286 286 285 285 285 285 285 285 285 286 285 286 287 287 288 289 290 289 288 288 289 289 290 289 290 290 289 288 288 289 293 295 298 298 300 304 303 305 301 296 295
285 285 285 285 284 284 284 285 285 284 284 285 285 286 286 288 288 289 289 288 287 287 287 287 288 289 289 289 289 287 287 289 291 293 294 296 297 298 301 303 304 300 295
284 284 284 284 284 284 284 284 284 284 283 284 284 285 286 287 288 288 289 289 289 287 286 287 288 288 289 289 289 289 289 289 289 291 291 291 293 294 296 299 300 299 302
283 283 283 283 283 284 283 283 283 283 283 283 283 283 284 286 287 288 288 288 288 288 288 289 289 289 289 289 288 288 288 287 288 289 287 289 292 294 291 286 286 287 286
282 282 283 282 283 283 283 283 282 283 282 282 282 282 283 284 285 287 287 288 288 288 288 289 289 289 288 288 287 288 288 289 286 286 287 289 291 287 287 286 286 287 286
281 282 282 282 282 282 282 282 282 283 283 282 283 283 282 282 285 287 287 287 288 288 288 288 287 287 285 285 285 286 287 288 287 286 286 286 288 287 287 286 287 287 286
281 281 281 281 282 281 282 282 284 284 285 284 285 284 284 285 286 287 288 288 288 288 286 285 285 284 284 284 284 284 285 285 286 284 285 285 286 286 286 285 286 286 286
280 280 281 281 281 281 281 281 280 282 283 284 284 284 284 285 285 286 286 286 287 287 284 284 283 283 283 284 284 284 284 285 285 285 285 285 285 285 285 285 285 285 285
281 281 280 280 281 281 281 281 280 279 278 280 283 283 284 284 284 285 285 285 283 285 284 283 282 283 283 283 284 284 284 284 284 284 284 285 285 285 285 285 285 285 284
280 280 280 281 281 281 281 280 280 280 279 280 281 282 283 283 284 285 286 283 282 281 282 282 282 283 283 283 283 284 283 283 283 283 284 285 285 285 285 285 285 286 285
280 280 280 281 281 280 280 279 279 279 279 279 279 279 280 281 280 281 281 281 281 281 281 281 281 282 282 282 282 283 282 283 283 283 284 284 285 285 285 285 285 285 284
279 280 281 281 280 279 279 278 279 279 278 278 278 279 281 279 279 279 279 280 279 280 280 281 281 281 282 282 282 282 282 282 282 283 284 284 284 285 285 286 285 285 285
280 280 280 279 279 279 278 279 278 278 277 277 278 278 280 278 277 278 278 279 279 280 281 280 280 280 280 280 281 281 282 282 282 283 284 283 283 285 285 285 285 285 284
280 280 279 279 279 279 279 278 277 277 277 277 277 277 277 277 277 277 277 278 278 279 279 279 279 279 280 281 282 282 282 282 283 284 283 283 283 284 285 284 284 283 283
280 279 278 277 278 278 277 277 277 277 277 277 277 277 277 276 276 277 277 278 278 278 279 279 279 279 280 280 281 282 283 284 285 285 284 283 283 284 285 284 284 283 283
279 277 276 276 276 276 276 276 276 276 276 276 276 276 276 277 277 277 277 277 277 277 277 278 279 279 279 279 280 280 281 282 283 284 284 284 284 284 285 284 283 283 282
276 275 275 275 275 275 275 275 275 276 275 276 276 277 277 277 277 277 277 277 277 277 277 278 278 278 278 279 279 281 282 283 284 285 285 285 284 285 284 283 283 283 282

GFSGL_sfc_thetae_111.txt.gz
Theta_e
293 292 292 293 293 293 293 294 294 295 294 294 295 296 296 296 298 299 299 301 301 302 303 304 305 307 307 309 310 313 318 318 314 316 317 318 314 315 315 316 317 317 318
292 292 292 292 292 291 291 291 292 292 293 293 293 293 293 294 296 296 295 296 297 297 298 300 301 303 304 306 304 304 306 307 312 313 316 311 312 313 315 314 314 315 317
293 293 292 292 291 291 291 291 291 291 291 291 291 291 291 292 293 293 294 294 295 296 297 297 298 300 300 299 300 303 304 306 305 305 312 311 311 308 308 310 311 312 312
292 292 291 291 291 291 291 290 289 289 289 289 290 289 290 290 291 291 292 292 293 294 295 295 295 296 295 297 298 299 301 301 303 303 304 304 303 303 305 303 301 302 305
291 291 290 290 290 289 289 288 288 288 288 289 289 289 289 289 289 290 291 290 290 291 292 292 294 295 296 298 296 297 297 296 298 299 300 301 300 299 300 302 303 301 299
291 290 290 289 288 288 288 288 288 288 288 288 288 288 288 288 292 291 291 290 290 290 290 291 292 293 294 295 297 298 297 294 294 295 296 298 301 302 302 301 300 295 293
290 289 288 288 287 288 288 287 287 287 287 287 287 287 287 288 291 291 291 290 289 290 290 290 290 291 293 291 293 295 295 297 296 294 294 297 299 302 304 300 299 297 299
289 288 288 287 287 287 287 287 287 287 286 286 287 287 287 287 290 290 291 290 289 290 290 290 289 289 290 291 290 289 290 291 293 294 294 295 297 299 299 300 302 302 296
288 287 287 287 286 286 285 285 286 286 286 286 286 286 286 287 289 289 289 289 289 289 289 290 289 289 290 291 288 287 287 288 291 293 294 296 297 299 299 299 296 297 294
286 286 286 286 285 285 285 285 286 286 285 286 286 287 287 287 289 289 289 288 287 287 288 288 291 289 290 290 287 286 284 285 287 288 289 290 293 295 299 298 298 295 296
286 286 285 285 284 285 285 285 285 285 285 285 285 286 286 287 287 289 289 288 287 286 286 287 288 290 290 290 290 287 286 288 287 286 286 287 290 291 293 296 297 296 296
285 284 284 284 284 284 284 285 285 284 284 284 284 284 286 286 288 289 289 289 289 286 286 287 288 290 290 290 290 290 289 289 286 285 285 286 287 288 290 292 294 296 298
283 283 283 284 284 284 283 283 283 283 283 283 282 283 283 285 286 288 289 289 289 287 287 288 290 289 290 289 289 289 288 286 285 284 284 284 286 288 288 290 291 289 289
282 282 283 283 283 283 283 283 283 282 282 281 281 282 282 283 284 285 286 286 288 288 288 288 288 289 289 288 288 287 286 285 284 283 284 285 286 286 286 289 289 290 288
282 282 282 283 282 282 283 283 282 283 283 282 282 282 281 281 283 285 285 285 285 287 287 286 285 285 284 285 285 285 285 284 283 284 283 283 283 284 285 288 288 288 286
281 282 282 282 282 282 282 282 285 285 285 285 285 284 283 285 285 286 286 287 287 287 284 283 283 283 283 282 282 282 283 284 283 283 282 283 283 283 283 285 286 285 285
281 281 281 282 281 281 281 281 280 283 284 284 284 284 285 284 285 285 285 285 286 286 282 282 282 283 282 282 282 282 281 283 283 282 281 281 283 284 284 284 285 285 284
281 282 281 281 281 281 281 281 281 280 279 280 283 283 284 284 284 284 284 284 282 284 282 281 282 282 282 281 281 281 281 281 282 281 281 281 283 283 283 284 284 284 284
281 281 281 281 281 282 282 281 280 280 280 279 280 281 282 283 283 283 283 280 280 279 280 280 281 281 280 281 281 281 280 281 281 281 281 281 282 283 283 284 285 287 286
281 281 281 280 281 281 280 280 279 279 279 279 279 279 280 280 279 278 279 279 279 279 279 279 280 280 280 280 280 280 280 280 280 280 280 281 282 283 282 284 284 284 284
280 280 281 281 280 280 280 279 279 279 279 278 278 279 282 279 278 277 277 278 278 279 279 279 279 279 280 280 279 279 279 279 280 281 280 281 282 281 282 284 284 284 284
280 280 280 280 280 280 279 280 279 279 278 277 278 279 281 278 278 277 277 278 278 278 279 278 278 278 278 278 278 278 277 278 280 281 281 281 281 282 282 283 284 284 284
280 280 280 280 279 279 279 279 278 278 277 277 277 277 278 277 277 277 277 277 278 278 278 278 278 278 279 279 280 279 278 278 279 281 281 281 281 281 282 282 283 283 283
280 279 279 278 278 278 278 277 277 277 277 277 277 277 277 277 277 277 278 278 278 278 278 278 278 278 278 278 279 279 280 280 281 280 280 281 281 282 282 283 283 283 282
280 279 278 277 276 277 277 276 276 276 277 276 276 276 277 277 277 277 278 278 278 277 277 278 278 278 277 277 278 278 279 281 280 280 281 282 282 283 283 283 283 282 282
279 277 276 276 275 276 276 275 275 276 276 276 276 276 277 277 277 277 278 278 278 278 278 278 278 278 278 278 278 279 281 282 282 284 283 283 282 283 284 283 283 282 281

GFSGL_sfc_thetae_114.txt.gz
Theta_e
292 292 291 291 292 291 291 291 292 293 293 293 293 294 294 295 297 297 297 298 297 298 299 299 300 303 303 305 303 304 305 305 303 306 312 318 316 318 317 320 319 319 319
292 291 291 291 291 291 290 290 290 289 290 289 288 289 290 291 293 293 293 294 295 295 295 296 297 299 300 299 300 301 302 304 302 300 305 307 314 316 317 316 316 317 317
291 290 290 290 288 287 288 289 288 288 288 288 288 288 288 289 289 290 291 290 291 292 293 294 294 295 295 294 297 296 299 299 300 300 300 304 308 308 310 310 311 314 313
289 288 287 286 286 286 286 286 285 286 286 286 286 288 288 288 289 290 290 290 290 290 292 292 292 293 292 292 295 294 296 295 295 296 297 300 303 303 304 304 304 304 307
287 286 285 285 285 285 285 285 286 287 286 286 287 287 287 287 288 289 289 289 288 288 290 291 291 292 294 294 292 293 294 292 292 292 293 294 297 299 301 303 302 304 301
286 285 286 285 284 284 284 284 284 284 284 284 284 284 284 287 290 291 290 288 288 288 288 289 290 292 292 293 294 294 292 290 290 290 290 291 293 296 299 299 300 296 294
286 286 285 284 284 284 284 283 283 282 282 282 283 283 283 284 290 291 291 288 287 287 287 288 288 289 290 289 290 290 291 292 292 289 288 289 289 292 294 293 294 295 298
285 285 285 284 284 284 283 282 281 282 281 282 282 283 283 285 290 290 290 287 286 286 287 287 286 286 287 288 287 285 286 287 288 289 287 287 289 291 292 293 294 294 297
286 284 284 284 283 282 281 281 281 281 281 281 283 282 282 283 289 290 288 285 285 285 286 286 286 286 289 290 286 284 284 285 289 290 290 291 291 292 292 291 289 289 290
284 284 285 285 284 283 282 281 282 282 283 284 283 284 286 284 288 289 288 286 284 285 285 286 289 288 290 290 286 284 283 283 284 285 285 286 288 287 291 290 289 288 289
283 283 283 283 281 282 281 282 282 282 283 283 283 282 282 284 284 289 289 286 284 284 284 284 285 289 290 290 290 287 285 288 286 283 283 283 284 286 287 289 288 289 288
282 281 281 280 281 282 279 280 280 280 280 280 280 281 282 283 287 287 288 289 288 285 284 285 284 289 290 290 289 290 290 289 282 281 280 281 282 283 284 286 287 287 289
280 279 279 279 280 280 279 278 278 279 279 279 279 279 280 282 282 286 287 287 287 285 285 286 289 290 290 289 289 289 289 282 281 280 280 280 280 281 282 283 286 287 288
278 278 278 278 279 279 280 280 279 278 277 279 279 279 279 280 281 281 283 283 285 285 285 284 287 288 288 287 286 286 283 282 280 280 281 281 280 278 281 283 283 285 285
278 278 278 279 278 278 279 279 279 280 280 279 280 281 280 279 281 285 285 283 284 285 285 284 281 281 281 282 283 282 282 280 280 280 280 281 281 281 281 283 284 284 283
277 278 278 279 278 278 278 279 284 285 286 286 286 284 283 285 286 286 286 286 286 286 283 281 281 280 280 280 281 279 279 281 280 281 280 279 279 279 279 281 283 283 282
277 278 278 280 278 277 277 278 278 281 285 284 285 285 285 285 285 285 285 285 285 285 280 280 280 280 281 281 280 279 279 279 279 277 279 278 278 279 280 280 281 282 283
277 281 279 278 277 277 278 278 278 278 277 278 282 283 284 284 284 284 284 283 278 279 279 278 278 279 279 279 278 278 279 278 276 278 276 276 279 278 278 279 280 281 283
277 277 278 277 277 279 278 278 278 278 278 278 278 281 281 283 283 283 283 277 276 276 278 278 278 278 278 278 278 278 278 279 279 279 279 279 279 278 278 279 281 283 284
277 281 281 278 277 278 278 277 278 278 277 277 278 277 278 279 278 277 277 277 276 276 277 278 279 278 277 277 278 278 278 278 277 276 277 278 279 279 279 279 280 280 282
277 277 281 278 277 277 276 276 277 277 277 277 277 278 282 279 277 276 276 277 276 276 276 276 276 276 276 277 276 276 276 275 275 275 276 278 278 279 280 280 281 282 283
277 277 277 276 277 277 276 277 277 278 277 276 276 277 280 277 276 276 277 277 277 277 277 277 277 276 276 276 276 276 276 275 275 276 277 277 278 279 280 280 281 281 283
275 274 276 276 277 278 275 276 277 277 277 276 276 276 276 276 276 276 276 277 278 278 278 278 277 276 276 277 278 277 276 276 277 278 277 277 277 277 279 280 280 281 282
274 275 277 276 276 274 274 274 277 277 277 276 275 275 275 275 276 276 277 277 278 278 278 278 278 277 277 277 277 278 278 278 278 278 278 277 276 277 279 280 281 282 282
275 278 275 272 272 272 272 274 276 275 275 275 275 275 275 275 275 276 277 277 278 278 278 278 278 278 277 277 276 277 278 280 280 280 279 278 277 277 280 280 281 282 281
279 273 270 270 269 271 272 274 275 275 274 275 274 274 274 275 275 276 277 277 278 279 279 279 279 279 278 278 278 278 281 282 282 283 282 281 280 280 281 281 282 280 280

GFSGL_sfc_thetae_117.txt.gz
Theta_e
292 292 291 291 291 291 290 290 288 289 290 290 290 290 290 291 293 293 293 294 295 296 296 297 297 298 301 298 298 301 300 301 298 301 304 307 307 308 311 318 321 322 323
291 289 288 289 289 289 288 288 288 288 289 289 289 287 288 288 288 289 289 290 290 290 292 294 294 295 296 294 296 296 297 298 297 295 299 301 302 307 308 310 315 318 319
288 286 285 285 284 283 283 284 284 284 284 285 286 286 286 286 287 288 288 289 289 289 290 290 291 292 291 292 294 293 295 295 295 294 294 298 301 304 304 307 307 309 312
287 286 284 283 283 282 283 283 283 284 283 284 284 285 285 286 287 288 288 287 287 288 290 291 291 290 289 290 292 292 294 293 293 292 292 293 295 298 300 301 300 304 305
286 285 284 283 283 283 282 283 283 283 283 283 283 284 284 285 287 287 288 288 288 288 288 289 290 291 293 291 291 290 289 288 289 290 289 289 290 292 292 294 294 296 299
286 285 285 284 283 283 282 282 282 282 281 282 282 282 282 286 289 291 289 286 287 286 286 287 289 291 291 291 291 291 289 287 286 285 286 286 287 288 290 290 291 290 291
285 285 284 284 284 284 283 283 282 281 281 280 281 282 281 282 290 291 291 286 285 285 286 286 286 288 289 287 289 289 289 289 289 286 284 284 284 286 287 287 287 288 289
284 284 284 283 282 283 282 281 281 282 282 282 282 282 281 283 289 290 291 285 285 285 285 285 284 285 286 287 286 285 285 286 286 287 285 285 286 288 288 287 287 287 289
284 283 283 283 282 281 280 279 280 280 280 281 282 283 283 284 289 290 288 285 284 284 285 285 286 285 289 291 285 284 283 284 289 290 291 291 290 290 290 287 285 284 284
283 283 283 282 281 280 279 279 279 280 281 282 282 282 285 282 287 289 288 285 284 285 286 286 289 287 290 290 286 285 282 283 283 283 284 284 286 286 289 286 286 284 284
283 282 282 281 280 279 279 279 279 279 279 278 279 279 280 282 282 288 288 284 283 284 285 284 285 288 289 290 290 287 285 286 286 283 281 281 282 283 284 285 285 284 283
281 281 280 279 280 280 277 278 278 277 277 277 277 278 279 280 285 285 287 287 287 283 282 283 284 288 289 289 289 290 290 289 284 281 280 280 280 280 281 281 282 282 283
279 278 278 278 279 279 277 277 277 277 277 277 278 277 278 280 280 285 286 286 286 284 284 285 287 287 288 287 288 288 288 282 280 279 279 279 280 281 281 279 281 282 283
277 276 277 277 278 277 278 279 277 277 276 278 278 278 278 279 279 280 281 282 285 284 284 283 285 287 287 286 285 284 283 282 280 279 279 280 280 276 278 278 279 281 282
277 277 277 278 276 277 278 277 279 278 279 279 280 281 279 279 281 285 285 283 284 284 284 282 281 280 280 280 281 282 282 280 279 279 279 279 280 280 280 279 279 279 280
277 277 277 278 277 277 277 277 282 284 285 285 286 284 283 285 286 286 285 285 285 286 282 280 278 279 280 280 279 280 280 281 279 279 277 276 277 278 277 278 279 277 277
277 277 278 279 277 277 277 277 276 279 284 284 284 284 285 284 285 284 284 284 285 283 276 277 277 278 278 279 279 279 278 278 278 276 271 272 275 276 277 276 276 277 278
277 281 278 277 276 276 277 277 277 277 277 277 281 282 283 284 283 283 284 283 277 278 277 276 276 277 277 277 277 277 277 277 274 274 273 272 273 276 276 275 276 276 277
277 277 277 276 277 278 278 277 277 277 277 277 277 280 281 282 283 283 283 277 276 276 276 276 276 277 277 277 277 276 276 275 276 275 271 269 274 275 276 277 277 280 280
276 281 281 277 277 277 277 277 276 276 275 276 277 277 278 278 278 278 277 277 276 276 276 276 276 276 276 275 275 275 275 276 275 273 273 273 274 275 276 277 277 277 278
277 278 281 278 276 276 275 275 276 276 276 277 277 278 281 279 277 276 276 276 276 277 277 277 277 276 276 275 275 274 274 274 274 274 273 274 274 276 276 277 278 278 279
277 277 277 276 276 276 276 276 275 276 276 276 276 277 280 277 276 276 276 277 277 278 278 278 277 277 277 276 276 275 274 274 274 275 275 275 275 275 275 276 276 277 279
277 276 277 276 277 278 276 275 275 275 275 275 275 276 276 275 275 275 275 276 277 278 278 278 278 277 278 278 277 276 275 275 276 276 276 275 275 275 275 274 275 277 278
276 276 276 276 276 275 273 273 274 276 276 275 275 275 274 274 275 275 276 276 277 277 278 278 278 278 278 278 278 277 277 277 277 277 276 276 275 276 276 276 276 277 279
276 275 275 276 273 272 271 272 273 274 274 274 274 274 274 274 274 274 275 276 276 277 278 279 280 280 279 278 278 278 278 280 279 279 278 277 276 275 276 276 277 278 279
276 275 276 274 270 271 270 271 272 273 273 274 275 273 273 273 274 274 275 276 277 278 278 279 281 281 281 281 280 279 282 282 282 283 282 280 279 279 278 278 279 279 281